     2              OBSERVATION DATA    GPS                 RINEX VERSION / TYPE
teqc 1997Jul24 19970814                                     PGM / RUN BY / DATE
                                                            COMMENT
BIT 2 OF LLI FLAGS DATA COLLECTED UNDER A-S CONDITION       COMMENT
BIT 2 OF LLI FLAGS DATA COLLECTED UNDER A-S CONDITION       COMMENT
Original Marker Name: 0511                                  COMMENT
Campaign Name: HPGN 1991                                    COMMENT
4-Character Station Name: 0511                              COMMENT
6-Character Antenna Code: TRMSST                            COMMENT
Vertical Measurement Point: TGP                             COMMENT
Vertical Offset to Rinex Ref. Point: 0.0629                 COMMENT
Radial Measurement Point: OGP                               COMMENT
Radial Offset to Rinex Ref. Point: 0.2413                   COMMENT
Antenna Height from Field Measurement: 1.5440 m             COMMENT
Original XYZ: -2717728.1379 -4367772.7243 3757938.0866      COMMENT
New XYZ position is based on association with SCEC monument COMMENT
E1F0X6U1+0011. Position of that monument is believed to be  COMMENT
valid to within 1 m horizontally; vertical accuracy         COMMENT
should be no worse than 3-times this value.                 COMMENT
                                                            COMMENT
Revised Rinex header created by UCSD GPS archive for        COMMENT
GSAC on 19-Apr-1999 (1999:109) 06:43:51 GMT                 COMMENT
For assistance contact dagnew@ucsd.edu or hjohnson@ucsd.edu COMMENT
                                                            COMMENT
HPGN CALIF STA 05-11 1990                                   MARKER NAME
unknown CALIF DEPT TRANSPORTATION                           OBSERVER / AGENCY
622 TRIMBLE 4000 SST NP 4.30 / SP 4.20                      REC # / TYPE / VERS
123 TR 4000SST L1/L2 GEO                                    ANT # / TYPE
 -2717729.0000 -4367771.0000  3757931.0000                  APPROX POSITION XYZ
        1.4621        0.0000        0.0000                  ANTENNA: DELTA H/E/N
     1     1     0                                          WAVELENGTH FACT L1/2
     3    C1    L1    L2                                    # / TYPES OF OBSERV
     0                                                      INTERVAL
  1991     5    14    18    21   45.000000                  TIME OF FIRST OBS
  1991     5    15     0    21   15.000000                  TIME OF LAST OBS
     0                                                      # OF SATELLITES
                                                            END OF HEADER
 91  5 14 18 21 45.0000000  0  4G18G 2G19G11
  20795974.375          -0.58018        -0.50033
  24112188.789          -0.91116        -0.20831
  20886521.758          -0.79817        -0.31232
  24403810.766          -0.47415        -0.46431
 91  5 14 18 22  0.0000000  0  4G18G 2G19G11
  20800333.938       22916.755 8     17857.12623
  24103740.0394     -44395.16945    -34593.09261
  20887254.703        3827.830 7      2983.01422
  24397928.125      -30918.059 5    -24091.92521
 91  5 14 18 22 15.0000000  0  4G18G 2G19G11
  20804712.422       45921.535 8     35782.88123
  24095296.109      -88769.549 6    -69170.46021
  20887983.703        7688.317 7      5991.17022
  24392055.617      -61779.647 6    -48139.75221
 91  5 14 18 22 30.0000000  0  4G18G 2G19G11
  20809106.6644      69018.31848     53780.34363
  24086856.3524    -133119.09345   -103728.49261
  20888729.195       11584.983 7      9027.51122
  24386193.719      -92580.290 6    -72140.08421
 91  5 14 18 22 45.0000000  0  4G18G 2G19G11
  20813521.039       92212.037 8     71853.31923
  24078422.758     -177438.906 6   -138263.37221
  20889474.789       15522.673 7     12095.82322
  24380346.695     -123314.673 6    -96088.81921
 91  5 14 18 23  0.0000000  0  4G18G 2G19G11
  20817953.2664     115505.14148     90003.75463
  24069992.016     -221726.433 5   -172773.07621
  20890235.875       19503.813 7     15197.98822
  24374509.281     -153980.096 6   -119983.81221
 91  5 14 18 23 15.0000000  0  4G18G 2G19G11
  20822404.7504     138894.31148    108229.04463
  24061572.7974    -265984.66046   -207259.94761
  20890997.563       23525.180 7     18331.51022
  24368686.727     -184579.447 6   -143827.34121
 91  5 14 18 23 30.0000000  0  4G18G 2G19G11
  20826874.438      162383.024 8    126531.89723
  24053154.6804    -310209.71546   -241720.99461
  20891773.742       27590.296 7     21499.11322
  24362876.5394    -215108.52846   -167616.09161
 91  5 14 18 23 45.0000000  0  4G18G 2G19G11
  20831363.7194     185974.17648    144914.57363
  24044746.117     -354398.754 6   -276153.96921
  20892554.734       31701.953 7     24702.98422
  24357078.984     -245564.126 5   -191347.56621
 91  5 14 18 24  0.0000000  0  4G18G 2G19G11
  20835871.672      209666.212 8    163375.86123
  24036342.8914    -398553.25646   -310560.04961
  20893347.867       35858.499 7     27941.83022
  24351299.7734    -275947.50645   -215022.76361
 91  5 14 18 24 15.0000000  0  4G18G 2G19G11
  20840400.063      233460.578 8    181916.87823
  24027948.719     -442671.117 6   -344937.58121
  20894144.0784      40061.60647     31216.93562
  24345531.906     -306256.433 5   -238639.93421
 91  5 14 18 24 30.0000000  0  4G18G 2G19G11
  20844946.0084     257356.60348    200537.12362
  24019560.258     -486753.111 6   -379287.13821
  20894957.9774      44310.39247     34527.67062
  24339778.4924    -336491.55946   -262199.64161
 91  5 14 18 24 45.0000000  0  4G18G 2G19G11
  20849514.125      281356.330 7    219238.15322
  24011177.9694    -530797.21046   -413607.21661
  20895772.367       48606.551 7     37875.30422
  24334038.164     -366650.617 5   -285700.08421
 91  5 14 18 25  0.0000000  0  4G18G 2G19G11
  20854100.789      305458.085 8    238018.72022
  24002804.531     -574804.248 5   -447898.39121
  20896600.117       52949.009 7     41259.01722
  24328315.5084    -396734.49946   -309141.87461
 91  5 14 18 25 15.0000000  0  4G18G 2G19G11
  20858706.2664     329661.12248    256878.18063
  23994438.3594    -618775.07445   -482161.39661
  20897432.5634      57336.69547     44677.99362
  24322603.609     -426743.591 6   -332525.48521
 91  5 14 18 25 30.0000000  0  4G18G 2G19G11
  20863331.9774     353965.56748    275816.66963
  23986076.4774    -662709.24845   -516395.78361
  20898277.430       61769.788 7     48132.33222
  24316907.516     -456677.345 6   -355850.33521
 91  5 14 18 25 45.0000000  0  4G18G 2G19G11
  20867976.7424     378372.18848    294834.78063
  23977724.5944    -706605.84446   -550600.92861
  20899127.297       66249.087 7     51622.68022
  24311225.281     -486534.523 5   -379115.51221
 91  5 14 18 26  0.0000000  0  4G18G 2G19G11
  20872640.820      402881.164 8    313932.64223
  23969377.250     -750464.453 5   -584776.48521
  20899991.1884      70774.55847     55149.01162
  24305559.945     -516314.618 6   -402320.61121
 91  5 14 18 26 15.0000000  0  4G18G 2G19G11
  20877324.8054     427497.62548    333114.27063
  23961041.7734    -794279.77745   -618918.28161
  20900859.906       75351.362 7     58715.33722
  24299906.5474    -546012.11046   -425461.37761
 91  5 14 18 26 30.0000000  0  4G18G 2G19G11
  20882029.219      452216.437 8    352375.63923
  23952709.125     -838056.728 5   -653030.21221
  20901742.5164      79974.17747     62317.52262
  24294270.5164    -575631.78846   -448541.48961
 91  5 14 18 26 45.0000000  0  4G18G 2G19G11
  20886752.0554     477038.54748    371717.50363
  23944387.5554    -881793.82945   -687111.07661
  20902630.4844      84644.25547     65956.53662
  24288649.531     -605171.850 6   -471559.56121
 91  5 14 18 27  0.0000000  0  4G18G 2G19G11
  20891494.3524     501962.33448    391138.60963
  23936070.156     -925492.575 5   -721162.06621
  20903527.8594      89359.83347     69631.00562
  24283042.9694    -634633.82646   -494516.80461
 91  5 14 18 27 15.0000000  0  4G18G 2G19G11
  20896255.9614     526986.80548    410638.15963
  23927763.6024    -969154.05545   -755184.01761
  20904435.4144      94119.89647     73340.13962
  24277449.313     -664018.486 6   -517413.79821
 91  5 14 18 27 30.0000000  0  4G18G 2G19G11
  20901038.0704     552113.23248    430217.15963
  23919462.016    -1012776.781 5   -789175.76521
  20905352.0394      98925.56947     77084.82262
  24271873.0784    -693323.93746   -540249.06461
 91  5 14 18 27 45.0000000  0  5G18G 2G16G19G11
  20905838.508      577341.447 8    449875.46423
  23911167.5474   -1056360.74745   -823137.35561
  24439779.7034         -0.81655
  20906268.7894     103776.51047     80864.76562
  24266311.719     -722550.187 6   -563022.62521
 91  5 14 18 28  0.0000000  0  5G18G 2G16G19G11
  20910658.2194     602667.98848    469610.39863
  23902883.0634   -1099908.82046   -857070.94361
  24434223.4064     -29209.05445
  20907202.9384     108669.54647     84677.51362
  24260768.070     -751699.811 6   -585736.48221
 91  5 14 18 28 15.0000000  0  5G18G 2G16G19G11
  20915494.7974     628093.42147    489422.38463
  23894603.344    -1143420.512 5   -890976.22621
  24428689.7194     -58318.88745
  20908141.5394     113605.04347     88523.34962
  24255233.7114    -780772.08646   -608390.07361
 91  5 14 18 28 30.0000000  0  5G18G 2G16G19G11
  20920353.4924     653618.28147    509311.84063
  23886330.4534   -1186894.74146   -924852.27761
  24423167.9304     -87329.47245
  20909089.6954     118583.73147     92402.84162
  24249716.8134    -809765.98046
 91  5 14 18 28 45.0000000  0  5G18G 2G16G19G11
  20925230.6484     679245.04648    529280.70863
  23878062.5004   -1230328.98645   -958697.19861
  24417664.0554    -116237.81845
  20910043.2504     123608.24647     96318.04662
  24244214.422     -838678.490 6   -653511.65821
 91  5 14 18 29  0.0000000  0  5G18G 2G16G19G11
  20930125.813      704971.385 8    549327.16623
  23869805.703    -1273725.277 5   -992512.54221
  24412187.445     -145046.085 5
  20911012.6884     128676.29147    100267.16162
  24238728.289     -867511.605 6
 91  5 14 18 29 15.0000000  0  5G18G 2G16G19G11
  20935042.516      730802.976 8    569455.63423
  23861558.3834   -1317077.76745  -1026293.75761
  24406722.5864    -173748.47245
  20911981.2274     133793.35747    104254.47662
  24233254.844     -896259.404 6
 91  5 14 18 29 30.0000000  0  5G18G 2G16G19G11
  20939976.883      756738.449 8    589665.04623
  23853316.9694   -1360387.68445  -1060041.80061
  24401282.9304    -202346.11545
  20912966.9304     138958.02347    108278.88362
  24227801.828     -924922.822 6
 91  5 14 18 29 45.0010000  0  5G18G 2G16G19G11
  20944933.372      782779.674 8    609956.86723
  23845083.044    -1403657.525 5  -1093758.61921
  24395854.8174    -230840.27845
  20913957.231      144170.790 7    112340.76422
  24222365.153     -953502.996 6
 91  5 14 18 30  0.0010000  0  5G18G 2G16G19G11
  20949907.872      808922.477 8    630327.83723
  23836856.677    -1446882.161 5  -1127440.22121
  24390451.2394    -259228.09045        -0.34771
  20914959.9504     149430.13147    116438.94562
  24216938.3644    -981996.66046   -765187.47561
 91  5 14 18 30 15.0010000  0  5G18G 2G16G19G11
  20954902.872      835171.815 8    650781.82423
  23828641.231    -1490060.790 5  -1161085.98421
  24385072.2714    -287507.56145    -22036.35061
  20915967.872      154739.715 7    120576.26722
  24211536.216    -1010401.986 6   -787321.35221
 91  5 14 18 30 30.0010000  0  5G18G 2G16G19G11
  20959917.2864     861526.36048    671317.78863
  23820432.6694   -1533194.47345  -1194696.73861
  24379716.8884    -315679.62545    -43988.65161
  20916988.8884     160098.03347    124751.56362
  24206146.052    -1038719.875 6   -809387.13821
 91  5 14 18 30 45.0010000  0  5G18G 2G16G19G11
  20964954.763      887989.257 8    691938.17823
  23812232.2864   -1576279.95845  -1228269.91461
  24374372.474     -343740.901 5    -65854.62721
  20918017.6854     165508.38947    128967.39862
  24200774.935    -1066946.764 6   -831381.98921
 91  5 14 18 31  0.0010000  0  5G18G 2G16G19G11
  20970010.372      914559.758 8    712642.43323
  23804042.810    -1619317.578 5  -1261805.79321
  24369058.200     -371691.608 5    -87634.41721
  20919058.0364     170970.16647    133223.32962
  24195422.841    -1095082.736 6   -853305.98821
 91  5 14 18 31 15.0010000  0  5G18G 2G16G19G11
  20975085.724      941234.463 8    733427.86323
  23795861.0834   -1662310.45745  -1295306.82761
  24363757.567     -399534.782 5   -109330.47421
  20920104.896      176479.780 7    137516.51422
  24190080.4274   -1123130.96146   -875161.62161
 91  5 14 18 31 30.0010000  0  5G18G 2G16G19G11
  20980182.4584     968015.43548    754296.11463
  23787690.075    -1705256.590 6  -1328771.44421
  24358474.6924    -427268.74945   -130941.37461
  20921165.552      182039.287 7    141848.58022
  24184764.8724   -1151089.07546   -896947.01861
 91  5 14 18 31 45.0010000  0  5G18G 2G16G19G11
  20985298.763      994905.273 7    775249.19423
  23779528.4354   -1748153.13346  -1362197.41761
  24353219.880     -454890.166 5   -152464.57021
  20922233.380      187651.429 7    146221.66522
  24179461.9194   -1178953.89546   -918659.75361
 91  5 14 18 32  0.0010000  0  5G18G 2G16G19G11
  20990434.989     1021899.096 7    796283.28723
  23771375.0284   -1791004.54246  -1395588.24061
  24347986.1614    -482404.01645   -173903.98061
  20923309.911      193311.216 7    150631.87022
  24174175.6304   -1206729.89546   -940303.25461
 91  5 14 18 32 15.0010000  0  5G18G 2G16G19G11
  20995593.739     1049000.454 7    817401.17523
  23763228.0674   -1833807.05646  -1428940.95261
  24342776.2244    -509806.24145   -195256.37261
  20924396.122      199022.279 7    155082.02822
  24168907.0834   -1234413.05946   -961874.42561
 91  5 14 18 32 30.0010000  0  5G18G 2G16G19G11
  21000770.942     1076207.978 7    838601.79523
  23755091.5214   -1876561.93746  -1462256.55561
  24337580.2714    -537098.06645   -216522.79261
  20925492.552      204783.409 7    159571.20022
  24163658.442    -1262004.332 6   -983373.98421
 91  5 14 18 32 45.0010000  0  5G18G 2G16G19G11
  21005967.036     1103515.300 7    859880.17822
  23746963.833    -1919275.229 6  -1495539.74621
  24332405.294     -564285.283 5   -237707.65121
  20926596.888      210588.125 7    164094.34122
  24158421.9034   -1289509.68546  -1004806.60461
 91  5 14 18 33  0.0010000  0  5G18G 2G16G19G11
  21011184.5364    1130930.81047    881242.86063
  23738846.583    -1961938.246 6  -1528783.76921
  24327256.903     -591359.092 5   -258804.19121
  20927713.950      216444.776 7    168657.93722
  24153204.935    -1316920.322 6  -1026165.42821
 91  5 14 18 33 15.0010000  0  5G18G 2G16G19G11
  21016421.724     1158452.117 7    902687.98323
  23730737.458    -2004553.235 6  -1561990.37821
  24322125.521     -618321.695 5   -279814.03121
  20928834.880      222350.964 7    173260.14422
  24148008.7634   -1344238.23546  -1047451.99561
 91  5 14 18 33 30.0010000  0  5G18G 2G16G19G11
  21021678.200     1186078.331 7    924214.85123
  23722637.9894   -2047120.62846  -1595159.89061
  24317013.302     -645173.788 5   -300737.79221
  20929967.294      228306.051 7    177900.45122
  24142824.1614   -1371463.77746  -1068666.58061
 91  5 14 18 33 45.0010000  0  5G18G 2G16G19G11
  21026955.778     1213811.415 7    945824.99623
  23714545.6614   -2089638.66346  -1628290.96161
  24311922.489     -671913.274 5   -321573.79721
  20931108.435      234311.614 7    182580.09122
  24137664.0054   -1398594.94446  -1089807.63161
 91  5 14 18 34  0.0010000  0  5G18G 2G16G19G11
  21032253.247     1241651.748 7    967518.70623
  23706463.4664   -2132106.74646  -1661383.09261
  24306855.8724    -698539.51545   -342321.56561
  20932267.138      240368.056 7    187299.37922
  24132517.896    -1425630.905 6  -1110874.49821
 91  5 14 18 34 15.0010000  0  5G18G 2G16G19G11
  21037570.989     1269594.910 7    989292.54923
  23698389.9974   -2174528.83546  -1694439.39761
  24301809.9424    -725056.51645   -362984.19661
  20933426.567      246471.147 7    192055.02222
  24127393.106    -1452575.398 6  -1131870.08421
 91  5 14 18 34 30.0010000  0  5G18G 2G16G19G11
  21042909.138     1297642.064 7   1011147.41723
  23690326.927    -2216903.256 6  -1727458.55121
  24296784.0994    -751462.67345   -383560.47261
  20934597.591      252622.145 7    196847.99622
  24122283.450    -1479426.733 6  -1152793.06621
 91  5 14 18 34 45.0010000  0  5G18G 2G16G19G11
  21048266.224     1325795.087 7   1033084.79223
  23682274.653    -2259228.241 6  -1760439.17721
  24291785.0284    -777756.08445   -404048.86861
  20935774.060      258822.946 7    201679.77422
  24117187.817    -1506182.829 6  -1173641.84521
 91  5 14 18 35  0.0010000  0  5G18G 2G16G19G11
  21053642.771     1354055.535 7   1055105.86723
  23674230.2554   -2301501.85446  -1793379.79461
  24286799.083     -803934.712 5   -424447.84021
  20936964.755      265075.196 7    206551.64022
  24112112.942    -1532841.504 6  -1194414.73321
 91  5 14 18 35 15.0010000  0  5G18G 2G16G19G11
  21059042.200     1382422.962 7   1077210.29823
  23666194.458    -2343724.354 6  -1826280.58421
  24281844.4894    -829998.65145   -444757.42161
  20938163.497      271378.316 7    211463.14822
  24107064.9504   -1559402.84746  -1215111.76761
 91  5 14 18 35 30.0010000  0  5G18G 2G16G19G11
  21064461.372     1410897.848 7   1099398.47223
  23658171.8254   -2385895.03546  -1859140.97561
  24276899.7244    -855947.39945   -464977.28361
  20939373.177      277732.689 7    216414.59722
  24102027.685    -1585866.108 6  -1235732.38121
 91  5 14 18 35 45.0010000  0  5G18G 2G16G19G11
  21069899.349     1439481.393 7   1121671.31123
  23650156.231    -2428012.467 6  -1891959.88421
  24271988.1144    -881779.48045   -485106.19561
  20940594.294      284139.709 7    221407.06122
  24097009.341    -1612229.380 6  -1256275.08921
 91  5 14 18 36  0.0010000  0  5G18G 2G16G19G11
  21075358.380     1468169.386 7   1144025.54123
  23642150.817    -2470080.551 6  -1924740.33321
  24267095.474     -907498.720 5   -505147.21021
  20941822.833      290595.060 7    226437.19922
  24092010.1384   -1638496.64246  -1276742.94861
 91  5 14 18 36 15.0010000  0  5G18G 2G16G19G11
  21080839.0054    1496963.70847   1166462.61463
  23634155.0914   -2512097.22246  -1957480.72261
  24262220.106     -933102.638 5   -525098.37821
  20943058.4424     297100.69647    231506.51462
  24087029.442    -1664665.497 6  -1297134.11621
 91  5 14 18 36 30.0010000  0  5G18G 2G16G19G11
  21086338.185     1525865.695 7   1188983.59023
  23626170.1304   -2554060.84446  -1990179.76661
  24257367.0674    -958589.67645   -544958.43861
  20944305.778      303657.927 7    236616.03022
  24082070.185    -1690734.212 6  -1317447.30221
 91  5 14 18 36 45.0010000  0  5G18G 2G16G19G11
  21091857.4584    1554873.34847   1211586.90263
  23618192.8964   -2595973.35146  -2022838.98761
  24252539.6224    -983961.78544   -564728.95161
  20945563.114      310265.069 7    241764.44522
  24077127.6614   -1716704.34846  -1337683.66961
 91  5 14 18 37  0.0010000  0  5G18G 2G16G19G11
  21097399.5054    1583989.40247   1234274.67463
  23610229.0524   -2637831.63846  -2055455.93861
  24247743.7244   -1009215.90445   -584407.51761
  20946835.8884     316924.59147    246953.67162
  24072203.4274   -1742572.93546  -1357840.90961
 91  5 14 18 37 15.0010000  0  5G18G 2G16G19G11
  21102960.505     1613215.192 7   1257047.96723
  23602274.8804   -2679634.00846  -2088029.33961
  24242954.122    -1034350.522 5   -603992.98721
  20948109.552      323638.035 7    252184.91422
  24067300.255    -1768338.087 6  -1377917.51921
 91  5 14 18 37 30.0010000  0  5G18G 2G16G19G11
  21108541.8254    1642545.97647   1279903.06363
  23594330.614    -2721384.919 6  -2120562.62221
  24238191.3724   -1059369.69045   -623488.46961
  20949400.6924     330400.60847    257454.44462
  24062417.591    -1794004.038 6  -1397916.80821
 91  5 14 18 37 45.0010000  0  5G18G 2G16G19G11
  21114144.294     1671983.514 7   1302841.34723
  23586394.653    -2763082.396 6  -2153054.28321
  24233456.208    -1084271.287 5   -642892.36021
  20950692.599      337214.444 7    262763.90922
  24057552.8964   -1819568.38946  -1417836.96361
 91  5 14 18 38  0.0010000  0  5G18G 2G16G19G11
  21119765.4034    1701527.69347   1325862.72863
  23578468.0134   -2804726.46946  -2185504.29761
  24228739.9194   -1109055.52545   -662204.78661
  20951999.6064     344079.10147    268112.98362
  24052707.021    -1845031.055 6  -1437677.89121
 91  5 14 18 38 15.0010000  0  5G18G 2G16G19G11
  21125407.7864    1731178.16647   1348966.92863
  23570554.6304   -2846317.27146  -2217912.82661
  24224050.1614   -1133722.37945   -681425.73761
  20953314.872      350994.301 7    273501.43222
  24047880.161    -1870391.973 6  -1457439.55021
 91  5 14 18 38 30.0010000  0  5G18G 2G16G19G11
  21131071.6694    1760938.26647   1372156.56263
  23562652.3254   -2887851.10146  -2250276.94661
  24219374.325    -1158268.355 5   -700552.53821
  20954642.224      357963.451 7    278931.92422
  24043073.7714   -1895647.40246  -1477118.98261
 91  5 14 18 38 45.0010000  0  5G18G 2G16G19G11
  21136755.700     1790805.426 7   1395429.61523
  23554758.6534   -2929330.57346  -2282598.69961
  24214726.8254   -1182696.01345   -719587.09861
  20955976.669      364983.887 7    284402.37422
  24038288.5604   -1920799.68746  -1496718.03561
 91  5 14 18 39  0.0010000  0  5G18G 2G16G19G11
  21142458.6854    1820779.80547   1418786.21563
  23546875.5754   -2970754.93246  -2314877.51661
  24210101.4664   -1207004.47645   -738528.81661
  20957329.817      372056.057 7    289913.14422
  24033523.2394   -1945847.87946  -1516235.97461
 91  5 14 18 39 15.0010000  0  5G18G 2G16G19G11
  21148183.6144    1850862.52247   1442227.23163
  23539003.583    -3012122.802 6  -2347112.30221
  24205500.099    -1231192.276 5   -757376.49021
  20958679.403      379181.031 7    295465.06022
  24028774.7554   -1970790.54446  -1535671.69861
 91  5 14 18 39 30.0010000  0  5G18G 2G16G19G11
  21153928.802     1881052.611 7   1465751.91823
  23531143.997    -3053435.003 6  -2379303.70921
  24200918.0994   -1255260.01845   -776130.63061
  20960044.833      386357.808 7    301057.34222
  24024048.216    -1995628.275 6  -1555025.64021
 91  5 14 18 39 45.0010000  0  5G18G 2G16G19G11
  21159693.0834    1911348.52947   1489359.07363
  23523292.2244   -3094692.95846  -2411452.85061
  24196362.856    -1279209.167 5   -794792.33621
  20961420.903      393584.978 7    306688.88822
  24019344.0674   -2020362.26746  -1574298.73661
 91  5 14 18 40  0.0010000  0  5G18G 2G16G19G11
  21165479.317     1941754.656 7   1513052.09923
  23515452.005    -3135892.009 6  -2443556.09021
  24191827.1924   -1303035.20345   -813358.08861
  20962807.216      400866.742 7    312362.97022
  24014656.669    -2044987.649 6  -1593487.19621
 91  5 14 18 40 15.0010000  0  5G18G 2G16G19G11
  21171287.4504    1972266.86247   1536827.78663
  23507624.981    -3177036.011 6  -2475616.42921
  24187316.997    -1326741.567 5   -831830.62421
  20964198.9894     408199.14447    318076.52262
  24009989.7634   -2069508.02146  -1612593.85861
 91  5 14 18 40 30.0010000  0  5G18G 2G16G19G11
  21177114.200     2002889.943 7   1560689.87023
  23499804.614    -3218119.763 6  -2507629.82621
  24182827.114    -1350323.436 5   -850206.12821
  20965607.5674     415587.09547    323833.35862
  24005344.7784   -2093918.31746  -1631614.74461
 91  5 14 18 40 45.0010000  0  5G18G 2G16G19G11
  21182961.1614    2033618.69447   1584634.29763
  23491996.6614   -3259148.15346  -2539600.05661
  24178363.9814   -1373785.53145   -868488.29761
  20967022.013      423025.366 7    329629.40222
  24000718.3884   -2118223.31846  -1650553.55761
 91  5 14 18 41  0.0010000  0  5G18G 2G16G19G11
  21188829.2084    2064455.05347   1608662.56263
  23484201.2554   -3300119.11946  -2571525.55261
  24173919.0994   -1397125.96745   -886675.68561
  20968450.2784     430515.99847    335466.24762
  23996113.7554   -2142420.67846  -1669408.48661
 91  5 14 18 41 15.0010000  0  5G18G 2G16G19G11
  21194718.114     2095398.032 7   1632773.92423
  23476414.864    -3341033.520 6  -2603406.97821
  24169502.4274   -1420345.29745   -904768.69161
  20969882.7554     438058.14747    341343.23762
  23991531.4504   -2166510.86546  -1688179.90761
 91  5 14 18 41 30.0010000  0  5G18G 2G16G19G11
  21200625.497     2126445.540 7   1656966.73523
  23468639.8964   -3381893.03846  -2635245.63361
  24165107.614    -1443445.291 5   -922768.74221
  20971330.8724     445649.58447    347258.63362
  23986968.1854   -2190495.43846  -1706869.05061
 91  5 14 18 41 45.0010000  0  5G18G 2G16G19G11
  21206553.4584    2157599.06647   1681242.15363
  23460877.8104   -3422696.03946  -2667040.24261
  24160733.0914   -1466424.28345   -940674.43661
  20972780.3104     453291.97747    353213.73862
  23982420.958    -2214372.578 6  -1725474.48721
 91  5 14 18 42  0.0010000  0  5G18G 2G16G19G11
  21212502.442     2188858.595 7   1705600.17323
  23453123.6854   -3463442.16046  -2698790.52661
  24156383.6694   -1489281.88045   -958485.57061
  20974246.1144     460985.31847    359208.54162
  23977902.161    -2238141.840 6  -1743995.83821
 91  5 14 18 42 15.0010000  0  5G18G 2G16G19G11
  21218471.692     2220223.163 7   1730040.04023
  23445378.0284   -3504132.26246  -2730497.15661
  24152054.5444   -1512018.76745   -976202.69661
  20975719.9814     468728.72647    365242.35862
  23973399.9504   -2261803.82146  -1762433.59861
 91  5 14 18 42 30.0010000  0  5G18G 2G16G19G11
  21224460.8884    2251697.97947   1754565.81463
  23437649.5214   -3544760.64446  -2762155.68361
  24147755.7084   -1534629.23045   -993821.22261
  20977204.6854     476527.63247    371319.42162
  23968916.708    -2285352.577 6  -1780783.13421
 91  5 14 18 42 45.0010000  0  6G18G 2G16G19G11G 6
  21230470.966     2283277.227 7   1779172.97023
  23429928.122    -3585333.057 6  -2793770.60721
  24143473.4504   -1557118.85545  -1011345.66061
  20978695.5674     484376.22847    377435.20062
  23964454.3964   -2308793.48846  -1799048.63761
  24688779.427          -0.17514
 91  5 14 18 43  0.0010000  0  6G18G 2G16G19G11G 6
  21236499.458     2314964.286 7   1803864.13723
  23422216.849    -3625846.399 6  -2825339.50321
  24139222.4424   -1579484.46945  -1028773.40261
  20980203.7554     492277.28747    383591.86562
  23960018.958    -2332123.365 6  -1817227.61321
  24682960.028      -30609.018 4
 91  5 14 18 43 15.0010000  0  6G18G 2G16G19G11G 6
  21242550.075     2346758.974 7   1828639.16123
  23414519.1304   -3666299.94746  -2856861.79961
  24134993.028    -1601725.663 5  -1046104.22621
  20981715.997      500231.262 7    389789.74922
  23955594.6304   -2355341.81246  -1835319.79261
  24677144.7864     -61189.89845        -0.05871
 91  5 14 18 43 30.0010000  0  6G18G 2G16G19G11G 6
  21248621.3804    2378660.98247   1853497.81663
  23406831.153    -3706693.694 6  -2888337.49221
  24130777.935    -1623842.440 5  -1063338.10721
  20983237.9424     508237.92847    396028.70062
  23951200.0834   -2378448.54446  -1853324.90161
  24671330.810      -91743.051 5    -23807.67121
 91  5 14 18 43 45.0010000  0  6G18G 2G16G19G11G 6
  21254711.1064    2410667.20047   1878437.66363
  23399155.341    -3747030.713 6  -2919768.98421
  24126592.450    -1645837.552 5  -1080477.16021
  20984769.833      516294.162 7    402306.27122
  23946823.1384   -2401446.26346  -1871245.04961
  24665519.9974    -122271.49744    -47595.97461
 91  5 14 18 44  0.0010000  0  6G18G 2G16G19G11G 6
  21260822.825     2442780.819 7   1903461.21123
  23391491.646    -3787307.299 6  -2951153.38521
  24122430.9744   -1667707.62145  -1097518.79661
  20986316.8414     524403.32547    408625.09462
  23942468.075    -2424331.185 6  -1889077.30021
  24659712.0524    -152772.06544    -71362.56361
 91  5 14 18 44 15.0010000  0  6G18G 2G16G19G11G 6
  21266953.9274    2475000.04247   1928567.04263
  23383839.231    -3827525.187 6  -2982492.04121
  24118291.841    -1689454.249 5  -1114464.24621
  20987867.778      532563.575 7    414983.71922
  23938135.591    -2447104.787 6  -1906822.81821
  24653918.9354    -183246.56544    -95108.82161
 91  5 14 18 44 30.0010000  0  6G18G 2G16G19G11G 6
  21273104.685     2507324.566 7   1953754.92823
  23376195.544    -3867684.561 6  -3013785.10121
  24114178.1064   -1711077.42645  -1131313.51561
  20989432.3104     540774.64247    421381.94562
  23933821.3964   -2469767.03446  -1924481.56861
  24648123.9814    -213695.17844   -118834.92461
 91  5 14 18 44 45.0010000  0  6G18G 2G16G19G11G 6
  21279277.1464    2539756.39347   1979026.41163
  23368567.2944   -3907782.91746  -3045030.62461
  24110087.1224   -1732574.58345  -1148064.57561
  20991001.880      549038.763 7    427821.49422
  23929529.271    -2492315.362 6  -1942051.56821
  24642335.200     -244115.738 4   -142539.18121
 91  5 14 18 45  0.0010000  0  6G18G 2G16G19G11G 6
  21285468.231     2572292.668 7   2004379.30123
  23360946.9274   -3947822.91246  -3076230.66461
  24106018.653    -1753948.558 5  -1164719.63021
  20992583.4744     557353.13747    434300.22862
  23925264.5054   -2514752.19946  -1959534.68361
  24636547.919     -274511.093 3   -166223.78921
 91  5 14 18 45 15.0010000  0  6G18G 2G16G19G11G 6
  21291680.224     2604935.061 7   2029814.88123
  23353339.1304   -3987802.55046  -3107383.66061
  24101978.575    -1775197.367 5  -1181277.17921
  20994174.9034     565719.29947    440819.30362
  23921013.880    -2537075.607 6  -1976929.41521
  24630768.606     -304879.719 4   -189887.53921
 91  5 14 18 45 30.0010000  0  6G18G 2G16G19G11G 6
  21297911.7554    2637682.21047   2055332.07563
  23345742.2784   -4027723.11246  -3138490.62461
  24097953.8724   -1796322.19645  -1197738.10661
  20995779.2244     574135.89347    447377.67962
  23916787.646    -2559286.496 6  -1994236.46421
  24624992.6774    -335222.85743   -213531.46961
 91  5 14 18 45 45.0010000  0  6G18G 2G16G19G11G 6
  21304163.3494    2670533.32747   2080930.28863
  23338155.5284   -4067584.94546  -3169551.82261
  24093966.7784   -1817323.27145  -1214102.57761
  20997389.4814     582602.52847    453975.04662
  23912582.724    -2581385.166 6  -2011456.07421
  24619228.747     -365541.118 4   -237155.98221
 91  5 14 18 46  0.0010000  0  6G18G 2G16G19G11G 6
  21310435.067     2703491.018 7   2106611.55423
  23330582.122    -4107385.547 6  -3200565.29721
  24089986.7714   -1838197.77945  -1230368.47561
  20999009.3174     591121.62047    460613.29962
  23908396.677    -2603368.765 6  -2028586.01521
  24613463.3104    -395832.00444   -260759.17561
 91  5 14 18 46 15.0010000  0  6G18G 2G16G19G11G 6
  21316726.810     2736552.240 7   2132373.48822
  23323020.075    -4147127.266 6  -3231532.90221
  24086043.427    -1858948.304 5  -1246537.69721
  21000641.4034     599690.54947    467290.38562
  23904236.1534   -2625239.50146  -2045628.02261
  24607701.0284    -426098.27044   -284343.18861
 91  5 14 18 46 30.0010000  0  6G18G 2G16G19G11G 6
  21323036.966     2769716.133 7   2158215.42923
  23315468.130    -4186810.926 6  -3262455.25621
  24082117.083    -1879575.659 5  -1262610.97721
  21002283.2244     608308.17946    474005.42462
  23900096.8494   -2646998.11546  -2062582.66661
  24601943.9114    -456340.98644   -307908.82961
 91  5 14 18 46 45.0010000  0  6G18G 2G16G19G11G 6
  21329367.4584    2802984.93247   2184139.10963
  23307926.8104   -4226433.88446  -3293330.31361
  24078212.4274   -1900077.10645  -1278586.17261
  21003929.4744     616977.17247    480760.48162
  23895973.981    -2668641.609 6  -2079447.57421
  24596197.0914    -486557.66045   -331454.19661
 91  5 14 18 47  0.0010000  0  6G18G 2G16G19G11G 6
  21335719.255     2836358.733 7   2210144.61523
  23300400.942    -4265996.113 6  -3324158.04121
  24074336.021    -1920452.916 5  -1294463.42721
  21005593.5444     625697.37147    487555.44062
  23891880.575    -2690169.803 6  -2096222.65921
  24590452.5754    -516748.08045   -354979.12461
 91  5 14 18 47 15.0010000  0  6G18G 2G16G19G11G 6
  21342090.716     2869841.235 7   2236234.82423
  23292885.716    -4305493.467 6  -3354935.21921
  24070482.8964   -1940698.71645  -1310239.41361
  21007260.7164     634472.54247    494393.24262
  23887805.2554   -2711578.50746  -2112904.65361
  24584713.5994    -546908.73645   -378480.83061
 91  5 14 18 47 30.0010000  0  6G18G 2G16G19G11G 6
  21348482.7244    2903429.79247   2262407.66563
  23285381.872    -4344928.220 6  -3385663.61921
  24066657.325    -1960816.696 5  -1325915.76321
  21008942.2944     643300.10147    501271.86462
  23883753.7394   -2732869.97446  -2129495.29361
  24578973.4354    -577042.12744   -401961.30461
 91  5 14 18 47 45.0010000  0  6G18G 2G16G19G11G 6
  21354894.005     2937122.876 7   2288661.96823
  23277888.403    -4384301.799 6  -3416344.34421
  24062848.1614   -1980808.52045  -1341493.84461
  21010631.1464     652178.61247    508190.19562
  23879724.9744   -2754045.46146  -2145995.56061
  24573245.8414    -607149.92444   -425421.83861
 91  5 14 18 48  0.0010000  0  6G18G 2G16G19G11G 6
  21361324.403     2970919.750 7   2314997.13623
  23270408.9274   -4423614.59346  -3446977.69961
  24059072.7314   -2000674.25545  -1356973.64461
  21012327.5674     661107.64647    515147.88762
  23875714.8104   -2775105.03546  -2162405.50361
  24567523.646     -637232.475 4   -448862.68021
 91  5 14 18 48 15.0010000  0  6G18G 2G16G19G11G 6
  21367776.903     3004820.385 7   2341413.16123
  23262939.6854   -4462866.16546  -3477563.34361
  24055317.169    -2020413.654 5  -1372355.02621
  21014036.8414     670087.29747    522145.02262
  23871730.2474   -2796048.19846  -2178724.71661
  24561804.630     -667289.768 4   -472283.87421
 91  5 14 18 48 30.0010000  0  6G18G 2G16G19G11G 6
  21374247.6384    3038828.62247   2367913.02563
  23255482.5674   -4502052.46646  -3508098.13061
  24051584.544    -2040022.649 5  -1387634.77021
  21015759.0604     679121.31447    529184.52662
  23867768.0674   -2816870.75746  -2194949.97661
  24556088.114     -697317.873 5   -495682.30721
 91  5 14 18 48 45.0010000  0  6G18G 2G16G19G11G 6
  21380740.3174    3072943.35047   2394495.86963
  23248037.4584   -4541174.92946  -3538583.16561
  24047877.9744   -2059502.37045  -1402813.79161
  21017485.5914     688208.27247    536265.28262
  23863828.333    -2837573.880 6  -2211082.16821
  24550377.552     -727318.363 4   -519059.25221
 91  5 14 18 49  0.0010000  0  6G18G 2G16G19G11G 6
  21387251.435     3107161.373 7   2421159.21523
  23240605.0054   -4580235.74446  -3569020.16161
  24044193.6694   -2078855.27445  -1417893.97561
  21019226.185      697345.753 7    543385.40922
  23859910.638    -2858159.697 6  -2227122.96321
  24544680.466     -757293.743 5   -542416.59921
 91  5 14 18 49 15.0010000  0  6G18G 2G16G19G11G 6
  21393782.8644    3141482.86847   2447903.18063
  23233184.6384   -4619234.60846  -3599408.87761
  24040531.5604   -2098080.71445  -1432874.85561
  21020971.5914     706534.06447    550545.14062
  23856016.4894   -2878627.71446  -2243071.96161
  24538979.2394    -787243.87044   -565754.31761
 91  5 14 18 49 30.0010000  0  6G18G 2G16G19G11G 6
  21400332.567     3175904.983 7   2474725.55123
  23225774.731    -4658174.153 6  -3629751.36321
  24036898.435    -2117181.759 5  -1447758.77421
  21022735.2784     715770.27846    557742.19962
  23852142.1064   -2898980.55246  -2258931.18561
  24533282.911     -817171.562 5   -589074.51421
 91  5 14 18 49 45.0010000  0  6G18G 2G16G19G11G 6
  21406902.981     3210429.760 7   2501627.92323
  23218376.278    -4697052.476 6  -3660046.14821
  24033290.489    -2136156.191 5  -1462544.05321
  21024497.122      725055.977 7    564977.81822
  23848291.8494   -2919215.99346  -2274698.98261
  24527587.638     -847075.046 4   -612375.84621
 91  5 14 18 50  0.0010000  0  6G18G 2G16G19G11G 6
  21413491.458     3245053.148 7   2528607.14423
  23210988.9814   -4735873.10246  -3690295.97561
  24029707.4664   -2155007.50345  -1477233.39161
  21026274.5524     734387.70746    572249.30362
  23844463.310    -2939337.215 6  -2290377.75121
  24521902.724     -876957.990 4   -635661.15821
 91  5 14 18 50 15.0010000  0  6G18G 2G16G19G11G 6
  21420098.849     3279774.467 7   2555662.65423
  23203612.255    -4774636.332 6  -3720501.06721
  24026140.349    -2173736.206 5  -1491827.17721
  21028057.6534     743764.96847    579556.26562
  23840657.8564   -2959344.40946  -2305967.68261
  24516222.388     -906820.988 4   -658930.93821
 91  5 14 18 50 30.0010000  0  6G18G 2G16G19G11G 6
  21426725.817     3314594.756 7   2582795.29223
  23196245.841    -4813341.130 6  -3750660.62921
  24022592.8334   -2192341.17345  -1506324.55461
  21029851.1224     753188.47647    586899.26262
  23836869.286    -2979236.588 6  -2321467.99621
  24510543.099     -936663.241 4   -682184.57121
 91  5 14 18 50 45.0010000  0  6G18G 2G16G19G11G 6
  21433369.013     3349510.244 7   2610002.11722
  23188891.8414   -4851990.79146  -3780777.22261
  24019080.0604   -2210825.86345  -1520728.20561
  21031651.3724     762654.59547    594275.46362
  23833103.9664   -2999017.00345  -2336881.21161
  24504867.489     -966488.276 5   -705424.76221
 91  5 14 18 51  0.0010000  0  6G18G 2G16G19G11G 6
  21440031.0754    3384520.85447   2637283.04763
  23181545.8024   -4890585.11546  -3810850.70161
  24015590.575    -2229189.688 5  -1535037.68121
  21033462.9274     772163.56947    601685.04862
  23829364.036    -3018684.946 6  -2352206.85221
  24499193.8174    -996295.97144   -728651.50461
 91  5 14 18 51 15.0010000  0  6G18G 2G16G19G11G 6
  21446712.325     3419628.096 7   2664639.29022
  23174212.7634   -4929122.39246  -3840879.71861
  24012114.9034   -2247430.93345  -1549251.64261
  21035278.7394     781716.88547    609129.18962
  23825641.872    -3038238.763 6  -2367443.49021
  24493528.9894   -1026084.85644   -751863.53161
 91  5 14 18 51 30.0010000  0  6G18G 2G16G19G11G 6
  21453412.458     3454832.946 7   2692071.58923
  23166887.5364   -4967601.61346  -3870863.50261
  24008671.1924   -2265548.61045  -1563369.31461
  21037111.2634     791315.55146    616608.66962
  23821944.005    -3057677.147 6  -2382590.16621
  24487861.356    -1055853.960 4   -775060.15221
 91  5 14 18 51 45.0010000  0  6G18G 2G16G19G11G 6
  21460128.505     3490132.982 7   2719578.05623
  23159575.5674   -5006024.60246  -3900803.45561
  24005244.208    -2283544.891 5  -1577392.39721
  21038940.7084     800957.46247    624121.84462
  23818270.1304   -3077001.91146  -2397648.32661
  24482201.138    -1085605.632 4   -798243.19021
 91  5 14 18 52  0.0010000  0  6G18G 2G16G19G11G 6
  21466864.864     3525530.443 7   2747160.43623
  23152277.3024   -5044388.62946  -3930697.45761
  24001840.5604   -2301416.96645  -1591318.66961
  21040783.8254     810645.15146    631670.68262
  23814612.1384   -3096210.17746  -2412615.74261
  24476542.6774   -1115337.20844   -821410.58161
 91  5 14 18 52 15.0010000  0  6G18G 2G16G19G11G 6
  21473619.216     3561023.166 7   2774817.04923
  23144985.997    -5082696.090 6  -3960547.39421
  23998463.6924   -2319167.16045  -1605149.96761
  21042636.9274     820376.28047    639253.37562
  23810978.4974   -3115304.18146  -2427494.13161
  24470886.0284   -1145051.24844   -844564.31361
 91  5 14 18 52 30.0010000  0  6G18G 2G16G19G11G 6
  21480391.083     3596610.349 7   2802547.26722
  23137704.7474   -5120947.26746  -3990353.47461
  23995107.6224   -2336795.96645  -1618886.71861
  21044499.0364     830150.23246    646869.43862
  23807367.989    -3134284.047 6  -2442283.51821
  24465237.810    -1174748.244 5   -867704.72121
 91  5 14 18 52 45.0010000  0  6G18G 2G16G19G11G 6
  21487181.044     3632294.167 7   2830352.79723
  23130437.575    -5159139.608 6  -4020113.69821
  23991778.7474   -2354300.34245  -1632526.48961
  21046363.3964     839969.37947    654520.72062
  23803777.2004   -3153147.11946  -2456981.92561
  24459589.763    -1204425.790 4   -890830.02321
 91  5 14 18 53  0.0010000  0  6G18G 2G16G19G11G 6
  21493989.997     3668071.454 7   2858231.15023
  23123181.122    -5197276.078 6  -4049830.38021
  23988475.2634   -2371683.09746  -1646071.49161
  21048243.3564     849830.51046    662204.71462
  23800208.9814   -3171896.05846  -2471591.41261
  24453945.7474   -1234087.12045   -913942.64361
 91  5 14 18 53 15.0010000  0  6G18G 2G16G19G11G 6
  21500815.8804    3703942.82147   2886182.80362
  23115936.474    -5235355.815 6  -4079502.85121
  23985189.567    -2388943.645 6  -1659521.25021
  21050123.5364     859734.36947    669922.00662
  23796659.497    -3190529.821 6  -2486111.14921
  24448299.763    -1263731.447 4   -937042.04221
 91  5 14 18 53 30.0010000  0  6G18G 2G16G19G11G 6
  21507660.169     3739913.733 7   2914212.03122
  23108699.169    -5273373.174 6  -4109126.71521
  23981928.341    -2406076.359 5  -1672871.41721
  21052019.5214     869686.56647    677676.96362
  23793139.3334   -3209042.71846  -2500536.69461
  24442667.083    -1293353.327 5   -960123.92521
 91  5 14 18 53 45.0010000  0  6G18G 2G16G19G11G 6
  21514524.349     3775979.483 7   2942315.16423
  23101477.263    -5311332.726 6  -4138705.54521
  23978694.4814   -2423086.07146  -1686125.73961
  21053921.0284     879682.21247    685465.77362
  23789637.200    -3227439.152 6  -2514871.49921
  24437034.810    -1322957.652 5   -983192.15221
 91  5 14 18 54  0.0010000  0  6G18G 2G16G19G11G 6
  21521405.8254    3812141.83247   2970493.56462
  23094267.0214   -5349232.36246  -4168237.67161
  23975478.4424   -2439970.38045  -1699282.37061
  21055836.6534     889723.30846    693290.00162
  23786157.911    -3245716.924 6  -2529113.82621
  24431404.825    -1352542.473 5  -1006245.17721
 91  5 14 18 54 15.0010000  0  6G18G 2G16G19G11G 6
  21528305.653     3848403.350 7   2998749.23822
  23087068.458    -5387069.156 6  -4197720.81621
  23972286.4504   -2456726.61945  -1712339.13561
  21057752.3644     899812.59347    701151.78162
  23782705.872    -3263873.080 6  -2543261.39521
  24425779.4974   -1382105.14545  -1029280.90561
 91  5 14 18 54 30.0010000  0  6G18G 2G16G19G11G 6
  21535225.888     3884764.467 7   3027082.52623
  23079881.4504   -5424842.36546  -4227154.42361
  23969126.958    -2473354.106 5  -1725295.64221
  21059682.9424     909950.73746    709051.63762
  23779277.0674   -3281906.65146  -2557313.44461
  24420156.4504   -1411644.99345  -1052298.88761
 91  5 14 18 54 45.0010000  0  6G18G 2G16G19G11G 6
  21542163.005     3921220.773 7   3055489.99222
  23072705.1614   -5462555.97346  -4256541.58261
  23965982.7944   -2489856.72345  -1738154.83561
  21061619.7944     920133.41847    716986.19462
  23775865.3494   -3299821.44046  -2571272.93261
  24414540.083    -1441166.248 5  -1075302.37921
 91  5 14 18 55  0.0010000  0  6G18G 2G16G19G11G 6
  21549117.880     3957770.860 7   3083970.52922
  23065538.263    -5500211.303 6  -4285883.32021
  23962867.083    -2506235.664 5  -1750917.62321
  21063567.7554     930359.07446    724954.23362
  23772478.3564   -3317618.73646  -2585140.85561
  24408929.294    -1470670.502 5  -1098292.59421
 91  5 14 18 55 15.0010000  0  6G18G 2G16G19G11G 6
  21556090.856     3994415.781 7   3112524.96223
  23058384.380    -5537807.088 6  -4315178.65821
  23959775.1534   -2522489.54845  -1763582.99561
  21065520.0674     940628.89947    732956.69462
  23769113.4974   -3335296.97446  -2598915.99961
  24403313.763    -1500156.497 5  -1121268.61921
 91  5 14 18 55 30.0010000  0  6G18G 2G16G19G11G 6
  21563083.489     4031160.044 7   3141156.80523
  23051242.7784   -5575338.39846  -4344423.74761
  23956703.4744   -2538613.48045  -1776147.09361
  21067485.2244     950947.67846    740997.30462
  23765773.5054   -3352851.26446  -2612594.60261
  24397706.138    -1529619.750 5  -1144226.88921
 91  5 14 18 55 45.0010000  0  6G18G 2G16G19G11G 6
  21570093.388     4068002.041 7   3169864.80722
  23044112.224    -5612806.519 6  -4373619.60321
  23953661.7004   -2554608.81745  -1788610.97761
  21069455.1614     961314.23147    749075.13862
  23762454.7394   -3370282.55246  -2626177.33161
  24392101.5834   -1559061.51345  -1167168.42461
 91  5 14 18 56  0.0010000  0  6G18G 2G16G19G11G 6
  21577122.997     4104939.280 7   3198647.02422
  23036993.646    -5650213.729 6  -4402767.99421
  23950641.9744   -2570477.77445  -1800976.40261
  21071440.3174     971726.05746    757188.24862
  23759158.8024   -3387592.91846  -2639665.83261
  24386505.786    -1588484.222 5  -1190095.12521
 91  5 14 18 56 15.0010000  0  6G18G 2G16G19G11G 6
  21584170.263     4141971.222 7   3227503.03322
  23029887.583    -5687560.495 6  -4431869.28921
  23947646.4194   -2586221.12245  -1813243.94361
  21073427.6464     982182.34447    765336.00762
  23755891.622    -3404782.778 6  -2653060.42321
  24380909.935    -1617888.577 5  -1213007.52821
 91  5 14 18 56 30.0010000  0  6G18G 2G16G19G11G 6
  21591235.341     4179099.055 7   3256433.77022
  23022790.841    -5724845.266 6  -4460922.27421
  23944672.2864   -2601837.01945  -1825412.17761
  21075426.0674     992684.49646    773519.50062
  23752642.8334   -3421850.58146  -2666359.90361
  24375315.7554   -1647273.31345  -1235904.62361
 91  5 14 18 56 45.0010000  0  6G18G 2G16G19G11G 6
  21598319.778     4216323.132 7   3285439.49622
  23015708.810    -5762067.339 6  -4489926.38421
  23941728.0284   -2617324.95645  -1837480.69761
  21077432.6064    1003233.11247    781739.20162
  23749418.9814   -3438795.31646  -2679563.50761
  24369729.9194   -1676637.76445  -1258785.90561
 91  5 14 18 57  0.0010000  0  6G18G 2G16G19G11G 6
  21605420.966     4253643.600 7   3314520.32323
  23008636.3494   -5799226.17646  -4518881.22861
  23938801.5364   -2632684.37245  -1849449.08461
  21079450.9424    1013828.82446    789995.59662
  23746216.388    -3455616.286 6  -2692670.65421
  24364145.1614   -1705981.60245  -1281651.14861
 91  5 14 18 57 15.0010000  0  6G18G 2G16G19G11G 6
  21612542.247     4291063.112 7   3343678.32922
  23001576.5754   -5836318.92946  -4547784.57761
  23935906.5284   -2647912.33145  -1861314.99361
  21081474.2784    1024474.20747    798290.70562
  23743041.497    -3472310.625 6  -2705679.12221
  24358569.716    -1735302.172 5  -1304498.27321
 91  5 14 18 57 30.0010000  0  6G18G 2G16G19G11G 6
  21619681.521     4328579.145 8   3372911.55522
  22994529.8964   -5873348.09346  -4576638.37461
  23933030.0364   -2663011.42045  -1873080.53061
  21083511.5214    1035166.42447    806622.30162
  23739886.4034   -3488880.61846  -2718590.70461
  24352991.4664   -1764602.32145  -1327329.48861
 91  5 14 18 57 45.0010000  0  6G18G 2G16G19G11G 6
  21626838.364     4366192.356 7   3402220.50622
  22987495.224    -5910312.799 6  -4605441.93421
  23930184.7474   -2677980.40545  -1884744.66761
  21085552.1224    1045906.37747    814991.10162
  23736760.528    -3505325.109 6  -2731404.48121
  24347418.380    -1793881.085 5  -1350144.02221
 91  5 14 18 58  0.0010000  0  6G18G 2G16G19G11G 6
  21634014.005     4403901.718 7   3431604.37622
  22980473.731    -5947213.608 6  -4634195.69721
  23927360.7084   -2692820.31545  -1896308.23361
  21087608.7554    1056693.39647    823396.57862
  23733651.528    -3521644.687 6  -2744120.93121
  24341848.458    -1823139.375 5  -1372942.61821
 91  5 14 18 58 15.0010000  0  6G18G 2G16G19G11G 6
  21641208.466     4441709.391 7   3461064.85222
  22973463.880    -5984047.892 6  -4662897.63021
  23924561.505    -2707528.665 5  -1907769.27321
  21089667.5994    1067529.76047    831840.50062
  23730571.2864   -3537836.73146  -2756737.99161
  24336285.5524   -1852374.86644  -1395723.45261
 91  5 14 18 58 30.0010000  0  6G18G 2G16G19G11G 6
  21648422.192     4479614.359 7   3490601.13623
  22966468.981    -6020816.440 6  -4691548.34221
  23921783.9894   -2722106.08045  -1919128.29861
  21091739.7004    1078414.64147    840322.22962
  23727516.263    -3553901.759 6  -2769256.08321
  24330726.708    -1881588.395 5  -1418487.17121
 91  5 14 18 58 45.0010000  0  6G18G 2G16G19G11G 6
  21655653.442     4517614.859 7   3520211.86523
  22959482.786    -6057520.756 6  -4720149.00521
  23919037.5054   -2736554.19245  -1930386.55561
  21093821.4504    1089346.25847    848840.37062
  23724479.6774   -3569841.24746  -2781676.33161
  24325173.185    -1910781.747 5  -1441235.16421
 91  5 14 18 59  0.0010000  0  6G18G 2G16G19G11G 6
  21662903.7784    4555713.44147   3549899.03163
  22952510.927    -6094158.232 6  -4748697.58021
  23916310.5444   -2750870.22745  -1941541.89761
  21095914.8644    1100327.03446    857396.81662
  23721472.2084   -3585652.46246  -2793996.64461
  24319620.3494   -1939952.42645  -1463965.50461
 91  5 14 18 59 15.0010000  0  6G18G 2G16G19G11G 6
  21670171.341     4593906.014 7   3579659.43223
  22945552.5524   -6130732.35346  -4777196.77861
  23913612.9424   -2765057.68645  -1952597.06261
  21098006.1534    1111353.46047    865988.83562
  23718487.208    -3601338.648 6  -2806219.53521
  24314078.9274   -1969104.15945  -1486681.07561
 91  5 14 18 59 30.0010000  0  6G18G 2G16G19G11G 6
  21677456.661     4632193.715 7   3609493.95423
  22938604.911    -6167241.891 6  -4805645.65921
  23910935.646    -2779115.193 5  -1963550.94821
  21100119.1924    1122426.63346    874617.27762
  23715524.9424   -3616898.45346  -2818343.94361
  24308530.5524   -1998235.82145  -1509381.01961
 91  5 14 18 59 45.0010000  0  6G18G 2G16G19G11G 6
  21684762.849     4670581.553 7   3639406.50923
  22931670.255    -6203681.709 6  -4834040.20821
  23908283.8414   -2793037.79645  -1974399.73461
  21102230.9274    1133551.54947    883286.03662
  23712589.341    -3632326.421 6  -2830365.59721
  24302990.6534   -2027342.47645  -1532061.43361
 91  5 14 19  0  0.0010000  0  6G18G 2G16G19G11G 6
  21692085.646     4709065.086 7   3669393.62023
  22924749.567    -6240055.850 6  -4862383.58221
  23905661.4974   -2806829.49045  -1985146.50961
  21104356.3564    1144724.01847    891991.85462
  23709677.5364   -3647626.60546  -2842287.70861
  24297453.083    -2056428.327 4  -1554725.69421
 91  5 14 19  0 15.0010000  0  6G18G 2G16G19G11G 6
  21699427.653     4747645.283 7   3699456.06022
  22917840.0364   -6276362.92746  -4890674.68961
  23903066.1614   -2820489.00145  -1995790.27561
  21106492.5054    1155945.29947    900735.70262
  23706790.192    -3662797.593 6  -2854109.14021
  24291924.3024   -2085492.16545  -1577372.78461
 91  5 14 19  0 30.0010000  0  6G18G 2G16G19G11G 6
  21706787.208     4786320.208 7   3729592.32123
  22910943.1224   -6312604.85546  -4918915.02861
  23900488.6854   -2834018.32345  -2006332.62661
  21108637.3804    1167213.44147    909516.06662
  23703928.0364   -3677841.19646  -2865831.33161
  24286400.575    -2114536.132 5  -1600004.36721
 91  5 14 19  0 45.0010000  0  6G18G 2G16G19G11G 6
  21714164.864     4825090.535 7   3759802.92123
  22904058.9744   -6348780.30246  -4947103.56861
  23897941.8334   -2847416.26145  -2016772.57761
  21110790.3104    1178529.63847    918333.87462
  23701089.4664   -3692755.92546  -2877453.07261
  24280876.552    -2143559.007 5  -1622619.54721
 91  5 14 19  1  0.0010000  0  6G18G 2G16G19G11G 6
  21721559.536     4863953.015 7   3790085.31923
  22897188.981    -6384892.254 6  -4975242.64221
  23895411.9354   -2860685.82045  -2027112.49461
  21112954.1614    1189890.55947    927186.53262
  23698277.1924   -3707544.64146  -2888976.62261
  24275356.013    -2172564.013 5  -1645220.78521
 91  5 14 19  1 15.0010000  0  6G18G 2G16G19G11G 6
  21728972.5674    4902913.30347   3820443.93362
  22890327.7784   -6420934.91946  -5003327.71961
  23892912.6694   -2873821.01345  -2037347.69861
  21115124.2864    1201301.77547    936078.38262
  23695488.497    -3722201.362 6  -2900397.32521
  24269843.0134   -2201545.46545  -1667803.65061
 91  5 14 19  1 30.0010000  0  6G18G 2G16G19G11G 6
  21736405.036     4941970.175 7   3850877.82522
  22883482.427    -6456909.623 6  -5031359.83721
  23890442.8564   -2886823.10945  -2047479.19061
  21117304.7394    1212762.16847    945008.55562
  23692721.8564   -3736727.19746  -2911716.06461
  24264333.0524   -2230504.72545  -1690369.21861
 91  5 14 19  1 45.0010000  0  6G18G 2G16G19G11G 6
  21743857.263     4981120.703 7   3881384.68423
  22876649.3804   -6492818.85746  -5059340.94261
  23887994.153    -2899694.719 5  -2057509.03021
  21119494.3104    1224268.94447    953974.86662
  23689983.560    -3751124.685 6  -2922934.78621
  24258824.0134   -2259444.72045  -1712919.80161
 91  5 14 19  2  0.0010000  0  6G18G 2G16G19G11G 6
  21751323.021     5020364.506 7   3911964.21923
  22869826.9744   -6528662.54247  -5087270.96461
  23885570.2944   -2912435.49945  -2067436.92061
  21121697.5364    1235822.13446    962977.35162
  23687267.458    -3765393.551 6  -2934053.27221
  24253320.8564   -2288365.47845  -1735455.37961
 91  5 14 19  2 15.0010000  0  6G18G 2G16G19G11G 6
  21758810.2944    5059703.01647   3942617.56263
  22863020.0214   -6564438.79446  -5115148.44261
  23883171.5284   -2925044.04045  -2077261.74661
  21123900.2714    1247423.33747    972017.24062
  23684577.9194   -3779531.93046  -2945070.09161
  24247821.0134   -2317265.41145  -1757974.72861
 91  5 14 19  2 30.0010000  0  6G18G 2G16G19G11G 6
  21766313.6534    5099137.38547   3973345.61662
  22856224.1064   -6600146.23046  -5142972.29761
  23880794.8174   -2937519.05045  -2086982.55161
  21126121.9274    1259073.76546    981095.49362
  23681912.2784   -3793538.24246  -2955984.00961
  24242326.1534   -2346143.18345  -1780476.81861
 91  5 14 19  2 45.0010000  0  6G18G 2G16G19G11G 6
  21773835.716     5138666.058 7   4004147.13122
  22849442.224    -6635786.333 6  -5170743.69121
  23878451.4274   -2949861.90245  -2096600.36161
  21128344.3724    1270771.98347    990210.98862
  23679267.653    -3807413.696 6  -2966795.95121
  24236837.966    -2375000.370 5  -1802962.86021
 91  5 14 19  3  0.0010000  0  6G18G 2G16G19G11G 6
  21781376.856     5178291.149 7   4035023.77723
  22842672.794    -6671356.805 6  -5198460.83322
  23876122.6304   -2962070.12445  -2106113.26161
  21130580.6694    1282520.12447    999365.37562
  23676656.685    -3821155.968 6  -2977504.11621
  24231348.685    -2403834.846 5  -1825431.20121
 91  5 14 19  3 15.0010000  0  6G18G 2G16G19G11G 6
  21788935.466     5218011.242 7   4065974.45723
  22835917.880    -6706858.431 6  -5226124.31921
  23873827.3494   -2974144.67145  -2115521.98661
  21132824.2784    1294317.28747   1008557.97262
  23674065.5834   -3834765.76646  -2988109.04761
  24225866.458    -2432647.685 5  -1847882.69221
 91  5 14 19  3 30.0010000  0  6G18G 2G16G19G11G 6
  21796512.239     5257826.297 7   4096999.12322
  22829175.771    -6742290.970 6  -5253733.97121
  23871554.1774   -2986085.64545  -2124826.64861
  21135078.9504    1306163.32847   1017788.65662
  23671500.6774   -3848242.94346  -2998610.65861
  24220387.372    -2461438.992 5  -1870317.36721
 91  5 14 19  3 45.0010000  0  6G18G 2G16G19G11G 6
  21804106.935     5297736.967 7   4128098.30622
  22822446.856    -6777653.378 7  -5281288.98021
  23869305.4744   -2997891.91045  -2134026.33961
  21137340.9504    1318059.23247   1027058.19262
  23668962.7004   -3861586.23946  -3009007.94461
  24214913.5754   -2490207.69245  -1892734.46361
 91  5 14 19  4  0.0010000  0  6G18G 2G16G19G11G 6
  21811721.435     5337745.333 7   4159273.61522
  22815731.7004   -6812943.83947  -5308787.91962
  23867089.286    -3009561.232 5  -2143119.29521
  21139619.8254    1330006.83046   1036368.01162
  23666446.0444   -3874793.55646  -3019299.23461
  24209440.942    -2518952.110 5  -1915132.63721
 91  5 14 19  4 15.0010000  0  6G18G 2G16G19G11G 6
  21819351.013     5377849.704 7   4190523.73423
  22809029.060    -6848163.623 7  -5336231.79922
  23864894.6144   -3021095.19445  -2152106.82461
  21141897.3964    1342004.95647   1045717.20262
  23663960.325    -3887865.978 6  -3029485.43721
  24203973.075    -2547673.743 5  -1937513.05421
 91  5 14 19  4 30.0010000  0  6G18G 2G16G19G11G 6
  21827000.661     5418048.761 7   4221847.62223
  22802338.958    -6883313.845 7  -5363621.47722
  23862720.6534   -3032494.78045  -2160989.61161
  21144193.935     1354052.239 7   1055104.70222
  23661497.2554   -3900804.61746  -3039567.40761
  24198514.091    -2576373.638 5  -1959876.50921
 91  5 14 19  4 45.0010000  0  6G18G 2G16G19G11G 6
  21834669.481     5458345.977 7   4253248.00222
  22795665.075    -6918390.672 7  -5390953.96522
  23860579.3024   -3043756.48645  -2169764.95961
  21146494.9424    1366152.29747   1064533.33362
  23659062.638    -3913605.530 6  -3049542.04421
  24193058.1144   -2605048.40145  -1982220.39061
 91  5 14 19  5  0.0010000  0  6G18G 2G16G19G11G 6
  21842355.583     5498737.947 7   4284722.22222
  22789001.599    -6953397.015 7  -5418231.53521
  23858463.083    -3054883.280 5  -2178435.17521
  21148808.0284    1378301.93747   1074000.58862
  23656652.8414   -3926271.62146  -3059411.62261
  24187607.638    -2633701.149 5  -2004547.12921
 91  5 14 19  5 15.0010000  0  6G18G 2G16G19G11G 6
  21850059.6384    5539222.29047   4316268.42362
  22782354.466    -6988335.016 7  -5445455.85121
  23856370.411    -3065877.185 5  -2187001.87321
  21151127.3804    1390499.06547   1083504.84662
  23654265.536    -3938804.828 6  -3069177.67121
  24182156.505    -2662333.999 5  -2026858.35221
 91  5 14 19  5 30.0010000  0  6G18G 2G16G19G11G 6
  21857780.442     5579799.267 7   4347886.80422
  22775717.1224   -7023204.03546  -5472626.42762
  23854303.1064   -3076737.46045  -2195464.42261
  21153459.8024    1402744.09247   1093046.43362
  23651906.356    -3951204.371 6  -3078839.54721
  24176709.981    -2690946.573 5  -2049153.76621
 91  5 14 19  5 45.0010000  0  6G18G 2G16G19G11G 6
  21865521.239     5620471.385 7   4379579.30823
  22769096.0054   -7058001.36746  -5499741.13462
  23852260.0524   -3087461.86845  -2203821.10461
  21155797.1694    1415039.38147   1102627.18262
  23649573.356    -3963467.695 6  -3088395.28021
  24171268.2474   -2719536.54845  -2071431.58461
 91  5 14 19  6  0.0010000  0  6G18G 2G16G19G11G 6
  21873279.2784    5661237.03847   4411344.71162
  22762487.8644   -7092728.41246  -5526801.08162
  23850247.208    -3098051.477 5  -2212072.75521
  21158147.4274    1427383.89347   1112246.28262
  23647266.3254   -3975595.77046  -3097845.63361
  24165833.7244   -2748105.11145  -2093692.69861
 91  5 14 19  6 15.0010000  0  6G18G 2G16G19G11G 6
  21881052.9504    5702095.86847   4443182.72762
  22755892.3024   -7127385.09646  -5553806.19462
  23848258.0674   -3108506.39645  -2220219.45661
  21160504.9744    1439777.33547   1121903.51962
  23644986.0214   -3987588.50046  -3107190.53161
  24160403.802    -2776652.599 5  -2115937.41721
 91  5 14 19  6 30.0010000  0  6G18G 2G16G19G11G 6
  21888846.528     5743049.098 7   4475094.28722
  22749311.739    -7161970.088 7  -5580755.45322
  23846293.739    -3118825.143 5  -2228260.02321
  21162874.2554    1452220.95246   1131599.84762
  23642729.2554   -3999444.48346  -3116428.85461
  24154972.9194   -2805177.78045  -2138164.74461
 91  5 14 19  6 45.0010000  0  6G18G 2G16G19G11G 6
  21896657.763     5784095.431 7   4507078.39223
  22742743.5134   -7196484.43547  -5607649.66561
  23844359.2944   -3129008.80346  -2236195.34361
  21165250.7474    1464713.58247   1141334.36862
  23640496.3644   -4011164.48046  -3125561.23661
  24149546.864    -2833681.741 5  -2160375.53121
 91  5 14 19  7  0.0010000  0  6G18G 2G16G19G11G 6
  21904486.216     5825233.157 7   4539133.71423
  22736187.5754   -7230929.68346  -5634490.02962
  23842443.7714   -3139059.09045  -2244026.74061
  21167637.6924    1477253.56747   1151105.78962
  23638292.5524   -4022750.12646  -3134588.91361
  24144126.606    -2862166.363 5  -2182571.25821
 91  5 14 19  7 15.0010000  0  6G18G 2G16G19G11G 6
  21912333.0134    5866469.59247   4571265.94062
  22729648.8564   -7265297.83747  -5661270.31962
  23840559.2314   -3148968.35945  -2251748.25661
  21170032.1304    1489848.66147   1160920.14962
  23636114.146    -4034193.293 6  -3143505.57021
  24138710.4974   -2890623.88845  -2204745.86261
 91  5 14 19  7 30.0010000  0  6G18G 2G16G19G11G 6
  21920197.6384    5907799.08647   4603470.70262
  22723122.396    -7299594.365 7  -5687994.81022
  23838695.5524   -3158741.66745  -2259363.82461
  21172441.8884    1502493.36447   1170773.16862
  23633961.1224   -4045499.31546  -3152315.36561
  24133301.5444   -2919059.78245  -2226903.63761
 91  5 14 19  7 45.0010000  0  6G18G 2G16G19G11G 6
  21928079.396     5949218.210 7   4635745.29322
  22716610.380    -7333822.533 7  -5714666.03422
  23836864.9894   -3168382.44845  -2266876.13061
  21174854.9194    1515184.35447   1180662.25162
  23631839.4974   -4056671.33046  -3161020.75061
  24127896.6064   -2947477.50145  -2249047.23861
 91  5 14 19  8  0.0010000  0  6G18G 2G16G19G11G 6
  21935980.200     5990731.998 7   4668093.64222
  22710110.317    -7367977.115 7  -5741279.91522
  23835055.8964   -3177885.68445  -2274281.25561
  21177278.7474    1527926.72647   1190591.37762
  23629737.114    -4067704.050 6  -3169617.59621
  24122490.130    -2975871.940 5  -2271172.69521
 91  5 14 19  8 15.0010000  0  6G18G 2G16G19G11G 6
  21943897.856     6032339.027 7   4700514.64922
  22703624.6534   -7402059.03747  -5767837.17462
  23833273.4274   -3187251.99645  -2281579.69761
  21179711.3564    1540719.37447   1200559.67062
  23627665.1694   -4078598.32446  -3178106.54961
  24117092.5674   -3004244.26345  -2293280.92361
 91  5 14 19  8 30.0010000  0  6G18G 2G16G19G11G 6
  21951832.169     6074038.331 7   4733007.56522
  22697152.169    -7436068.789 7  -5794338.20422
  23831514.8884   -3196482.15345  -2288772.03461
  21182158.7864    1553561.82247   1210566.78062
  23625617.528    -4089354.444 6  -3186487.85421
  24111700.380    -3032595.108 5  -2315372.38521
 91  5 14 19  8 45.0010000  0  6G18G 2G16G19G11G 6
  21959785.802     6115829.930 7   4765572.39322
  22690694.060    -7470006.146 7  -5820782.81322
  23829784.513    -3205576.080 5  -2295858.22421
  21184609.0444    1566454.08947   1220612.70562
  23623597.778    -4099972.211 6  -3194761.34621
  24106306.9194   -3060924.31445  -2337447.03661
 91  5 14 19  9  0.0010000  0  6G18G 2G16G19G11G 6
  21967755.505     6157713.002 7   4798208.49822
  22684249.497    -7503871.787 7  -5847171.54722
  23828081.731    -3214534.266 5  -2302838.63321
  21187073.1144    1579395.31047   1230696.77162
  23621600.880    -4110452.203 6  -3202927.48321
  24100919.5914   -3089232.88345  -2359505.56461
 91  5 14 19  9 15.0010000  0  6G18G 2G16G19G11G 6
  21975742.6464    6199688.06747   4830916.28262
  22677819.724    -7537665.017 7  -5873503.86122
  23826406.5284   -3223356.16545  -2309712.85161
  21189546.1614    1592386.05147   1240819.43462
  23619634.2784   -4120793.61246  -3210985.63961
  24095535.614    -3117520.257 5  -2381547.60321
 91  5 14 19  9 30.0010000  0  6G18G 2G16G19G11G 6
  21983748.1614    6241757.24047   4863697.39162
  22671403.5914   -7571383.35347  -5899777.81962
  23824748.739    -3232039.634 5  -2316479.20921
  21192026.3724    1605428.68247   1250982.52562
  23617693.224    -4130993.927 6  -3218933.85521
  24090159.435    -3145784.047 5  -2403571.25221
 91  5 14 19  9 45.0010000  0  6G18G 2G16G19G11G 6
  21991770.638     6283915.276 7   4896547.76022
  22665001.106    -7605031.871 7  -5925997.37222
  23823122.942    -3240589.718 5  -2323141.62321
  21194517.8174    1618518.18647   1261182.14962
  23615779.794    -4141058.061 6  -3226775.95121
  24084782.7864   -3174029.56145  -2425580.66961
 91  5 14 19 10  0.0010000  0  6G18G 2G16G19G11G 6
  21999811.0994    6326164.26547   4929468.98962
  22658610.161    -7638608.347 7  -5952160.78222
  23821520.6854   -3249004.07045  -2329698.25761
  21197017.9274    1631656.72747   1271419.97862
  23613886.7944   -4150983.59346  -3234510.05261
  24079412.036    -3202254.563 5  -2447574.11021
 91  5 14 19 10 15.0010000  0  6G18G 2G16G19G11G 6
  22007867.0134    6368504.70347   4962461.48062
  22652233.239    -7672111.729 7  -5978267.23722
  23819947.981    -3257281.764 5  -2336148.43521
  21199526.224     1644845.340 7   1281696.83422
  23612028.802    -4160769.471 6  -3242135.32721
  24074044.989    -3230458.196 5  -2469550.89321
 91  5 14 19 10 30.0010000  0  6G18G 2G16G19G11G 6
  22015941.4504    6410936.10747   4995524.85162
  22645871.185    -7705542.127 7  -6004316.83022
  23818399.161    -3265423.028 5  -2342492.29121
  21202051.9974    1658083.64847   1292012.40462
  23610193.2394   -4170415.73246  -3249651.80261
  24068685.380    -3258640.848 5  -2491511.35421
 91  5 14 19 10 45.0010000  0  6G18G 2G16G19G11G 6
  22024034.2864    6453458.68647   5028659.27162
  22639526.9424   -7738899.12747  -6030309.22262
  23816876.224    -3273427.233 5  -2348729.35221
  21204574.5054    1671371.77047   1302366.79562
  23608383.989    -4179921.970 6  -3257059.18421
  24063322.536    -3286802.342 5  -2513455.29521
 91  5 14 19 11  0.0010000  0  6G18G 2G16G19G11G 6
  22032142.8414    6496070.13347   5061862.93662
  22633190.5214   -7772184.71347  -6056245.97862
  23815376.1304   -3281296.60145  -2354861.36761
  21207113.364     1684707.729 7   1312758.46322
  23606597.5674   -4189289.90646  -3264358.79561
  24057965.1534   -3314944.57945  -2535384.23061
 91  5 14 19 11 15.0010000  0  6G18G 2G16G19G11G 6
  22040270.1464    6538776.41047   5095140.48962
  22626872.5834   -7805392.74447  -6082122.29962
  23813904.474    -3289025.195 5  -2360883.64121
  21209663.724     1698097.773 7   1323192.27722
  23604842.4744   -4198513.32346  -3271545.78061
  24052616.5134   -3343061.55645  -2557293.49561
 91  5 14 19 11 30.0010000  0  6G18G 2G16G19G11G 6
  22048412.7634    6581574.96647   5128489.95162
  22620566.1614   -7838525.33547  -6107939.83562
  23812463.310    -3296615.116 5  -2366797.87921
  21212222.810     1711539.519 6   1333666.38022
  23603117.302    -4207594.360 6  -3278621.83321
  24047269.4354   -3371155.74645  -2579184.99061
 91  5 14 19 11 45.0010000  0  6G18G 2G16G19G11G 6
  22056576.0134    6624465.17347   5161910.82862
  22614275.5444   -7871582.83947  -6133698.86562
  23811040.958    -3304066.544 5  -2372604.21421
  21214785.4894    1725032.51247   1344180.40662
  23601415.513    -4216533.219 6  -3285587.10521
  24041927.0054   -3399227.57745  -2601059.08961
 91  5 14 19 12  0.0010000  0  6G18G 2G16G19G11G 6
  22064755.0834    6667447.52147   5195403.50062
  22607999.6464   -7904564.51447  -6159398.80862
  23809652.8644   -3311378.84845  -2378302.10861
  21217366.7784    1738577.26946   1354734.77262
  23599742.1144   -4225329.01246  -3292440.90461
  24036590.1534   -3427276.40745  -2622915.23661
 91  5 14 19 12 15.0010000  0  6G18G 2G16G19G11G 6
  22072951.7944    6710522.57947   5228968.41462
  22601738.4504   -7937469.53047  -6185039.02062
  23808286.9894   -3318551.66245  -2383891.31961
  21219952.0674    1752174.62247   1365330.11862
  23598093.6464   -4233980.91046  -3299182.55161
  24031256.739    -3455301.715 5  -2644753.06421
 91  5 14 19 12 30.0010000  0  6G18G 2G16G19G11G 6
  22081165.8644    6753688.54347   5262604.16562
  22595489.5444   -7970299.22647  -6210620.52962
  23806953.2394   -3325586.25146  -2389372.82661
  21222550.4034    1765823.08447   1375965.28962
  23596472.8964   -4242490.30346  -3305813.17861
  24025928.2474   -3483304.96945  -2666573.71061
 91  5 14 19 12 45.0010000  0  6G18G 2G16G19G11G 6
  22089396.9194    6796942.78047   5296308.69262
  22589255.9584   -8003055.96647  -6236145.19862
  23805635.4114   -3332484.96845  -2394748.44561
  21225154.9584    1779520.10147   1386638.29062
  23594883.497    -4250859.408 6  -3312334.48621
  24020606.1144   -3511288.67545  -2688379.13761
 91  5 14 19 13  0.0010000  0  6G18G 2G16G19G11G 6
  22097646.4744    6840286.74347   5330083.14162
  22583036.4194   -8035738.43347  -6261611.98962
  23804349.3024   -3339246.27845  -2400017.00661
  21227776.2164    1793267.17447   1397350.30462
  23593315.0284   -4259086.69746  -3318745.29061
  24015282.208    -3539251.406 5  -2710168.22821
 91  5 14 19 13 15.0010000  0  6G18G 2G16G19G11G 6
  22105912.0754    6883721.25447   5363928.14662
  22576832.0444   -8068345.29547  -6287019.86562
  23803092.0604   -3345868.92445  -2405177.52561
  21230396.0524    1807065.44347   1408102.20262
  23591779.255    -4267170.590 6  -3325044.37421
  24009964.8334   -3567192.08145  -2731940.11361
 91  5 14 19 13 30.0010000  0  6G18G 2G16G19G11G 6
  22114194.536     6927249.941 7   5397846.52522
  22570643.3724   -8100872.71347  -6312365.83962
  23801856.9114   -3352349.30145  -2410227.17961
  21233035.1384    1820918.62447   1418896.89062
  23590269.4744   -4275107.26446  -3331228.74061
  24004655.278    -3595106.923 5  -2753691.87221
 91  5 14 19 13 45.0010000  0  6G18G 2G16G19G11G 6
  22122494.856     6970872.363 7   5431837.94722
  22564467.8254   -8133320.72647  -6337649.94562
  23800650.216    -3358687.504 5  -2415166.04121
  21235678.8804    1834826.46747   1429734.17262
  23588788.458    -4282896.831 6  -3337298.45621
  23999346.356    -3622996.283 5  -2775423.79421
 91  5 14 19 14  0.0010000  0  6G18G 2G16G19G11G 6
  22130813.8334    7014584.35747   5465899.17362
  22558307.6144   -8165693.17047  -6362875.16062
  23799469.419    -3364887.538 5  -2419997.23921
  21238335.7244    1848785.12347   1440611.04862
  23587332.7084   -4290543.08646  -3343256.52161
  23994044.6384   -3650864.12845  -2797138.94161
 91  5 14 19 14 15.0010000  0  6G18G 2G16G19G11G 6
  22139148.5054    7058387.51147   5500031.43362
  22552163.8884   -8197988.03447  -6388039.93162
  23798315.5054   -3370947.67745  -2424719.42461
  21241000.8334    1862796.40947   1451528.92862
  23585901.481    -4298044.082 6  -3349101.40221
  23988745.747    -3678708.820 5  -2818836.04321
 91  5 14 19 14 30.0010000  0  6G18G 2G16G19G11G 6
  22147501.872     7102278.942 7   5534232.47022
  22546032.5134   -8230208.17947  -6413146.47462
  23797188.8104   -3376870.52745  -2429334.64461
  21243685.0284    1876857.46146   1462485.58662
  23584502.7474   -4305402.37546  -3354835.08361
  23983448.8494   -3706533.09445  -2840517.23361
 91  5 14 19 14 45.0010000  0  6G18G 2G16G19G11G 6
  22155871.0834    7146261.07947   5568504.17762
  22539915.5284   -8262350.86847  -6438192.66262
  23796088.8254   -3382653.23845  -2433840.66361
  21246365.5364    1890970.97747   1473483.12962
  23583133.3884   -4312615.10446  -3360455.34561
  23978156.4114   -3734334.40645  -2862180.52761
 91  5 14 19 15  0.0010000  0  6G18G 2G16G19G11G 6
  22164257.208     7190331.805 7   5602844.93322
  22533812.5054   -8294417.56247  -6463179.63262
  23795015.567    -3388297.522 5  -2438238.81221
  21249063.1384    1905135.23546   1484520.21362
  23581785.4034   -4319683.86246  -3365963.44361
  23972872.716    -3762114.446 5  -2883827.25221
 91  5 14 19 15 15.0010000  0  6G18G 2G16G19G11G 6
  22172660.185     7234494.126 7   5637257.06622
  22527725.6464   -8326405.20447  -6488105.00562
  23793969.989    -3393800.738 5  -2442527.04721
  21251763.5754    1919353.29547   1495599.21262
  23580467.7394   -4326605.37746  -3371356.75661
  23967591.5524   -3789870.11945  -2905454.99661
 91  5 14 19 15 30.0010000  0  6G18G 2G16G19G11G 6
  22181083.356     7278744.611 7   5671737.88422
  22521653.3024   -8358317.00347  -6512971.28362
  23792946.481    -3399165.734 5  -2446707.57521
  21254480.9814    1933621.89647   1506717.59962
  23579177.325    -4333382.744 6  -3376637.78921
  23962311.5214   -3817604.89745  -2927066.43361
 91  5 14 19 15 45.0010000  0  6G18G 2G16G19G11G 6
  22189520.692     7323089.162 7   5706291.99422
  22515595.5604   -8390146.54247  -6537773.45662
  23791953.560    -3404386.282 5  -2450775.55721
  21257204.4664    1947947.27047   1517880.23062
  23577913.5054   -4340009.52446  -3381801.44661
  23957038.6694   -3845312.47845  -2948656.68861
 91  5 14 19 16  0.0010000  0  6G18G 2G16G19G11G 6
  22197976.724     7367525.357 7   5740917.52422
  22509553.4354   -8421896.39847  -6562513.53962
  23790986.4034   -3409465.43545  -2454733.36861
  21259942.7164    1962326.85147   1529085.09462
  23576687.4114   -4346488.21646  -3386849.73961
  23951771.0754   -3872995.61345  -2970227.90261
 91  5 14 19 16 15.0010000  0  6G18G 2G16G19G11G 6
  22206451.0444    7412050.84947   5775612.64062
  22503526.1854   -8453568.37547  -6587192.93462
  23790049.560    -3414404.717 5  -2458582.16821
  21262690.6614    1976758.97847   1540330.90862
  23575480.224    -4352820.533 6  -3391783.96621
  23946508.8174   -3900656.06445  -2991781.40961
 91  5 14 19 16 30.0010000  0  6G18G 2G16G19G11G 6
  22214939.2004    7456666.32447   5810377.88362
  22497514.106    -8485161.559 7  -6611810.93222
  23789136.450    -3419203.232 6  -2462321.28921
  21265448.5364    1991244.22846   1551618.11862
  23574302.2554   -4359005.52646  -3396603.38061
  23941249.4974   -3928293.14745  -3013316.72761
 91  5 14 19 16 45.0010000  0  6G18G 2G16G19G11G 6
  22223446.255     7501370.943 7   5845212.57322
  22491517.0674   -8516676.27347  -6636367.78562
  23788246.669    -3423861.425 6  -2465951.06321
  21268209.6774    2005782.07047   1562946.30462
  23573154.911    -4365043.555 6  -3401308.28821
  23935992.7394   -3955907.45145  -3034834.29161
 91  5 14 19 17  0.0010000  0  6G18G 2G16G19G11G 6
  22231970.302     7546162.108 7   5880114.69422
  22485534.8334   -8548114.94647  -6660865.38762
  23787388.5674   -3428381.79346  -2469473.45361
  21270989.7004    2020370.07947   1574313.58362
  23572032.388    -4370936.995 6  -3405900.53521
  23930740.239    -3983501.498 5  -3056336.06821
 91  5 14 19 17 15.0010000  0  6G18G 2G16G19G11G 6
  22240509.044     7591038.010 7   5915082.85022
  22479567.4274   -8579479.24147  -6685305.03462
  23786556.2474   -3432766.09646  -2472889.80861
  21273770.6924    2035006.52547   1585718.60862
  23570939.325    -4376687.348 6  -3410381.28221
  23925495.7784   -4011077.03845  -3077823.42661
 91  5 14 19 17 30.0010000  0  6G18G 2G16G19G11G 6
  22249067.247     7636005.630 7   5950122.48022
  22473615.2784   -8610761.81247  -6709681.00362
  23785750.0364   -3437007.17346  -2476194.56561
  21276570.7394    2049698.81546   1597167.14462
  23569872.9354   -4382287.07146  -3414744.65061
  23920252.2864   -4038626.89145  -3099290.77461
 91  5 14 19 17 45.0010000  0  6G18G 2G16G19G11G 6
  22257640.8104    7681062.40147   5985231.58562
  22467676.0214   -8641964.88847  -6733995.02662
  23784968.755    -3441107.024 6  -2479389.29021
  21279373.7554    2064444.46847   1608657.26062
  23568838.419    -4387738.380 6  -3418992.36821
  23915013.739    -4066153.292 5  -3120739.85121
 91  5 14 19 18  0.0010000  0  6G18G 2G16G19G11G 6
  22266231.810     7726208.540 7   6020410.31722
  22461753.1064   -8673087.97947  -6758246.71962
  23784215.0994   -3445065.46346  -2482473.82461
  21282190.5134    2079243.99446   1620189.35662
  23567825.669    -4393040.715 6  -3423124.01521
  23909782.2394   -4093655.96445  -3142170.43661
 91  5 14 19 18 15.0010000  0  6G18G 2G16G19G11G 6
  22274839.919     7771441.472 7   6055656.66822
  22455846.3254   -8704133.34647  -6782437.85862
  23783488.4274   -3448885.09345  -2485450.17961
  21285017.9354    2094095.02647   1631761.58362
  23566844.591    -4398196.465 6  -3427141.43821
  23904551.411    -4121137.296 5  -3163584.39221
 91  5 14 19 18 30.0010000  0  6G18G 2G16G19G11G 6
  22283464.630     7816761.561 7   6090970.94422
  22449952.6774   -8735100.46747  -6806568.02162
  23782787.1534   -3452565.21945  -2488317.83861
  21287853.7944    2108997.93047   1643374.22862
  23565887.6614   -4403205.10446  -3431044.21761
  23899323.661    -4148597.071 5  -3184981.53321
 91  5 14 19 18 45.0010000  0  6G18G 2G16G19G11G 6
  22292105.630     7862171.460 7   6126355.21222
  22444075.2944   -8765986.30747  -6830634.84462
  23782113.1774   -3456102.90845  -2491074.50561
  21290699.6304    2123955.69747   1655029.62562
  23564966.380    -4408063.435 6  -3434829.88121
  23894104.4814   -4176032.34045  -3206359.61461
 91  5 14 19 19  0.0010000  0  6G18G 2G16G19G11G 6
  22300762.466     7907671.404 7   6161809.64422
  22438212.0364   -8796790.49047  -6854638.03962
  23781468.3414   -3459497.64645  -2493719.78561
  21293557.6694    2138968.71646   1666728.07862
  23564070.685    -4412770.915 6  -3438497.99821
  23888890.2944   -4203442.67745  -3227718.24861
 91  5 14 19 19 15.0010000  0  6G18G 2G16G19G11G 6
  22309437.091     7953261.000 7   6197333.92922
  22432366.0754   -8827512.69047  -6878577.35462
  23780845.7164   -3462749.18245  -2496253.48161
  21296425.106     2154037.026 7   1678469.60422
  23563204.716    -4417327.235 6  -3442048.32221
  23883679.583    -4230828.017 5  -3249057.42921
 91  5 14 19 19 30.0010000  0  6G18G 2G16G19G11G 6
  22318132.419     7998938.812 7   6232926.94522
  22426534.0524   -8858154.43947  -6902453.97662
  23780258.544    -3465859.636 6  -2498677.23121
  21299304.4194    2169159.18347   1690253.09262
  23562366.974    -4421733.815 6  -3445481.97521
  23878472.8174   -4258189.93445  -3270378.36161
 91  5 14 19 19 45.0010000  0  6G18G 2G16G19G11G 6
  22326839.911     8044702.018 7   6268586.50022
  22420719.880    -8888717.981 7  -6926269.66522
  23779691.0834   -3468831.12045  -2500992.70561
  21302187.3414    2184332.71447   1702076.62062
  23561552.8024   -4425992.89546  -3448800.67361
  23873268.552    -4285530.880 5  -3291682.91921
 91  5 14 19 20  0.0010000  0  6G18G 2G16G19G11G 6
  22335563.599     8090549.365 7   6304311.62322
  22414918.9114   -8919204.48847  -6950025.32562
  23779152.2784   -3471664.59345  -2503200.63161
  21305088.6304    2199556.57046   1713939.35662
  23560769.6224   -4430105.40546  -3452005.18061
  23868068.481    -4312852.009 5  -3312972.08221
 91  5 14 19 20 15.0010000  0  6G18G 2G16G19G11G 6
  22344304.974     8136481.202 7   6340102.59322
  22409131.0834   -8949613.41847  -6973720.53362
  23778640.0604   -3474359.96246  -2505300.94461
  21307989.0364    2214831.05547   1725841.54862
  23560016.997    -4434071.009 6  -3455095.21921
  23862873.950    -4340152.985 5  -3334245.51321
 91  5 14 19 20 30.0010000  0  6G18G 2G16G19G11G 6
  22353062.021     8182498.344 7   6375960.03422
  22403360.5214   -8979943.46647  -6997354.28062
  23778152.450    -3476916.119 5  -2507292.77321
  21310913.591     2230157.437 7   1737784.16322
  23559290.755    -4437888.329 6  -3458069.68021
  23857681.802    -4367432.811 5  -3355502.47321
 91  5 14 19 20 45.0010000  0  6G18G 2G16G19G11G 6
  22361834.8024    8228600.52747   6411883.73962
  22397605.4354   -9010194.56447  -7020926.51362
  23777694.7784   -3479333.06346  -2509176.12261
  21313832.7164    2245535.88147   1749767.36262
  23558593.060    -4441557.073 6  -3460928.39521
  23852496.075    -4394691.391 5  -3376742.88621
 91  5 14 19 21  0.0010000  0  6G18G 2G16G19G11G 6
  22370624.474     8274786.684 7   6447872.87622
  22391862.9504   -9040367.72447  -7044438.00762
  23777259.466    -3481611.667 6  -2510951.67821
  21316773.1224    2260965.22346   1761790.21062
  23557923.2164   -4445078.14446  -3463672.02361
  23847312.294    -4421929.754 5  -3397967.52921
 91  5 14 19 21 15.0010000  0  6G18G 2G16G19G11G 6
  22379428.2244    8321058.63947   6483928.85562
  22386136.8024   -9070460.86447  -7067887.14362
  23776852.380    -3483750.004 5  -2512617.93421
  21319716.786     2276447.325 7   1773854.17522
  23557280.7004   -4448449.64346  -3466299.10461
  23842134.4974   -4449146.13145  -3419175.04261
 91  5 14 19 21 30.0010000  0  6G18G 2G16G19G11G 6
  22388249.552     8367415.715 7   6520051.16922
  22380425.3414   -9100474.17647  -7091274.08262
  23776468.872    -3485748.252 5  -2514175.04221
  21322677.356     2291981.875 6   1785959.00722
  23556670.4664   -4451671.80246  -3468809.81861
  23836961.005    -4476340.785 5  -3440365.62821
 91  5 14 19 21 45.0010000  0  6G18G 2G16G19G11G 6
  22397087.7714    8413858.11047   6556239.98062
  22374728.2784   -9130407.19347  -7114598.45162
  23776117.1854   -3487606.23545  -2515622.82761
  21325641.6694    2307569.48347   1798105.18862
  23556084.989    -4454743.879 6  -3471203.57521
  23831788.7164   -4503513.25345  -3461538.94261
 91  5 14 19 22  0.0010000  0  6G18G 2G16G19G11G 6
  22405942.7004    8460385.54247   6592495.05162
  22369048.864    -9160260.052 7  -7137860.36122
  23775788.919    -3489324.011 5  -2516961.37321
  21328615.544     2323210.257 6   1810292.78922
  23555527.497    -4457665.869 6  -3473480.41721
  23826620.427    -4530663.722 5  -3482695.10921
 91  5 14 19 22 15.0010000  0  6G18G 2G16G19G11G 6
  22414811.856     8506998.007 7   6628816.37822
  22363382.9744   -9190032.21247  -7161059.39262
  23775490.6924   -3490901.13945  -2518190.32961
  21331600.224     2338904.144 7   1822521.78122
  23554999.0994   -4460437.56546  -3475640.10561
  23821459.911    -4557792.187 5  -3503834.13121
 91  5 14 19 22 30.0010000  0  6G18G 2G16G19G11G 6
  22423698.3414    8553693.85947   6665202.67062
  22357731.4034   -9219725.12347  -7184196.66662
  23775218.700    -3492339.416 5  -2519311.09521
  21334599.8724    2354649.78746   1834791.10162
  23554500.302    -4463060.208 6  -3477683.65921
  23816301.427    -4584899.971 5  -3524957.02821
 91  5 14 19 22 45.0010000  0  6G18G 2G16G19G11G 6
  22432600.310     8600471.897 7   6701653.00622
  22352095.653    -9249339.862 7  -7207273.03522
  23774970.521    -3493639.768 5  -2520324.37321
  21337604.692     2370445.965 7   1847099.79722
  23554028.3724   -4465534.73246  -3479611.80861
  23811143.3024   -4611988.18245  -3546064.67461
 91  5 14 19 23  0.0010000  0  6G18G 2G16G19G11G 6
  22441517.2004    8647334.58247   6738169.31062
  22346475.091    -9278873.478 7  -7230286.18322
  23774747.380    -3494799.282 5  -2521227.90721
  21340625.4974    2386295.56446   1859450.12462
  23553588.2714   -4467858.26646  -3481422.29061
  23805995.114    -4639054.114 5  -3567154.96421
 91  5 14 19 23 15.0010000  0  6G18G 2G16G19G11G 6
  22450450.278     8694281.519 7   6774751.26621
  22340869.903    -9308325.840 7  -7253236.01722
  23774554.591    -3495818.125 5  -2522021.85321
  21343647.341     2402198.667 7   1871842.14222
  23553175.817    -4470030.531 6  -3483114.91721
  23800848.2244   -4666097.70245  -3588227.83361
 91  5 14 19 23 30.0010000  0  6G18G 2G16G19G11G 6
  22459399.5364    8741310.39947   6811397.08162
  22335281.1384   -9337699.30947  -7276124.38362
  23774387.2474   -3496698.58545  -2522707.92861
  21346684.255     2418152.946 7   1884274.03522
  23552786.5284   -4472053.94546  -3484691.53761
  23795708.9814   -4693121.38245  -3609285.21561
 91  5 14 19 23 45.0010000  0  6G18G 2G16G19G11G 6
  22468365.1924    8788421.54747   6848107.00362
  22329705.8414   -9366993.35347  -7298950.85362
  23774246.521    -3497440.724 5  -2523286.24121
  21349728.497     2434158.865 7   1896746.16522
  23552433.833    -4473927.818 6  -3486151.65021
  23790567.513    -4720124.850 5  -3630326.82721
 91  5 14 19 24  0.0010000  0  6G18G 2G16G19G11G 6
  22477346.864     8835614.736 7   6884880.83622
  22324146.114    -9396207.596 7  -7321715.13922
  23774127.224    -3498043.964 5  -2523756.32221
  21352789.513     2450216.537 6   1909258.62422
  23552102.8884   -4475651.87646  -3487495.03961
  23785432.856    -4747107.851 5  -3651352.49621
 91  5 14 19 24 15.0010000  0  6G18G 2G16G19G11G 6
  22486342.403     8882890.643 7   6921719.13322
  22318603.278    -9425341.220 7  -7344416.61022
  23774045.591    -3498507.413 5  -2524117.47521
  21355851.185     2466326.776 7   1921812.04022
  23551803.6854   -4477225.29246  -3488721.01761
  23780301.317    -4774069.645 5  -3672361.63921
 91  5 14 19 24 30.0010000  0  6G18G 2G16G19G11G 6
  22495355.794     8930251.400 7   6958623.54022
  22313074.513    -9454392.035 7  -7367053.56222
  23773983.849    -3498829.304 5  -2524368.31921
  21358931.583     2482491.877 6   1934408.20922
  23551534.489    -4478645.598 6  -3489827.70421
  23775175.435    -4801008.069 5  -3693352.56721
 91  5 14 19 24 45.0010000  0  6G18G 2G16G19G11G 6
  22504384.310     8977692.571 7   6995590.60622
  22307562.224    -9483364.025 7  -7389629.08622
  23773948.3564   -3499013.61945
  21362010.575     2498707.720 7   1947043.92322
  23551293.606    -4479916.849 6  -3490818.25221
  23770052.0604   -4827927.28445  -3714328.55061
 91  5 14 19 25  0.0010000  0  6G18G 2G16G19G11G 6
  22513426.146     9025216.883 7   7032622.48022
  22302063.942    -9512254.024 7  -7412140.72222
  23773941.0444   -3499057.30945
  21365106.458     2514977.261 7   1959721.47322
  23551079.864    -4481036.081 6  -3491690.33521
  23764930.192    -4854824.367 5  -3735287.26421
 91  5 14 19 25 15.0010000  0  6G18G 2G16G19G11G 6
  22522484.7714    9072820.87647   7069716.43162
  22296582.1144   -9541065.24447  -7434590.96162
  23773957.3564   -3498963.57745
  21368213.614     2531297.446 7   1972438.48522
  23550895.075    -4482006.211 6  -3492446.23521
  23759821.8964   -4881702.35345  -3756231.10761
 91  5 14 19 25 30.0010000  0  6G18G 2G16G19G11G 6
  22531559.3964    9120506.25847   7106873.80262
  22291113.216    -9569795.664 7  -7456978.25722
  23774000.044    -3498730.637 5
  21371329.8644    2547670.19746   1985196.45962
  23550742.083    -4482825.242 6  -3493084.39321
  23754710.8644   -4908559.49645  -3777158.68461
 91  5 14 19 25 45.0010000  0  6G18G 2G16G19G11G 6
  22540650.622     9168272.700 7   7144094.32622
  22285662.872    -9598445.511 7  -7479302.76322
  23774069.794    -3498358.561 5
  21374455.419     2564095.309 7   1997995.23122
  23550610.294    -4483493.335 6  -3493604.93621
  23749604.2634   -4935395.99245  -3798070.20961
 91  5 14 19 26  0.0010000  0  6G18G 2G16G19G11G 6
  22549753.544     9216120.624 6   7181378.35122
  22280227.169    -9627013.954 7  -7501563.83322
  23774170.380    -3497846.885 5  -2523602.97221
  21377592.497     2580573.644 7   2010835.47522
  23550514.841    -4484009.768 6  -3494007.30821
  23744497.6144   -4962211.27845  -3818965.18861
 91  5 14 19 26 15.0010000  0  6G18G 2G16G19G11G 6
  22558873.583     9264048.749 7   7218724.86721
  22274804.864    -9655502.177 7  -7523762.40422
  23774290.692    -3497196.938 5  -2523096.53621
  21380735.372     2597103.727 7   2023716.05222
  23550446.286    -4484375.792 6  -3494292.46321
  23739401.5134   -4989006.71645  -3839844.69061
 91  5 14 19 26 30.0010000  0  6G18G 2G16G19G11G 6
  22568011.1534    9312054.81747   7256132.12361
  22269399.5054   -9683911.81747  -7545899.74662
  23774443.927    -3496410.013 5  -2522483.38821
  21383891.8494    2613683.87747   2036635.64162
  23550402.3804   -4484592.89446
  23734305.146    -5015783.860 5  -3860709.96221
 91  5 14 19 26 45.0010000  0  6G18G 2G16G19G11G 6
  22577161.2784    9360140.58847   7293601.49361
  22264006.802    -9712241.059 7  -7567974.43622
  23774619.247    -3495484.877 5  -2521762.53221
  21387055.700     2630315.858 7   2049595.61522
  23550387.4354   -4484659.15046
  23729211.7554   -5042541.06945  -3881559.69461
 91  5 14 19 27  0.0010000  0  6G18G 2G16G19G11G 6
  22586325.9274    9408305.48846   7331132.51562
  22258632.356    -9740489.935 7  -7589986.48722
  23774825.622    -3494421.750 6  -2520934.13521
  21390233.106     2646999.553 6   2062595.88122
  23550408.8254   -4484574.73746
  23724126.591    -5069278.638 5  -3902394.10421
 91  5 14 19 27 15.0010000  0  6G18G 2G16G19G11G 6
  22595506.528     9456553.581 7   7368728.34822
  22253272.380    -9768654.376 7  -7611932.75322
  23775055.106    -3493216.487 6  -2519995.00721
  21393415.4354    2663739.17947   2075639.73962
  23550455.0914   -4484335.45146
  23719043.411    -5095992.475 5  -3923210.04421
 91  5 14 19 27 30.0010000  0  6G18G 2G16G19G11G 6
  22604704.302     9504879.574 7   7406384.89322
  22247928.146    -9796739.219 7  -7633817.00322
  23775308.3884   -3491874.05646  -2518948.99161
  21396613.6064    2680529.81746   2088723.34462
  23550526.974    -4483946.077 6
  23713959.966    -5122687.424 5  -3944011.25221
 91  5 14 19 27 45.0010000  0  6G18G 2G16G19G11G 6
  22613916.099     9553284.948 7   7444103.30721
  22242599.302    -9824742.415 7  -7655637.63222
  23775584.7784   -3490392.82245  -2517794.82361
  21399815.9354    2697373.11547   2101847.98262
  23550628.0834   -4483404.66946  -3493535.39961
  23708883.4274   -5149361.75645  -3964796.41061
 91  5 14 19 28  0.0010000  0  6G18G 2G16G19G11G 6
  22623141.0364    9601769.39347   7481883.33062
  22237285.622    -9852664.595 7  -7677395.12522
  23775895.6924   -3488773.05745  -2516532.69361
  21403033.6614    2714268.74247   2115013.39762
  23550760.2084   -4482711.69746  -3492995.35461
  23703813.2714   -5176016.03445  -3985565.94261
 91  5 14 19 28 15.0010000  0  6G18G 2G16G19G11G 6
  22632383.731     9650335.364 6   7519726.87322
  22231989.599    -9880502.518 7  -7699086.96422
  23776229.5834   -3487011.78345  -2515160.31461
  21406256.067     2731219.617 7   2128221.86422
  23550923.4974   -4481864.14346  -3492334.87261
  23698744.036    -5202647.256 5  -4006317.49721
 91  5 14 19 28 30.0010000  0  6G18G 2G16G19G11G 6
  22641639.872     9698980.040 6   7557631.73722
  22226706.450    -9908258.790 7  -7720715.17922
  23776595.3494   -3485111.56945  -2513679.64461
  21409495.5754    2748223.17647   2141471.37962
  23551112.2474   -4480864.45946  -3491555.82761
  23693678.9354   -5229258.04245  -4027053.13261
 91  5 14 19 28 45.0010000  0  6G18G 2G16G19G11G 6
  22650911.067     9747702.173 7   7595596.95122
  22221438.896    -9935934.766 7  -7742280.83122
  23776981.7784   -3483074.30145  -2512092.19661
  21412741.4814    2765278.23747   2154761.03062
  23551330.021    -4479713.840 6  -3490659.18621
  23688618.7784   -5255849.73445  -4047773.89161
 91  5 14 19 29  0.0010000  0  6G18G 2G16G19G11G 6
  22660198.974     9796503.521 7   7633623.89921
  22216187.833    -9963528.086 7  -7763782.07822
  23777395.7634   -3480897.65045  -2510396.12961
  21416001.5364    2782386.91846   2168092.46462
  23551579.169    -4478409.988 6  -3489643.13021
  23683565.5834   -5282420.23845  -4068478.11661
 91  5 14 19 29 15.0010000  0  6G18G 2G16G19G11G 6
  22669499.9034    9845380.31946   7671709.65961
  22210952.599    -9991042.278 7  -7785221.66222
  23777832.2714   -3478585.34545  -2508594.36961
  21419258.544     2799545.582 7   2181462.84122
  23551856.2784   -4476956.52946  -3488510.49861
  23678511.224    -5308973.174 5  -4089168.67721
 91  5 14 19 29 30.0010000  0  6G18G 2G16G19G11G 6
  22678814.1384    9894335.02646   7709856.11461
  22205733.239   -10018474.736 7  -7806597.55322
  23778301.817    -3476134.708 5  -2506684.82621
  21422537.4354    2816757.00947   2194874.34362
  23552161.7634   -4475350.84846  -3487259.26661
  23673465.4114   -5335505.91945  -4109843.50161
 91  5 14 19 29 45.0010000  0  6G18G 2G16G19G11G 6
  22688145.927     9943365.585 6   7748061.67121
  22200528.3024  -10045827.20747  -7827911.12362
  23778798.669    -3473547.540 5  -2504668.86921
  21425817.0994    2834019.42247   2208325.56262
  23552495.5524   -4473594.46146  -3485890.58961
  23668416.3254   -5362020.20045  -4130503.95261
 91  5 14 19 30  0.0010000  0  6G18G 2G16G19G11G 6
  22697490.536     9992471.127 7   7786325.65922
  22195338.169   -10073100.064 7  -7849162.65822
  23779313.6774   -3470824.57745  -2502547.10761
  21429118.6464    2851332.37946   2221816.16762
  23552857.036    -4471687.815 6  -3484404.83621
  23663375.247    -5388516.635 5  -4151150.47121
 91  5 14 19 30 15.0010000  0  6G18G 2G16G19G11G 6
  22706849.411    10041654.081 6   7824649.96222
  22190165.2784  -10100290.72147  -7870350.14462
  23779857.669    -3467962.972 5  -2500317.33321
  21432418.8174    2868698.50647   2235348.20962
  23553250.9114   -4469628.21546  -3482799.89361
  23658335.067    -5414992.665 5  -4171781.09621
 91  5 14 19 30 30.0010000  0  6G18G 2G16G19G11G 6
  22716223.403    10090914.201 6   7863034.39221
  22185004.8804  -10127399.12447  -7891473.53862
  23780426.1854   -3464963.19945  -2497979.88061
  21435737.3334    2886117.39847   2248921.36462
  23553673.5754   -4467415.93046  -3481075.97961
  23653306.2164   -5441448.46445  -4192395.96361
 91  5 14 19 30 45.0010000  0  6G18G 2G16G19G11G 6
  22725612.903    10140251.164 7   7901478.70221
  22179862.872   -10154425.235 7  -7912532.80222
  23781026.5604   -3461825.59645  -2495535.03161
  21439059.0604    2903589.18847   2262535.73362
  23554119.528    -4465050.906 6  -3479233.05321
  23648271.9274   -5467884.16045  -4212995.17161
 91  5 14 19 31  0.0010000  0  6G18G 2G16G19G11G 6
  22735013.4974   10189661.13846   7939979.90961
  22174733.614   -10181372.517 7  -7933530.64122
  23781651.458    -3458553.186 5  -2492985.13921
  21442393.3494    2921110.49347   2276188.69362
  23554599.349    -4462536.471 6  -3477273.69121
  23643247.1854   -5494303.19845  -4233581.39561
 91  5 14 19 31 15.0010000  0  6G18G 2G16G19G11G 6
  22744431.294    10239148.529 6   7978541.44321
  22169621.505   -10208236.483 7  -7954463.55522
  23782297.7394   -3455141.63746  -2490326.83161
  21445739.9894    2938685.82047   2289883.74762
  23555105.614    -4459868.050 6  -3475194.35821
  23638220.872    -5520701.125 5  -4254151.18421
 91  5 14 19 31 30.0010000  0  6G18G 2G16G19G11G 6
  22753863.356    10288709.068 6   8017159.97521
  22164525.450   -10235020.946 7  -7975334.52522
  23782972.0054   -3451594.92446  -2487563.19161
  21449094.0914    2956311.15246   2303617.75862
  23555642.4354   -4457049.42046  -3472997.95461
  23633196.106    -5547081.786 5  -4274707.50121
 91  5 14 19 31 45.0010000  0  6G18G 2G16G19G11G 6
  22763306.575    10338346.090 6   8055838.09921
  22159444.4814  -10261722.64147  -7996141.00262
  23783672.6534   -3447909.92546  -2484691.80961
  21452457.560     2973989.918 7   2317393.40522
  23556206.0444   -4454077.34046  -3470681.99561
  23628179.411    -5573441.977 5  -4295247.89521
 91  5 14 19 32  0.0010000  0  6G18G 2G16G19G11G 6
  22772767.3564   10388059.57046   8094575.80961
  22154378.528   -10288340.859 7  -8016882.42722
  23784402.3724   -3444086.19346  -2481712.32061
  21455831.6144    2991722.60946   2331211.08562
  23556805.099    -4450951.258 6  -3468246.03321
  23623172.0284   -5599781.18945  -4315771.91861
 91  5 14 19 32 15.0010000  0  6G18G 2G16G19G11G 6
  22782243.192    10437850.931 6   8133374.18822
  22149330.427   -10314874.001 7  -8037557.55922
  23785156.606    -3440122.380 5  -2478623.65621
  21459216.286     3009510.806 7   2345072.01022
  23557428.5214   -4447669.56646  -3465688.81361
  23618166.864    -5626097.972 5  -4336278.45321
 91  5 14 19 32 30.0010000  0  6G18G 2G16G19G11G 6
  22791732.677    10487716.748 6   8172230.59921
  22144296.5134  -10341325.19447  -8058168.83762
  23785933.1464   -3436021.75345  -2475428.39961
  21462610.9814    3027351.56346   2358973.88962
  23558081.575    -4444235.326 6  -3463012.72921
  23613163.4424   -5652395.55045  -4356770.04161
 91  5 14 19 32 45.0010000  0  6G18G 2G16G19G11G 6
  22801235.974    10537658.083 6   8211145.84621
  22139277.3104  -10367693.01747
  23786743.505    -3431782.756 5  -2472125.32221
  21466017.8254    3045246.03147   2372917.62262
  23558761.6464   -4440647.20046  -3460216.73461
  23608160.3644   -5678672.58145
 91  5 14 19 33  0.0010000  0  6G18G 2G16G19G11G 6
  22810755.005    10587672.101 7   8250117.73022
  22134275.685   -10393980.180 7
  23787577.7944   -3427408.58945  -2468716.93061
  21469434.3644    3063191.52546   2386901.12162
  23559478.060    -4436907.857 6  -3457302.90921
  23603164.4194   -5704931.78045
 91  5 14 19 33 15.0010000  0  6G18G 2G16G19G11G 6
  22820285.278    10637762.409 6   8289149.06221
  22129289.5054  -10420182.80147
  23788431.4744   -3422895.41645  -2465200.19861
  21472853.7474    3081191.91647   2400927.39162
  23560217.161    -4433013.470 6  -3454268.27621
  23598170.2004   -5731169.41145
 91  5 14 19 33 30.0010000  0  6G18G 2G16G19G11G 6
  22829831.646    10687928.320 6   8328239.30221
  22124320.9424  -10446300.98347  -8139968.02963
  23789318.2084   -3418243.30545  -2461575.21561
  21476295.2084    3099246.89147   2414996.20262
  23560985.896    -4428964.178 6  -3451112.94021
  23593182.6384   -5757385.72045  -4438580.42061
 91  5 14 19 33 45.0010000  0  6G18G 2G16G19G11G 6
  22839392.9274   10738168.06947   8367387.08561
  22119366.4894  -10472336.50747  -8160255.42262
  23790228.1064   -3413454.12245  -2457843.42561
  21479736.6384    3117354.87147   2429106.31362
  23561785.4114   -4424761.54246  -3447838.10561
  23588197.9664   -5783582.43545  -4458993.41261
 91  5 14 19 34  0.0010000  0  6G18G 2G16G19G11G 6
  22848966.3964   10788480.71146   8406591.67861
  22114425.0214  -10498290.07347  -8180478.94862
  23791164.9194   -3408528.88245  -2454005.60261
  21483194.9424    3135515.06146   2443257.09462
  23562613.763    -4420406.296 6  -3444444.35621
  23583216.7394   -5809760.25545  -4479391.66861
 91  5 14 19 34 15.0010000  0  6G18G 2G16G19G11G 6
  22858554.427    10838866.586 6   8445853.31221
  22109502.2714  -10524161.16547  -8200638.20863
  23792132.8884   -3403467.12045  -2450061.40561
  21486659.9354    3153727.90647   2457448.92462
  23563473.372    -4415898.035 6  -3440931.38021
  23578237.810    -5835918.967 5  -4499775.02321
 91  5 14 19 34 30.0010000  0  6G18G 2G16G19G11G 6
  22868155.8884   10889324.76346   8485171.28761
  22104596.3884  -10549950.22147  -8220733.53662
  23793119.0214   -3398269.46145  -2446011.32361
  21490140.6534    3171993.01947   2471681.47262
  23564362.638    -4411237.163 6  -3437299.48621
  23573262.216    -5862058.900 5  -4520143.76721
 91  5 14 19 34 45.0010000  0  6G18G 2G16G19G11G 6
  22877772.6464   10939851.87446   8524542.96861
  22099704.5054  -10575660.22047  -8240767.27063
  23794132.177    -3392939.201 5  -2441857.91121
  21493618.9584    3190307.40247   2485952.41062
  23565276.481    -4406426.745 6  -3433551.05821
  23568293.349    -5888183.140 5  -4540500.27021
 91  5 14 19 35  0.0010000  0  6G18G 2G16G19G11G 6
  22887400.700    10990449.460 6   8563969.58221
  22094825.9974  -10601289.48447  -8260738.08863
  23795173.9194   -3387474.41245  -2437599.65761
  21497116.0834    3208672.67646   2500263.00662
  23566218.536    -4401465.038 6  -3429684.74721
  23563323.841    -5914290.092 5  -4560843.30921
 91  5 14 19 35 15.0010000  0  6G18G 2G16G19G11G 6
  22897042.958    11041118.600 6   8603451.95621
  22089964.8724  -10626836.60147  -8280644.90163
  23796241.021    -3381873.921 5  -2433235.67321
  21500618.4114    3227090.18747   2514614.30362
  23567195.028    -4396350.813 6  -3425699.59321
  23558356.060    -5940378.512 5  -4581171.89321
 91  5 14 19 35 30.0010000  0  6G18G 2G16G19G11G 6
  22906698.458    11091859.046 6   8642989.88921
  22085119.3174  -10652301.51347  -8300487.65563
  23797329.247    -3376138.167 5  -2428766.27421
  21504136.5284    3245560.00546   2529006.36662
  23568197.903    -4391083.853 6  -3421595.42621
  23553401.513    -5966448.381 5  -4601486.04621
 91  5 14 19 35 45.0010000  0  6G18G 2G16G19G11G 6
  22916366.677    11142668.597 6   8682581.67121
  22080289.5834  -10677685.94747  -8320267.69763
  23798451.411    -3370268.933 5  -2424192.89021
  21507656.8334    3264080.14547   2543437.63662
  23569224.2634   -4385666.02146  -3417373.70161
  23548438.450    -5992501.535 5  -4621787.14821
 91  5 14 19 36  0.0010000  0  6G18G 2G16G19G11G 6
  22926048.4504   11193545.22446   8722225.71061
  22075472.5134  -10702991.77847  -8339986.49163
  23799597.0834   -3364268.13846  -2419516.96961
  21511194.4584    3282648.93547   2557906.81862
  23570285.606    -4380099.200 6  -3413035.87721
  23543485.489    -6018539.928 5  -4642076.76621
 91  5 14 19 36 15.0010000  0  6G18G 2G16G19G11G 6
  22935743.4894   11244492.09546   8761924.47561
  22070673.0364  -10728215.62547  -8359641.40063
  23800760.2004   -3358132.46045  -2414735.96161
  21514737.3724    3301269.90047   2572416.65362
  23571376.5214   -4374379.86546  -3408579.21061
  23538534.833    -6044560.178 5  -4662352.24121
 91  5 14 19 36 30.0010000  0  6G18G 2G16G19G11G 6
  22945452.560    11295509.524 6   8801678.23021
  22065889.5134  -10753357.16447  -8379232.17463
  23801951.9274   -3351861.71545  -2409849.69461
  21518290.9814    3319943.24846   2586967.30262
  23572489.317    -4368507.740 6  -3404003.48421
  23533586.872    -6070562.005 5  -4682613.36121
 91  5 14 19 36 45.0010000  0  6G18G 2G16G19G11G 6
  22955173.0364   11346596.84746   8841486.44461
  22061120.3564  -10778416.52547  -8398758.91063
  23803170.5754   -3345456.13345  -2404858.37761
  21521849.0054    3338668.89347   2601558.71262
  23573635.6854   -4362483.05346  -3399308.88361
  23528637.708    -6096545.642 5  -4702860.30321
 91  5 14 19 37  0.0010000  0  6G18G 2G16G19G11G 6
  22964908.794    11397753.080 6   8881348.36721
  22056366.7554  -10803394.62447  -8418222.33463
  23804413.9424   -3338917.14645  -2399763.09261
  21525430.552     3357445.690 6   2616189.96522
  23574813.372    -4356306.820 6  -3394496.19721
  23523700.317    -6122512.094 5  -4723093.85721
 91  5 14 19 37 15.0010000  0  6G18G 2G16G19G11G 6
  22974654.6614   11448977.01046   8921263.03761
  22051628.6534  -10828292.17747  -8437622.99663
  23805682.2164   -3332245.24445  -2394564.22661
  21529007.8494    3376272.93747   2630860.54062
  23576020.138    -4349979.575 6  -3389565.83821
  23518761.5994   -6148461.96146  -4743314.49161
 91  5 14 19 37 30.0010000  0  6G18G 2G16G19G11G 6
  22984416.606    11500271.471 6   8961232.67721
  22046906.0214  -10853105.89747  -8456958.32463
  23806978.380    -3325437.559 5  -2389259.57321
  21532600.5674    3395153.83547   2645572.92062
  23577248.755    -4343498.208 6  -3384515.39721
  23513827.669    -6174392.283 6  -4763519.89221
 91  5 14 19 37 45.0010000  0  6G18G 2G16G19G11G 6
  22994190.2164   11551635.05646   9001256.15361
  22042201.1464  -10877836.76347  -8476229.09163
  23808303.6924   -3318495.08145  -2383849.90161
  21536206.9894    3414087.45247   2660326.38162
  23578511.6064   -4336863.82846  -3379345.71761
  23508896.2784   -6200304.06845  -4783710.85061
 91  5 14 19 38  0.0010000  0  6G18G 2G16G19G11G 6
  23003978.3104   11603068.43146   9041334.01861
  22037509.4274  -10902484.13347  -8495434.80063
  23809650.247    -3311417.283 6  -2378334.77321
  21539817.0674    3433074.48146   2675121.45462
  23579805.4744   -4330075.81346  -3374056.32261
  23503971.1384   -6226196.79746  -4803886.97061
 91  5 14 19 38 15.0010000  0  6G18G 2G16G19G11G 6
  23013778.1774   11654571.85546   9081466.46061
  22032835.1304  -10927047.60947  -8514575.13263
  23811020.8334   -3304203.60545  -2372713.76261
  21543441.263     3452115.447 7   2689958.55822
  23581125.3644   -4323133.49046  -3368646.68561
  23499052.513    -6252069.878 6  -4824047.77221
 91  5 14 19 38 30.0010000  0  6G18G 2G16G19G11G 6
  23023593.2084   11706143.56146   9121652.11761
  22028178.6384  -10951528.57247  -8533651.16863
  23812419.3104   -3296856.09845  -2366988.46761
  21547076.3644    3471208.70946   2704836.41762
  23582477.458    -4316038.473 6  -3363118.08621
  23494128.1694   -6277924.93546  -4844194.53561
 91  5 14 19 38 45.0010000  0  6G18G 2G16G19G11G 6
  23033418.880    11757781.863 6   9161889.66621
  22023534.8024  -10975928.34647  -8552663.94463
  23813841.2554   -3289376.51645  -2361160.26061
  21550719.856     3490353.018 7   2719754.04422
  23583856.0134   -4308792.14546  -3357471.56061
  23489213.7944   -6303763.35346  -4864328.33161
 91  5 14 19 39  0.0010000  0  6G18G 2G16G19G11G 6
  23043258.3564   11809484.10146   9202177.02761
  22018906.0134  -11000249.09147  -8571615.13863
  23815290.825    -3281766.777 5  -2355230.63121
  21554369.6384    3509546.06246   2734709.65762
  23585261.0444   -4301396.80546  -3351708.92861
  23484297.4814   -6329587.46145  -4884450.97961
 91  5 14 19 39 15.0010000  0  6G18G 2G16G19G11G 6
  23053110.013    11861253.131 6   9242516.44021
  22014294.1924  -11024487.97347  -8590502.53963
  23816764.5754   -3274024.07545  -2349197.39661
  21558030.583     3528790.762 7   2749705.51222
  23586698.2244   -4293849.40846  -3345827.82361
  23479383.4354   -6355394.38446  -4904560.23661
 91  5 14 19 39 30.0010000  0  6G18G 2G16G19G11G 6
  23062973.364    11913088.549 6   9282907.57021
  22009697.4424  -11048644.95247  -8609326.12363
  23818265.208    -3266148.721 5  -2343060.79321
  21561708.1854    3548087.07746   2764741.59562
  23588162.7944   -4286150.17846  -3339828.37761
  23474477.7084   -6381184.16246  -4924656.14161
 91  5 14 19 39 45.0010000  0  6G18G 2G16G19G11G 6
  23072850.5834   11964992.44946   9323352.07761
  22005115.1144  -11072717.85747  -8628084.19463
  23819788.560    -3258138.964 5  -2336819.47521
  21565384.271     3567437.291 6   2779819.66522
  23589661.747    -4278296.915 7  -3333708.93321
  23469573.9664   -6406954.51846  -4944736.89761
 91  5 14 19 40  0.0010000  0  6G18G 2G16G19G11G 6
  23082740.677    12016960.337 6   9363846.43821
  22000550.161   -11096710.732 7  -8646779.89523
  23821336.325    -3249998.821 5  -2330476.54321
  21569081.8024    3586837.25146   2794936.51062
  23591180.6064   -4270293.60446  -3327472.55361
  23464671.411    -6432709.649 6  -4964805.78721
 91  5 14 19 40 15.0010000  0  6G18G 2G16G19G11G 6
  23092642.8724   12068991.89746   9404390.41361
  21995999.771   -11120623.530 7  -8665413.20423
  23822908.333    -3241728.356 5  -2324032.07521
  21572776.888     3606286.786 6   2810091.98622
  23592731.9744   -4262140.22546  -3321119.23361
  23459771.192    -6458449.634 6  -4984862.87921
 91  5 14 19 40 30.0010000  0  6G18G 2G16G19G11G 6
  23102553.872    12121086.130 6   9444983.22821
  21991464.239   -11144456.842 7  -8683984.57323
  23824509.396    -3233328.277 5
  21576487.466     3625785.492 6   2825285.76422
  23594312.6924   -4253837.44146
  23454875.396    -6484175.257 6  -5004908.76521
 91  5 14 19 40 45.0010000  0  6G18G 2G16G19G11G 6
  23112480.5994   12173244.96846   9485626.38161
  21986944.708   -11168208.619 7  -8702492.41223
  23826132.099    -3224796.486 5
  21580207.0674    3645335.33946   2840519.40462
  23595919.6384   -4245383.16346
  23449985.5054   -6509884.26746  -5024941.72961
 91  5 14 19 41  0.0010000  0  6G18G 2G16G19G11G 6
  23122419.692    12225472.869 6   9526323.35021
  21982440.9744  -11191874.36047  -8720933.21063
  23827781.349    -3216128.503 5
  21583940.7554    3664941.08646   2855796.59862
  23597559.5754   -4236772.98646
  23445096.771    -6535572.249 6  -5044958.28421
 91  5 14 19 41 15.0010000  0  6G18G 2G16G19G11G 6
  23132370.114    12277768.573 6   9567073.13521
  21977954.3254  -11215454.94847  -8739307.65763
  23829458.0834   -3207325.95545
  21587678.442     3684601.657 6   2871116.51522
  23599225.4744   -4228007.95846
  23440212.224    -6561240.250 6  -5064959.27621
 91  5 14 19 41 30.0010000  0  6G18G 2G16G19G11G 6
  23142334.153    12330129.303 6   9607873.60821
  21973482.4744  -11238952.62447  -8757617.49763
  23831154.146    -3198390.982 5
  21591437.3414    3704314.74046   2886477.34262
  23600925.3884   -4219090.38146
  23435335.622    -6586890.540 6  -5084946.46821
 91  5 14 19 41 45.0010000  0  6G18G 2G16G19G11G 6
  23152312.208    12382556.326 6   9648725.72721
  21969026.4504  -11262366.11147  -8775861.73663
  23832883.5054   -3189322.43245
  21595196.0604    3724081.83647   2901880.26962
  23602651.3564   -4210018.79546
  23430454.5444   -6612521.74046  -5104918.78061
 91  5 14 19 42  0.0010000  0  6G18G 2G16G19G11G 6
  23162299.8964   12435047.86246   9689628.12461
  21964587.2864  -11285696.93047  -8794041.56363
  23834629.786    -3180122.290 5
  21598966.450     3743901.265 6   2917323.96822
  23604407.8804   -4200794.89846
  23425582.067    -6638135.631 6  -5124877.61121
 91  5 14 19 42 15.0010000  0  6G18G 2G16G19G11G 6
  23172300.8964   12487604.66646   9730581.38861
  21960164.7084  -11308943.78847  -8812155.96563
  23836409.919    -3170789.402 5
  21602748.372     3763774.376 7   2932809.49422
  23606189.1224   -4191417.43846
  23420708.942    -6663730.930 6  -5144821.95221
 91  5 14 19 42 30.0010000  0  6G18G 2G16G19G11G 6
  23182315.146    12540226.658 6   9771585.43021
  21955755.0754  -11332106.64747  -8830204.90463
  23838210.388    -3161323.553 5
  21606540.5834    3783701.23246   2948336.90962
  23608004.3494   -4181886.37546
  23415843.0444   -6689307.53046  -5164751.73661
 91  5 14 19 42 45.0010000  0  6G18G 2G16G19G11G 6
  23192341.1224   12592911.35446   9812638.34161
  21951363.2394  -11355187.99647  -8848190.32863
  23840034.802    -3151727.420 5  -2253901.95021
  21610337.614     3803679.481 6   2963904.36522
  23609845.4424   -4172204.17246  -3251038.85761
  23410976.9354   -6714867.85346  -5184668.82761
 91  5 14 19 43  0.0010000  0  6G18G 2G16G19G11G 6
  23202379.091    12645657.634 6   9853739.22921
  21946986.6144  -11378188.15947  -8866112.49663
  23841887.599    -3142001.825 5  -2246323.61921
  21614155.435     3823708.482 6   2979511.35922
  23611715.5444   -4162371.48546  -3243376.99061
  23406118.106    -6740412.547 6  -5204573.73321
 91  5 14 19 43 15.0010000  0  6G18G 2G16G19G11G 6
  23212427.356    12698469.063 6   9894890.88021
  21942625.4894  -11401103.61847  -8883968.65963
  23843764.2784   -3132143.08245  -2238641.51961
  21617974.966     3843791.780 6   2995160.67022
  23613617.778    -4152384.545 6  -3235594.92521
  23401260.239    -6765938.006 6  -5224463.65821
 91  5 14 19 43 30.0010000  0  6G18G 2G16G19G11G 6
  23222490.5834   12751347.14846   9936094.48061
  21938283.356   -11423932.420 7  -8901757.29623
  23845666.880    -3122149.904 5  -2230854.67421
  21621808.185     3863931.303 6   3010853.79022
  23615548.7944   -4142241.68646  -3227691.37161
  23396403.5834   -6791442.42546  -5244337.18661
 91  5 14 19 43 45.0010000  0  6G18G 2G16G19G11G 6
  23232565.481    12804288.423 6   9977347.30421
  21933953.8494  -11446677.67647  -8919480.83763
  23847590.106    -3112025.059 5  -2222965.23621
  21625648.677     3884123.991 6   3026588.34522
  23617506.7394   -4131946.05946  -3219668.77361
  23391555.2714   -6816928.98746  -5264196.81361
 91  5 14 19 44  0.0010000  0  6G18G 2G16G19G11G 6
  23242652.4114   12857295.85946  10018651.69961
  21929640.8644  -11469336.27947  -8937136.85663
  23849543.6854   -3101765.81245  -2214971.05661
  21629507.4194    3904372.94046   3042366.73663
  23619496.7864   -4121494.57846  -3211524.72261
  23386710.817    -6842394.497 6  -5284040.01621
 91  5 14 19 44 15.0010000  0  6G18G 2G16G19G11G 6
  23252751.841    12910365.787 6  10060004.79621
  21925345.9354  -11491911.52047  -8954727.92363
  23851520.403    -3091375.687 5  -2206874.89621
  21633365.536     3924674.991 6   3058186.50622
  23621511.6854   -4110890.53646  -3203261.79461
  23381871.3964   -6867842.34246  -5303869.46961
 91  5 14 19 44 30.0010000  0  6G18G 2G16G19G11G 6
  23262862.1064   12963500.33846  10101408.25261
  21921065.4274  -11514401.11247  -8972252.25363
  23853524.185    -3080852.294 5  -2198674.89321
  21637244.0914    3945032.38546   3074049.39662
  23623562.0604   -4100131.54846  -3194878.14361
  23377031.0134   -6893270.15446  -5323683.31161
 91  5 14 19 44 45.0010000  0  6G18G 2G16G19G11G 6
  23272985.2244   13016696.82146  10142859.95361
  21916801.5994  -11536807.33247  -8989711.61463
  23855552.6224   -3070198.41346  -2190373.22461
  21641122.7864    3965442.85446   3089953.64962
  23625636.1464   -4089220.15146  -3186375.71961
  23372195.3334   -6918680.38446  -5343483.45361
 91  5 14 19 45  0.0010000  0  6G18G 2G16G19G11G 6
  23283119.591    13069955.262 6  10184359.92321
  21912554.0994  -11559129.73447  -9007105.66163
  23857605.5054   -3059413.79045  -2181969.65161
  21645019.2394    3985906.59546   3105899.41862
  23627742.638    -4078156.005 6  -3177754.26821
  23367364.0754   -6944072.68946  -5363269.62561
 91  5 14 19 45 15.0010000  0  6G18G 2G16G19G11G 6
  23293267.9814   13123276.64346  10225908.92961
  21908322.0134  -11581367.36447  -9024433.65463
  23859682.4274   -3048497.55845  -2173463.54261
  21648920.185     4006424.732 6   3121887.56622
  23629876.153    -4066938.123 6  -3169013.02421
  23362536.606    -6969446.096 6  -5383041.07421
 91  5 14 19 45 30.0010000  0  6G18G 2G16G19G11G 6
  23303425.841    13176658.768 6  10267505.27821
  21904106.5214  -11603522.21747  -9041697.13663
  23861781.669    -3037451.847 5  -2164856.54621
  21652842.4274    4026995.32746   3137916.58662
  23632041.724    -4055568.571 6  -3160153.59021
  23357707.4354   -6994802.51846  -5402799.29561
 91  5 14 19 45 45.0010000  0  6G18G 2G16G19G11G 6
  23313594.5054   13230098.06746  10309146.19261
  21899906.9584  -11625597.15047  -9058898.34463
  23863907.6854   -3026279.83245  -2156151.12561
  21656758.794     4047615.503 6   3153984.24622
  23634233.2314   -4044050.35546  -3151178.31861
  23352887.4664   -7020145.09546  -5422546.70661
 91  5 14 19 46  0.0010000  0  6G18G 2G16G19G11G 6
  23323775.2314   13283599.93146  10350835.85061
  21895721.2314  -11647586.88247  -9076033.16363
  23866059.817    -3014976.105 5  -2147343.08121
  21660700.3884    4068290.59446   3170094.68462
  23636452.9034   -4032377.94546  -3142082.89961
  23348066.6464   -7045468.25946  -5442279.01761
 91  5 14 19 46 15.0010000  0  6G18G 2G16G19G11G 6
  23333968.935    13337163.283 6  10392573.42021
  21891554.5444  -11669492.05847  -9093102.10263
  23868234.630    -3003542.065 5  -2138433.50121
  21664638.716     4089019.753 6   3186247.27222
  23638704.5214   -4020552.50446  -3132868.23061
  23343249.3724   -7070773.07246  -5461997.01361
 91  5 14 19 46 30.0010000  0  6G18G 2G16G19G11G 6
  23344172.091    13390784.878 6  10434356.37421
  21887401.5914  -11691315.73147  -9110107.52763
  23870435.192    -2991980.514 5  -2129424.54521
  21668597.661     4109800.164 6   3202439.78022
  23640984.513    -4008576.895 6  -3123536.53921
  23338436.528    -7096062.259 6  -5481702.83221
 91  5 14 19 46 45.0010000  0  6G18G 2G16G19G11G 6
  23354388.3254   13444463.60346  10476183.84561
  21883261.6694  -11713058.76747  -9127050.11663
  23872659.4424   -2980292.10945  -2120316.75961
  21672562.606     4130631.071 7   3218671.64222
  23643289.2554   -3996451.86946  -3114088.43061
  23333626.364    -7121336.715 6  -5501397.16321
 91  5 14 19 47  0.0010000  0  6G18G 2G16G19G11G 6
  23364613.5674   13498201.43946  10518057.36061
  21879141.8884  -11734718.77947  -9143928.00763
  23874908.099    -2968475.345 5  -2111108.94521
  21676528.622     4151514.591 6   3234944.49723
  23645627.114    -3984175.342 6  -3104522.25721
  23328823.653    -7146594.272 6  -5521078.33921
 91  5 14 19 47 15.0010000  0  6G18G 2G16G19G11G 6
  23374851.278    13551996.459 6  10559975.43321
  21875034.7474  -11756297.33147  -9160742.42863
  23877180.4424   -2956531.69245  -2101802.25161
  21680519.208     4172449.029 7   3251257.02722
  23647992.153    -3971749.028 6  -3094839.36221
  23324023.997    -7171836.595 6  -5540747.63121
 91  5 14 19 47 30.0010000  0  6G18G 2G16G19G11G 6
  23385097.864    13605848.527 6  10601937.98121
  21870943.8884  -11777794.44547  -9177493.39163
  23879477.505    -2944461.681 5  -2092397.11121
  21684508.3804    4193434.47846   3267609.31062
  23650383.872    -3959172.883 6  -3085039.73221
  23319217.4744   -7197063.59346  -5560404.98561
 91  5 14 19 47 45.0010000  0  6G18G 2G16G19G11G 6
  23395356.685    13659758.819 6  10643945.88521
  21866869.0994  -11799208.62047  -9194179.72863
  23881800.6064   -2932263.80045  -2082892.30261
  21688511.302     4214472.677 6   3284002.69822
  23652806.942    -3946445.614 6  -3075122.32721
  23314418.5284   -7222273.81746  -5580049.26461
 91  5 14 19 48  0.0010000  0  6G18G 2G16G19G11G 6
  23405628.169    13713729.615 6  10686000.93521
  21862809.9114  -11820537.38347  -9210799.51163
  23884147.7084   -2919935.81845  -2073286.12161
  21692529.005     4235566.104 6   3300439.11922
  23655255.9974   -3933564.76846  -3065085.26561
  23309627.122    -7247464.817 6  -5599678.57821
 91  5 14 19 48 15.0010000  0  6G18G 2G16G19G11G 6
  23415908.567    13767760.518 6  10728102.83521
  21858766.7394  -11841780.82047  -9227352.80363
  23886517.528    -2907477.522 5  -2063578.41221
  21696550.833     4256714.476 6   3316918.35622
  23657739.239    -3920530.581 6  -3054928.71321
  23304838.481    -7272636.785 6  -5619293.05221
 91  5 14 19 48 30.0010000  0  6G18G 2G16G19G11G 6
  23426203.0284   13821851.73946  10770251.72761
  21854742.0444  -11862938.37347  -9243839.17863
  23888912.591    -2894889.003 5  -2053769.23021
  21700586.817     4277918.559 6   3333441.00422
  23660246.786    -3907342.410 6  -3044652.17221
  23300048.9894   -7297789.08946  -5638892.21861
 91  5 14 19 48 45.0010000  0  6G18G 2G16G19G11G 6
  23436507.528    13876002.766 6  10812447.21721
  21850731.0364  -11884010.12747  -9260258.69163
  23891331.1464   -2882170.49245  -2043858.75261
  21704632.466     4299178.135 6   3350006.88722
  23662783.763    -3894000.437 6  -3034255.78721
  23295270.872    -7322921.860 6  -5658476.14921
 91  5 14 19 49  0.0010000  0  6G18G 2G16G19G11G 6
  23446823.802    13930212.434 6  10854688.39421
  21846737.3564  -11904997.21347  -9276612.22963
  23893776.5214   -2869323.32945  -2033848.02561
  21708691.294     4320492.169 6   3366615.21022
  23665353.4354   -3880505.82146  -3023740.46461
  23290486.2084   -7348036.22246  -5678045.74361
 91  5 14 19 49 15.0010000  0  6G18G 2G16G19G11G 6
  23457151.0054   13984480.11346  10896974.77261
  21842760.7554  -11925900.10047  -9292900.15663
  23896243.6774   -2856348.11245  -2023737.51261
  21712754.4114    4341860.16146   3383265.58262
  23667951.138    -3866859.195 6  -3013106.68921
  23285713.872    -7373132.716 6  -5697601.41021
 91  5 14 19 49 30.0010000  0  6G18G 2G16G19G11G 6
  23467488.599    14038807.236 6  10939307.47621
  21838797.0914  -11946716.75147  -9309120.88863
  23898739.489    -2843243.156 5  -2013525.91921
  21716833.708     4363284.163 6   3399959.59322
  23670575.981    -3853058.599 6  -3002352.93621
  23280942.0994   -7398209.35246  -5717141.58761
 91  5 14 19 49 45.0010000  0  6G18G 2G16G19G11G 6
  23477837.3804   14093193.10046  10981685.95161
  21834854.0994  -11967447.75847  -9325274.87963
  23901259.755    -2830009.167 5  -2003213.76721
  21720920.974     4384763.668 7   3416696.85222
  23673232.3564   -3839104.58046  -2991479.64661
  23276171.5214   -7423266.69246  -5736666.72661
 91  5 14 19 50  0.0010000  0  6G18G 2G16G19G11G 6
  23488198.747    14147638.950 6  11024111.16021
  21830925.0444  -11988091.48347  -9341360.86763
  23903798.591    -2816644.648 5  -1992799.91021
  21725014.802     4406300.080 7   3433478.45722
  23675918.481    -3824995.795 6  -2980485.74321
  23271411.4504   -7448303.26746  -5756175.71261
 91  5 14 19 50 15.0010000  0  6G18G 2G16G19G11G 6
  23498568.630    14202142.368 6  11066581.24221
  21827010.9664  -12008650.50347  -9357380.84763
  23906369.2394   -2803152.27345  -1982286.41361
  21729125.802     4427891.187 7   3450302.68122
  23678633.9274   -3810734.75946  -2969373.21461
  23266647.9974   -7473321.47646  -5775670.39061
 91  5 14 19 50 30.0010000  0  6G18G 2G16G19G11G 6
  23508952.9894   14256701.60446  11109094.80861
  21823116.317   -12029126.008 7  -9373335.74523
  23908960.317    -2789533.294 5  -1971674.27921
  21733244.130     4449535.640 7   3467168.47422
  23681372.3104   -3796322.76446  -2958143.05361
  23261890.028    -7498322.441 6  -5795151.61921
 91  5 14 19 50 45.0010000  0  6G18G 2G16G19G11G 6
  23519343.3494   14311315.60646  11151651.07261
  21819237.771   -12049518.690 7  -9389226.10023
  23911577.599    -2775789.032 5  -1960964.51621
  21737371.388     4471232.833 7   3484075.35922
  23684144.2864   -3781760.65146  -2946795.92361
  23257134.6774   -7523307.03246  -5814620.08761
 91  5 14 19 51  0.0010000  0  6G18G 2G16G19G11G 6
  23529749.1614   14365982.99346  11194248.91261
  21815369.7084  -12069829.63347  -9405052.77463
  23914218.8104   -2761920.48645  -1950157.91061
  21741514.575     4492981.569 7   3501022.40922
  23686942.6924   -3767049.60446  -2935332.74961
  23252382.528    -7548276.342 6  -5834076.64021
 91  5 14 19 51 15.0010000  0  6G18G 2G16G19G11G 6
  23540160.974    14420702.546 6  11236887.40821
  21811520.2714  -12090059.93947  -9420816.60763
  23916876.106    -2747929.161 5  -1939255.62021
  21745658.958     4514780.918 7   3518008.90022
  23689772.302    -3752190.763 6  -2923754.41121
  23247637.2784   -7573231.48346  -5853522.16661
 91  5 14 19 51 30.0010000  0  6G18G 2G16G19G11G 6
  23550582.9664   14475476.12146  11279567.96061
  21807686.4744  -12110207.39647  -9436515.89163
  23919566.2554   -2733812.87945  -1928255.98561
  21749816.849     4536633.050 7   3535036.51322
  23692627.927    -3737181.974 6  -2912059.23421
  23242891.0054   -7598170.27046  -5872954.94661
 91  5 14 19 51 45.0010000  0  6G18G 2G16G19G11G 6
  23561017.4894   14530302.60346  11322289.79161
  21803867.7944  -12130272.87447  -9452151.29063
  23922275.0834   -2719572.58045  -1917159.68361
  21753984.763     4558537.185 7   3552104.65422
  23695512.8414   -3722024.12346  -2900247.90861
  23238147.239    -7623093.434 6  -5892375.54221
 91  5 14 19 52  0.0010000  0  6G18G 2G16G19G11G 6
  23571461.388    14585183.517 6  11365053.97721
  21800065.8724  -12150254.58947  -9467721.41963
  23925008.099    -2705206.925 5  -1905965.71921
  21758170.794     4580494.933 6   3569214.57322
  23698425.1924   -3706715.74946  -2888319.30161
  23233408.6774   -7647999.59346  -5911782.89661
 91  5 14 19 52 15.0010000  0  6G18G 2G16G19G11G 6
  23581915.935    14640115.411 6  11407857.92221
  21796279.2164  -12170155.61147  -9483228.67863
  23927764.560    -2690719.153 5  -1894676.59521
  21762353.021     4602503.208 7   3586363.86422
  23701364.013    -3691259.996 6  -2876275.83421
  23228669.5754   -7672891.50846  -5931179.14761
 91  5 14 19 52 30.0010000  0  6G18G 2G16G19G11G 6
  23592376.9424   14695097.60346  11450701.07461
  21792509.286   -12189976.144 7  -9498673.21023
  23930542.341    -2676109.569 5  -1883292.56321
  21766557.263     4624561.886 6   3603552.43122
  23704335.200    -3675657.139 6  -2864117.74821
  23223938.3024   -7697769.59646  -5950564.61761
 91  5 14 19 52 45.0010000  0  6G18G 2G16G19G11G 6
  23602849.7244   14750132.14046  11493585.00661
  21788750.825   -12209714.226 7  -9514053.48223
  23933352.013    -2661376.542 6  -1871812.34321
  21770757.716     4646673.212 7   3620782.01722
  23707332.9194   -3659905.13646  -2851843.45261
  23219205.872    -7722631.689 6  -5969937.63721
 91  5 14 19 53  0.0010000  0  6G18G 2G16G19G11G 6
  23613333.341    14805216.008 6  11536507.36221
  21785010.5754  -12229372.72847  -9529371.75563
  23936176.1534   -2646522.87645  -1860238.08761
  21774975.896     4668834.202 6   3638050.30422
  23710359.4114   -3644007.01446  -2839455.29261
  23214477.497    -7747480.673 6  -5989300.43321
 91  5 14 19 53 15.0010000  0  6G18G 2G16G19G11G 6
  23623823.099    14860348.737 6  11579467.83921
  21781285.3334  -12248951.50447  -9544627.90563
  23939022.0054   -2631549.06345  -1848570.23961
  21779200.130     4691044.937 7   3655357.35122
  23713410.942    -3627962.771 6  -2826953.27421
  23209751.474    -7772316.395 6  -6008652.88421
 91  5 14 19 53 30.0010000  0  6G18G 2G16G19G11G 6
  23634324.6854   14915532.48646  11622468.01361
  21777575.0994  -12268448.46347  -9559820.30663
  23941896.169    -2616452.731 5  -1836806.92921
  21783439.6614    4713307.86946   3672705.08162
  23716493.474    -3611770.256 6  -2814335.71321
  23205026.1854   -7797136.73446  -6027993.37661
 91  5 14 19 53 45.0010000  0  6G18G 2G16G19G11G 6
  23644835.825    14970769.549 6  11665509.77121
  21773880.0054  -12287860.88647  -9574946.83863
  23944794.5214   -2601231.89945  -1824946.60261
  21787681.724     4735625.446 6   3690095.37922
  23719602.6384   -3595427.08846  -2801600.78161
  23200307.302    -7821939.221 6  -6047319.94221
 91  5 14 19 54  0.0010000  0  6G18G 2G16G19G11G 6
  23655357.4194   15026057.53046  11708591.17761
  21770202.2474  -12307190.77147  -9590009.05063
  23947713.8964   -2585888.66045  -1812990.87961
  21791946.567     4757995.499 6   3707526.56922
  23722740.653    -3578935.476 6  -2788750.16821
  23195586.513    -7846725.887 6  -6066634.17221
 91  5 14 19 54 15.0010000  0  6G18G 2G16G19G11G 6
  23665887.8724   15081391.66046  11751708.54761
  21766538.2474  -12326442.60547  -9605010.44063
  23950656.1924   -2570427.59145  -1800943.35761
  21796209.341     4780413.563 7   3724995.17122
  23725906.3804   -3562299.91546  -2775787.38561
  23190876.028    -7871501.184 6  -6085939.55521
 91  5 14 19 54 30.0010000  0  6G18G 2G16G19G11G 6
  23676427.1464   15136777.04446  11794865.84061
  21762890.6924  -12345611.04847  -9619946.85363
  23953622.903    -2554843.399 5  -1788799.88821
  21800487.036     4802885.451 6   3742505.70722
  23729099.8564   -3545514.92246  -2762708.15861
  23186165.169    -7896259.487 6  -6105231.70021
 91  5 14 19 54 45.0010000  0  6G18G 2G16G19G11G 6
  23686977.153    15192211.934 6  11838061.74321
  21759257.5214  -12364697.77547  -9634819.58663
  23956609.724    -2539138.083 5  -1776562.03321
  21804771.544     4825409.325 7   3760056.76622
  23732322.9114   -3528582.23946  -2749513.85461
  23181457.888    -7921002.468 6  -6124511.89621
 91  5 14 19 55  0.0010000  0  6G18G 2G16G19G11G 6
  23697534.9354   15247697.96146  11881297.46561
  21755642.6304  -12383700.74947  -9649627.06563
  23959622.8564   -2523309.80845  -1764228.34561
  21809066.560     4847987.245 6   3777649.93022
  23735571.7394   -3511500.05946  -2736203.06561
  23176753.2554   -7945728.22646  -6143778.64861
 91  5 14 19 55 15.0010000  0  6G18G 2G16G19G11G 6
  23708103.6224   15303234.90046  11924572.88861
  21752043.2164  -12402619.79247  -9664369.14163
  23962658.294    -2507358.788 5  -1751799.03421
  21813371.708     4870619.215 7   3795285.21522
  23738851.9034   -3494268.58646  -2722775.94161
  23172049.036    -7970436.709 6  -6163031.96521
 91  5 14 19 55 30.0010000  0  6G18G 2G16G19G11G 6
  23718680.6924   15358820.07246  11967885.86561
  21748458.1064  -12421457.34347  -9679047.71663
  23965716.630    -2491287.382 5  -1739275.92121
  21817691.114     4893302.989 6   3812960.86622
  23742157.536    -3476889.993 6  -2709234.17221
  23167346.833    -7995130.405 6  -6182273.76621
 91  5 14 19 55 45.0010000  0  6G18G 2G16G19G11G 6
  23729267.0674   15414453.99646  12011236.86361
  21744889.7864  -12440212.78747  -9693662.31363
  23968796.4974   -2475095.20345  -1726658.68561
  21822020.099     4916039.095 7   3830677.28722
  23745493.5994   -3459363.97446  -2695577.53861
  23162650.2864   -8019808.48046  -6201503.39461
 91  5 14 19 56  0.0010000  0  6G18G 2G16G19G11G 6
  23739862.825    15470134.878 6  12054624.41421
  21741335.0754  -12458887.71747  -9708214.17363
  23971901.802    -2458784.295 5  -1713948.94521
  21826354.677     4938826.011 6   3848433.30422
  23748858.3884   -3441692.21346  -2681807.32861
  23157961.4814   -8044472.61246  -6220722.15261
 91  5 14 19 56 15.0010000  0  6G18G 2G16G19G11G 6
  23750468.310    15525865.316 6  12098050.59021
  21737796.3174  -12477479.01647  -9722700.86163
  23975030.513    -2442351.944 5  -1701144.57021
  21830702.825     4961666.883 7   3866231.36622
  23752249.4424   -3423871.77746  -2667921.26961
  23153273.271    -8069119.793 6  -6239927.70821
 91  5 14 19 56 30.0010000  0  6G18G 2G16G19G11G 6
  23761081.9664   15581643.79246  12141514.20861
  21734274.2554  -12495988.14547  -9737123.52763
  23978177.771    -2425799.435 5  -1688246.55521
  21835060.528     4984560.480 6   3884070.50822
  23755665.0674   -3405904.08146  -2653920.47861
  23148585.661    -8093751.306 6  -6259121.03721
 91  5 14 19 56 45.0010000  0  6G18G 2G16G19G11G 6
  23771706.3174   15637469.20846  12185014.37761
  21730766.7394  -12514415.92247  -9751482.79963
  23981350.138    -2409127.908 5  -1675255.80721
  21839426.4194    5007505.87446   3901950.01562
  23759113.8494   -3387790.13346  -2639805.71361
  23143898.997    -8118367.893 6  -6278302.74821
 91  5 14 19 57  0.0010000  0  6G18G 2G16G19G11G 6
  23782338.9664   15693341.78646  12228551.33461
  21727276.4744  -12532761.71547  -9765778.17763
  23984547.239    -2392336.949 5  -1662171.98821
  21843802.255     5030503.708 6   3919870.37722
  23762588.833    -3369529.310 6  -2625576.51321
  23139216.997    -8142969.181 6  -6297472.52721
 91  5 14 19 57 15.0010000  0  6G18G 2G16G19G11G 6
  23792981.0604   15749262.85046  12272126.03461
  21723799.6694  -12551024.16647  -9780008.62263
  23987767.333    -2375425.037 5  -1648993.92621
  21848185.067     5053555.574 7   3937832.85622
  23766089.8724   -3351120.31046  -2611231.83861
  23134541.474    -8167553.421 6  -6316629.03221
 91  5 14 19 57 30.0010000  0  6G18G 2G16G19G11G 6
  23803631.4114   15805229.44446  12315736.25461
  21720342.013   -12569205.780 7  -9794176.07123
  23991005.880    -2358395.304 5  -1635724.05021
  21852583.435     5076658.744 6   3955835.29522
  23769623.1464   -3332565.89646  -2596773.85661
  23129862.7634   -8192123.49946  -6335774.50461
 91  5 14 19 57 45.0010000  0  6G18G 2G16G19G11G 6
  23814290.341    15861245.606 6  12359385.05921
  21716898.2714  -12587302.36647  -9808277.26963
  23994269.567    -2341243.585 5  -1622359.12121
  21856987.661     5099817.721 7   3973881.23422
  23773179.4034   -3313861.87346  -2582199.29561
  23125189.513    -8216674.889 6  -6354905.40721
 91  5 14 19 58  0.0010000  0  6G18G 2G16G19G11G 6
  23824958.474    15917308.681 6  12403070.46621
  21713469.997   -12605316.084 7  -9822313.89423
  23997556.5444   -2323972.29545  -1608901.03561
  21861408.614     5123030.051 6   3991968.74322
  23776768.2784   -3295010.64446  -2567510.01661
  23120523.794    -8241209.905 6  -6374023.54921
 91  5 14 19 58 15.0010000  0  6G18G 2G16G19G11G 6
  23835636.4424   15973419.28946  12446792.86361
  21710058.888   -12623246.044 7  -9836285.24723
  24000867.169    -2306580.864 5  -1595349.31921
  21865828.106     5146296.714 7   4010098.57822
  23780386.5754   -3276011.48146  -2552705.47561
  23115855.739    -8265727.705 6  -6393128.28621
 91  5 14 19 58 30.0010000  0  6G18G 2G16G19G11G 6
  23846322.271    16029575.186 6  12490550.57021
  21706661.5444  -12641094.41447  -9850193.03363
  24004196.739    -2289071.627 5  -1581705.81021
  21870272.606     5169615.471 6   4028269.02422
  23784028.1224   -3256866.63346  -2537787.41061
  23111193.7394   -8290230.38546  -6412221.22661
 91  5 14 19 58 45.0010000  0  6G18G 2G16G19G11G 6
  23857018.2634   16085781.70146  12534347.72561
  21703281.3724  -12658855.57347  -9864032.85963
  24007554.255    -2271439.332 5  -1567966.41621
  21874720.005     5192992.151 7   4046484.60222
  23787699.0604   -3237570.56546  -2522751.51861
  23106531.208    -8314712.335 6  -6431298.02421
 91  5 14 19 59  0.0010000  0  6G18G 2G16G19G11G 6
  23867723.763    16142036.636 6  12578182.58421
  21699919.6464  -12676531.56647  -9877806.32563
  24010933.3024   -2253686.16845  -1554132.83961
  21879178.247     5216424.820 6   4064743.80122
  23791400.5914   -3218125.42246  -2507599.46061
  23101882.833    -8339175.525 6  -6450360.21021
 91  5 14 19 59 15.0010000  0  6G18G 2G16G19G11G 6
  23878437.5604   16198338.54446  12622054.08661
  21696569.7474  -12694123.25947  -9891514.10263
  24014329.7474   -2235813.43345  -1540206.09761
  21883646.052     5239912.467 7   4083045.84322
  23795127.3644   -3198532.19546  -2492332.00261
  23097230.458    -8363620.822 6  -6469408.44821
 91  5 14 19 59 30.0010000  0  6G18G 2G16G19G11G 6
  23889161.052    16254687.290 6  12665962.04021
  21693239.2864  -12711630.91247  -9905156.39263
  24017754.052    -2217821.190 5  -1526186.21021
  21888129.388     5263454.938 7   4101390.61422
  23798889.2944   -3178791.14446  -2476949.38261
  23092582.013    -8388048.424 6  -6488442.89221
 91  5 14 19 59 45.0010000  0  6G18G 2G16G19G11G 6
  23899892.794    16311086.367 5  12709909.24721
  21689924.075   -12729050.813 7  -9918730.29923
  24021203.106    -2199705.944 5  -1512070.49221
  21892616.9744    5287056.28847   4119781.24862
  23802670.4274   -3158898.82246  -2461448.86161
  23087936.755    -8412454.505 6  -6507460.56121
 91  5 14 20  0  0.0010000  0  6G18G 2G16G19G11G 6
  23910635.1854   16367535.60946  12753895.51061
  21686626.4974  -12746382.62947  -9932235.57163
  24024670.200    -2181467.786 5  -1497858.98321
  21897122.739     5310716.913 7   4138218.07622
  23806485.2784   -3138854.89546  -2445830.22661
  23083298.8804   -8436838.86346  -6526461.33461
 91  5 14 20  0 15.0010000  0  6G18G 2G16G19G11G 6
  23921385.505    16424032.745 5  12797919.10421
  21683342.6534  -12763628.26947  -9945673.69463
  24028166.9894   -2163109.18445  -1483553.65861
  21901631.763     5334434.724 7   4156699.47022
  23810328.7394   -3118661.54146  -2430095.15261
  23078657.2164   -8461203.31946  -6545446.58161
 91  5 14 20  0 30.0010000  0  6G18G 2G16G19G11G 6
  23932145.4504   16480574.05445  12841977.10261
  21680079.0754  -12780791.25947  -9959047.41163
  24031682.2394   -2144633.49045  -1469157.06261
  21906164.263     5358206.086 7   4175222.58522
  23814198.6854   -3098322.41946  -2414246.48861
  23074025.0214   -8485551.45546  -6564419.11561
 91  5 14 20  0 45.0010000  0  6G18G 2G16G19G11G 6
  23942912.083    16537160.177 5  12886070.06721
  21676828.2474  -12797870.51447  -9972355.88363
  24035217.747    -2126040.028 5  -1454668.70421
  21910693.481     5382032.020 7   4193788.22822
  23818094.560    -3077836.699 6  -2398283.59121
  23069392.794    -8509882.265 6  -6583378.14321
 91  5 14 20  1  0.0010000  0  6G18G 2G16G19G11G 6
  23953690.9034   16593790.50846  12930197.44061
  21673593.4584  -12814866.60947  -9985599.55963
  24038783.3884   -2107329.69245  -1440089.28261
  21915237.872     5405912.199 7   4212396.13322
  23822024.2474   -3057204.81246  -2382206.79661
  23064767.5674   -8534196.14946  -6602323.99061
 91  5 14 20  1 15.0010000  0  6G18G 2G16G19G11G 6
  23964472.9974   16650462.08345  12974356.98361
  21670375.0054  -12831782.17047  -9998780.48563
  24042363.380    -2088505.037 5  -1425420.78621
  21919789.919     5429843.803 7   4231044.11722
  23825973.9504   -3036429.77946  -2366018.46161
  23060147.513    -8558495.856 6  -6621258.78021
 91  5 14 20  1 30.0010000  0  6G18G 2G16G19G11G 6
  23975268.856    16707178.117 6  13018551.17321
  21667172.2244  -12848613.63947 -10011895.88163
  24045968.5444   -2069562.62845  -1410660.52061
  21924361.778     5453830.634 6   4249735.13422
  23829956.966    -3015508.001 6  -2349715.76521
  23055522.9894   -8582777.70646  -6640179.66161
 91  5 14 20  1 45.0010000  0  6G18G 2G16G19G11G 6
  23986067.185    16763938.362 5  13062779.79721
  21663984.9034  -12865361.64047 -10024946.23563
  24049594.0994   -2050503.50445  -1395809.30861
  21928930.497     5477872.329 7   4268468.90722
  23833964.1614   -2994440.06446  -2333299.18361
  23050905.6694   -8607042.02246  -6659086.88361
 91  5 14 20  2  0.0010000  0  6G18G 2G16G19G11G 6
  23996877.9034   16820740.38145  13107040.95761
  21660814.6144  -12882028.02147 -10037932.99263
  24053244.4354   -2031329.53745  -1380868.60861
  21933523.106     5501967.056 6   4287244.00422
  23838000.6534   -2973227.94046  -2316770.25261
  23046294.271    -8631290.753 6  -6677981.95421
 91  5 14 20  2 15.0010000  0  6G18G 2G16G19G11G 6
  24007693.2864   16877585.98345  13151336.09861
  21657658.1854  -12898610.83047 -10050854.62363
  24056915.950    -2012039.147 5  -1365837.18621
  21938108.411     5526116.755 7   4306061.92722
  23842066.185    -2951869.863 6  -2300127.57721
  23041680.239    -8655521.906 6  -6696863.32621
 91  5 14 20  2 30.0010000  0  6G18G 2G16G19G11G 6
  24018520.247    16934474.364 5  13195664.54321
  21654518.9814  -12915110.16347 -10063711.21063
  24060608.3724   -1992632.82945  -1350715.44361
  21942718.974     5550321.267 7   4324922.57122
  23846159.161    -2930366.263 6  -2283371.51721
  23037071.536    -8679735.557 6  -6715731.06021
 91  5 14 20  2 45.0010000  0  6G18G 2G16G19G11G 6
  24029354.231    16991403.390 5  13240024.67321
  21651393.9584  -12931527.98247 -10076504.27963
  24064322.685    -1973112.706 5  -1335505.00521
  21947333.0914    5574578.66047   4343824.42962
  23850277.638    -2908719.300 6  -2266503.73421
  23032468.692    -8703933.947 6  -6734586.91021
 91  5 14 20  3  0.0010000  0  6G18G 2G16G19G11G 6
  24040194.1224   17048372.58645  13284416.09361
  21648284.8964  -12947864.45447 -10089233.96563
  24068055.5444   -1953479.17845  -1320206.20861
  21951961.341     5598888.879 6   4362767.44022
  23854425.325    -2886929.198 6  -2249524.41821
  23027863.864    -8728116.945 6  -6753430.75721
 91  5 14 20  3 15.0010000  0  6G18G 2G16G19G11G 6
  24051042.450    17105384.290 5  13328840.64121
  21645190.8724  -12964117.18047 -10101898.39363
  24071818.1774   -1933729.99645  -1304817.30561
  21956593.333     5623254.204 7   4381753.39722
  23858599.935    -2864993.639 6  -2232431.75621
  23023266.0914   -8752282.33346  -6772260.88961
 91  5 14 20  3 30.0010000  0  6G18G 2G16G19G11G 6
  24061900.286    17162438.810 5  13373298.53121
  21642116.2474  -12980285.56047 -10114497.09863
  24075595.6224   -1913864.97045  -1289338.11961
  21961245.044     5647675.277 6   4400782.78822
  23862800.411    -2842912.224 6  -2215225.44921
  23018673.6534   -8776429.28546  -6791076.65161
 91  5 14 20  3 45.0010000  0  6G18G 2G16G19G11G 6
  24072764.935    17219533.855 5  13417788.08021
  21639054.1384  -12996371.58547 -10127031.62963
  24079399.747    -1893886.170 5  -1273770.30021
  21965899.864     5672150.103 7   4419854.06822
  23867030.903    -2820687.120 6  -2197907.17121
  23014083.1224   -8800559.83346  -6809879.64161
 91  5 14 20  4  0.0010000  0  6G18G 2G16G19G11G 6
  24083638.739    17276671.523 5  13462310.76021
  21636009.6854  -13012372.84347 -10139500.10863
  24083227.1614   -1873791.54145  -1258112.19761
  21970565.075     5696681.299 6   4438969.27322
  23871286.310    -2798316.059 6  -2180475.15121
  23009493.0134   -8824671.50646  -6828667.92161
 91  5 14 20  4 15.0010000  0  6G18G 2G16G19G11G 6
  24094520.1464   17333854.15245  13506868.53761
  21632981.3964  -13028286.88347 -10151900.62563
  24087071.5134   -1853578.88045  -1242362.13261
  21975250.286     5721271.348 7   4458130.33522
  23875572.021    -2775796.756 6  -2162927.61821
  23004907.5834   -8848761.88946  -6847439.61561
 91  5 14 20  4 30.0010000  0  6G18G 2G16G19G11G 6
  24105410.1384   17391075.27745  13551456.28561
  21629967.5834  -13044119.84047 -10164237.96363
  24090938.5364   -1833254.40945  -1226524.95861
  21979941.036     5745914.271 6   4477332.59422
  23879885.4744   -2753135.26146  -2145269.28461
  23000327.669    -8872836.881 6  -6866199.30421
 91  5 14 20  4 45.0010000  0  6G18G 2G16G19G11G 6
  24116306.4194   17448339.71045  13596077.79261
  21626971.4894  -13059866.56847 -10176508.11063
  24094831.6924   -1812813.18245  -1210596.79061
  21984638.286     5770615.225 7   4496580.07422
  23884226.497    -2730326.604 6  -2127496.28621
  22995747.7634   -8896891.37946  -6884943.03361
 91  5 14 20  5  0.0010000  0  6G18G 2G16G19G11G 6
  24127211.981    17505646.588 5  13640732.37021
  21623989.8724  -13075527.85247 -10188711.66863
  24098742.216    -1792256.099 5  -1194578.34821
  21989351.099     5795373.490 6   4515872.21622
  23888592.4894   -2707371.79246  -2109609.39361
  22991179.5754   -8920926.03846  -6903671.29861
 91  5 14 20  5 15.0010000  0  6G18G 2G16G19G11G 6
  24138126.372    17562999.978 5  13685423.14521
  21621027.2084  -13091099.53747 -10200845.41663
  24102674.4894   -1771579.35145  -1178466.66361
  21994070.763     5820193.308 6   4535212.31822
  23892987.9424   -2684266.75846  -2091605.43861
  22986604.9194   -8944936.76246  -6922380.92261
 91  5 14 20  5 30.0010000  0  6G18G 2G16G19G11G 6
  24149048.646    17620395.848 5  13730147.07221
  21618080.8724  -13106584.88047 -10212911.88263
  24106628.692    -1750786.745 5  -1162264.69821
  21998809.364     5845071.238 6   4554597.70122
  23897412.8724   -2661015.11246  -2073487.24761
  22982041.3804   -8968926.91346  -6941074.50461
 91  5 14 20  5 45.0010000  0  6G18G 2G16G19G11G 6
  24159979.4664   17677829.54645  13774900.45861
  21615150.7554  -13121988.32447 -10224914.53163
  24110609.122    -1729882.715 5  -1145975.89721
  22003552.106     5870003.108 6   4574025.12422
  23901866.6224   -2637621.32346  -2055258.28761
  22977477.177    -8992900.681 6  -6959755.32221
 91  5 14 20  6  0.0010000  0  6G18G 2G16G19G11G 6
  24170913.5524   17735302.96845  13819684.80061
  21612234.6384  -13137307.81547 -10236851.76063
  24114605.231    -1708865.440 5  -1129598.88521
  22008301.9814    5894990.79746   4593496.04062
  23906344.6224   -2614083.57346  -2036917.15561
  22972922.5214   -9016856.25346  -6978421.96161
 91  5 14 20  6 15.0010000  0  6G18G 2G16G19G11G 6
  24181858.2634   17792814.30045  13864498.64361
  21609335.6064  -13152544.99847 -10248724.85363
  24118621.888    -1687736.780 5  -1113135.06321
  22013069.646     5920032.679 7   4613009.18022
  23910850.1464   -2590403.66446  -2018465.24961
  22968367.9974   -9040794.93446  -6997075.44461
 91  5 14 20  6 30.0010000  0  6G18G 2G16G19G11G 6
  24192809.138    17850363.027 5  13909341.67021
  21606451.7554  -13167700.16347 -10260534.03563
  24122671.083    -1666497.238 5  -1096584.82221
  22017850.6614    5945128.59646   4632564.43162
  23915387.3964   -2566581.95846  -1999902.84961
  22963810.2244   -9064717.09846  -7015716.05061
 91  5 14 20  6 45.0010000  0  6G18G 2G16G19G11G 6
  24203768.8884   17907951.24945  13954215.47061
  21603583.6694  -13182771.18547 -10272277.65263
  24126734.216    -1645144.961 5  -1079946.74021
  22022630.247     5970280.957 6   4652163.65622
  23919947.411    -2542616.333 6  -1981228.32221
  22959262.153    -9088620.449 6  -7034341.99721
 91  5 14 20  7  0.0010000  0  6G18G 2G16G19G11G 6
  24214733.677    17965577.794 5  13999119.11621
  21600731.1854  -13197758.83447 -10283956.30563
  24130815.450    -1623681.113 5  -1063221.70921
  22027430.044     5995488.836 6   4671806.14122
  23924533.7004   -2518507.79946  -1962442.41561
  22954720.2864   -9112505.55646  -7052953.72761
 91  5 14 20  7 15.0010000  0  6G18G 2G16G19G11G 6
  24225708.763    18023243.809 5  14044053.55421
  21597896.4274  -13212661.50847 -10295568.74663
  24134924.9504   -1602104.31145  -1046408.68861
  22032235.724     6020753.929 6   4691493.21822
  23929148.505    -2494255.068 6  -1943544.15821
  22950179.802    -9136371.184 6  -7071550.27421
 91  5 14 20  7 30.0010000  0  6G18G 2G16G19G11G 6
  24236689.716    18080949.553 5  14089018.92821
  21595077.3414  -13227479.09447 -10307114.88563
  24139053.5994   -1580414.50145  -1029507.60261
  22037061.021     6046076.576 6   4711225.13522
  23933790.8964   -2469858.04946  -1924533.46761
  22945638.497    -9160216.995 6  -7090131.38521
 91  5 14 20  7 45.0010000  0  6G18G 2G16G19G11G 6
  24247678.3104   18138692.24846  14134013.08461
  21592271.3884  -13242213.73447 -10318596.38663
  24143202.833    -1558614.477 5  -1012520.62221
  22041886.802     6071454.363 6   4731000.01922
  23938457.302    -2445319.196 6  -1905412.25321
  22941103.450    -9184045.039 6  -7108698.64921
 91  5 14 20  8  0.0010000  0  6G18G 2G16G19G11G 6
  24258672.6924   18196469.33345  14179034.04361
  21589483.4274  -13256867.87547 -10330015.15963
  24147370.544    -1536706.418 5   -995449.47921
  22046726.2634    6096885.06946   4750816.14262
  23943158.755    -2420640.843 6  -1886182.36121
  22936574.052    -9207857.663 6  -7127253.89821
 91  5 14 20  8 15.0010000  0  6G18G 2G16G19G11G 6
  24269674.8644   18254285.32645  14224085.36761
  21586712.1694  -13271436.80047 -10341367.52963
  24151555.810    -1514686.094 5   -978290.82721
  22051573.411     6122373.435 6   4770677.19422
  23947878.802    -2395818.499 6  -1866840.25521
  22932045.5214   -9231649.99346  -7145793.34061
 91  5 14 20  8 30.0010000  0  6G18G 2G16G19G11G 6
  24280683.1854   18312135.53845  14269163.28761
  21583953.552   -13285925.057 7 -10352657.04023
  24155770.208    -1492558.129 5   -961048.33721
  22056436.099     6147915.116 6   4790579.77622
  23952629.099    -2370856.902 6  -1847389.63721
  22927520.708    -9255426.729 6  -7164320.62721
 91  5 14 20  8 45.0010000  0  6G18G 2G16G19G11G 6
  24291700.302    18370022.626 5  14314269.93421
  21581213.5214  -13300329.66647 -10363881.37763
  24160006.7784   -1470319.71945   -943719.76961
  22061303.5214    6173513.26947   4810526.38062
  23957408.3564   -2345753.16946  -1827828.26261
  22923002.9814   -9279184.74046  -7182833.31861
 91  5 14 20  9  0.0010000  0  6G18G 2G16G19G11G 6
  24302721.9974   18427948.35845  14359406.71361
  21578488.2784  -13314648.46647 -10375038.84863
  24164254.8804   -1447969.02745   -926303.74261
  22066192.442     6199169.949 6   4830518.58422
  23962211.9034   -2320505.33946  -1808154.62461
  22918484.036    -9302921.866 6  -7201329.74421
 91  5 14 20  9 15.0020000  0  6G18G 2G16G19G11G 6
  24313754.0884   18485917.67745  14404577.48661
  21575778.1974  -13328881.20447 -10386129.25363
  24168532.0644   -1425503.67145   -908798.32761
  22071083.752     6224888.075 7   4850558.65922
  23967043.158    -2295110.678 6  -1788366.54821
  22913971.0254   -9326638.22046  -7219809.97861
 91  5 14 20  9 30.0020000  0  6G18G 2G16G19G11G 6
  24324791.1354   18543922.38645  14449775.81861
  21573086.5414  -13343026.25247 -10397151.33263
  24172830.2214   -1402927.17845   -891206.33261
  22075993.572     6250664.026 6   4870643.80422
  23971902.104    -2269572.999 6  -1768467.03421
  22909460.6354   -9350330.98346  -7238271.82861
 91  5 14 20  9 45.0020000  0  6G18G 2G16G19G11G 6
  24335835.7754   18601964.51745  14495003.30961
  21570412.8934  -13357085.71747 -10408106.72663
  24177143.2054   -1380239.78645   -873527.90961
  22080902.557     6276498.169 7   4890774.28422
  23976790.346    -2243892.241 6  -1748456.05021
  22904957.424    -9374003.188 6  -7256717.65321
 91  5 14 20 10  0.0020000  0  6G18G 2G16G19G11G 6
  24346888.0334   18660042.94845  14540259.05461
  21567752.9944  -13371060.69047 -10418996.27663
  24181479.846    -1357442.595 5   -855763.94621
  22085834.846     6302389.433 6
  23981704.674    -2218069.502 6
  22900455.244    -9397655.653 6  -7275148.10821
 91  5 14 20 10 15.0020000  0  6G18G 2G16G19G11G 6
  24357948.533    18718155.906 5  14585541.77821
  21565109.2604  -13384952.79347 -10429821.25563
  24185842.799    -1334537.559 5   -837915.94421
  22090768.236     6328336.419 6
  23986645.979    -2192106.395 6
  22895961.1274   -9421289.94046  -7293564.39961
 91  5 14 20 10 30.0020000  0  6G18G 2G16G19G11G 6
  24369014.189    18776306.174 5  14630853.51421
  21562482.4004  -13398758.93347 -10440579.25263
  24190222.4004   -1311521.56545   -819981.45261
  22095721.971     6354342.543 6   4951432.19422
  23991614.1044   -2166000.00046  -1687760.73661
  22891465.783    -9444902.718 6  -7311963.92421
 91  5 14 20 10 45.0020000  0  6G18G 2G16G19G11G 6
  24380085.6584   18834488.72745  14676190.39461
  21559870.4554  -13412484.03247 -10451274.09963
  24194620.861    -1288399.820 5   -801964.60021
  22100678.5724    6380402.90346   4971738.96362
  23996606.3614   -2139755.37746  -1667310.36961
  22886976.783    -9468498.884 6  -7330350.50421
 91  5 14 20 11  0.0020000  0  6G18G 2G16G19G11G 6
  24391163.057    18892705.349 5  14721553.86021
  21557273.4004  -13426126.03047 -10461904.19363
  24199040.807    -1265170.458 5   -783863.86621
  22105650.596     6406519.374 6   4992089.44522
  24001628.080    -2113370.734 6  -1646750.89021
  22882487.4634   -9492076.31946  -7348722.49261
 91  5 14 20 11 15.0020000  0  6G18G 2G16G19G11G 6
  24402248.518    18950957.744 5  14766945.20321
  21554694.7604  -13439682.52947 -10472467.66163
  24203480.5494   -1241831.52445   -765677.75261
  22110627.2914    6432694.36246   5012485.54162
  24006677.1584   -2086844.03446  -1626080.73261
  22878003.924    -9515632.647 6  -7367078.03021
 91  5 14 20 11 30.0020000  0  6G18G 2G16G19G11G 6
  24413340.268    19009246.267 5  14812364.65721
  21552130.5574  -13453153.52247 -10482964.49663
  24207946.6274   -1218383.28945   -747406.48361
  22115623.502     6458928.047 6   5032927.35322
  24011752.229    -2060175.327 6  -1605299.90521
  22873525.674    -9539167.976 6  -7385417.18921
 91  5 14 20 11 45.0020000  0  6G18G 2G16G19G11G 6
  24424439.369    19067567.576 5  14857809.66721
  21549583.6974  -13466541.80547 -10493396.89363
  24212427.2834   -1194828.77445   -729052.38061
  22120625.299     6485217.816 7   5053412.86922
  24016850.627    -2033367.358 6  -1584410.56021
  22869050.166    -9562684.737 6  -7403741.88621
 91  5 14 20 12  0.0020000  0  6G18G 2G16G19G11G 6
  24435542.729    19125922.563 5  14903280.93821
  21547051.7364  -13479846.25647 -10503763.96763
  24216932.424    -1171167.368 5   -710614.99721
  22125637.8774    6511564.52246   5073942.76062
  24021979.393    -2006419.439 6  -1563412.16421
  22864578.572    -9586181.845 6  -7422051.28121
 91  5 14 20 12 15.0020000  0  6G18G 2G16G19G11G 6
  24446653.5804   19184309.40845  14948777.03461
  21544534.9714  -13493068.49547 -10514066.97463
  24221452.8224   -1147400.84945   -692095.68661
  22130659.6744    6537966.92146   5094516.05662
  24027135.322    -1979333.345 6  -1542306.10521
  22860115.338    -9609660.786 6  -7440346.51421
 91  5 14 20 12 30.0020000  0  6G18G 2G16G19G11G 6
  24457769.8694   19242729.51645  14994299.00961
  21542033.7604  -13506206.86347 -10524304.62863
  24225994.900    -1123527.542 5   -673493.19021
  22135697.658     6564426.693 6   5115134.03422
  24032314.596    -1952107.532 6  -1521091.17621
  22855650.0884   -9633119.98246  -7458626.35861
 91  5 14 20 12 45.0020000  0  6G18G 2G16G19G11G 6
  24468895.111    19301181.135 5  15039845.56621
  21539551.1504  -13519262.88047 -10534478.11263
  24230560.049    -1099549.164 5   -654808.81421
  22140738.455     6590942.303 6   5135795.53622
  24037522.158    -1924743.602 6  -1499768.61021
  22851188.6194   -9656560.75246  -7476891.85461
 91  5 14 20 13  0.0020000  0  6G18G 2G16G19G11G 6
  24480023.2054   19359662.79445  15085415.56161
  21537081.2604  -13532237.87447 -10544588.46063
  24235139.283    -1075467.394 5   -636043.87621
  22145802.1974    6617512.66846   5156499.70262
  24042757.604    -1897242.969 6  -1478339.53721
  22846730.604    -9679984.208 6  -7495143.85421
 91  5 14 20 13 15.0020000  0  6G18G 2G16G19G11G 6
  24491159.877    19418177.858 5  15131011.54221
  21534629.6584  -13545128.02847 -10554632.70263
  24239743.174    -1051278.601 5   -617195.56121
  22150863.1194    6644141.47946   5177249.42062
  24048015.3694   -1869602.18346  -1456801.26061
  22842276.9084   -9703386.61246  -7513379.45361
 91  5 14 20 13 30.0020000  0  6G18G 2G16G19G11G 6
  24502299.4634   19476723.11445  15176631.08561
  21532191.0964  -13557936.71747 -10564613.47263
  24244365.4634   -1026986.50045   -598266.70761
  22155943.299     6670825.503 6   5198042.14822
  24053301.549    -1841824.684 6  -1435156.44021
  22837830.6274   -9726771.28446  -7531601.23361
 91  5 14 20 13 45.0020000  0  6G18G 2G16G19G11G 6
  24513448.580    19535298.596 5  15222274.18921
  21529769.018   -13570663.149 7 -10574530.14723
  24249007.635    -1002590.623 5   -579257.02321
  22161027.166     6697565.478 6   5218878.47622
  24058613.400    -1813909.922 6  -1413404.66921
  22833382.947    -9750137.311 6  -7549808.48521
 91  5 14 20 14  0.0020000  0  6G18G 2G16G19G11G 6
  24524598.7994   19593907.68645  15267943.42561
  21527364.291   -13583303.855 7 -10584380.02323
  24253671.783     -978087.624 5   -560163.85121
  22166134.3774    6724365.08546   5239761.28062
  24063952.549    -1785854.587 6  -1391543.35921
  22828937.0724   -9773481.19046  -7567998.48161
 91  5 14 20 14 15.0020000  0  6G18G 2G16G19G11G 6
  24535758.807    19652548.035 5  15313637.00421
  21524974.4944  -13595860.93247 -10594164.73063
  24258357.6744    -953479.73645   -540988.93761
  22171243.354     6751222.097 6   5260688.80322
  24069318.7524   -1757661.07246  -1369574.38861
  22824500.549    -9796805.092 6  -7586172.91021
 91  5 14 20 14 30.0020000  0  6G18G 2G16G19G11G 6
  24546922.6434   19711215.68445  15359351.89761
  21522598.893   -13608338.157 7 -10603887.21723
  24263055.322     -928771.191 5   -521735.61321
  22176367.174     6778132.974 6   5281658.30222
  24074706.197    -1729333.191 6  -1347500.70321
  22820066.5184   -9820112.45146  -7604334.44961
 91  5 14 20 14 45.0020000  0  6G18G 2G16G19G11G 6
  24558090.7214   19769909.83045  15405087.45161
  21520239.557   -13620736.287 7 -10613548.07523
  24267775.9244    -903962.92545   -502404.57761
  22181493.361     6805096.997 6   5302669.21622
  24080123.0574   -1700871.86546  -1325323.03461
  22815632.5024   -9843404.02346  -7622483.68561
 91  5 14 20 15  0.0020000  0  6G18G 2G16G19G11G 6
  24569267.9004   19828633.45045  15450845.93261
  21517897.3304  -13633052.05147 -10623144.74763
  24272513.729     -879051.969 5   -482993.51921
  22186638.580     6832117.549 6   5323724.16922
  24085565.4554   -1672274.05046  -1303039.02061
  22811202.5574   -9866676.45246  -7640618.00461
 91  5 14 20 15 15.0020000  0  6G18G 2G16G19G11G 6
  24580446.744    19887384.803 5  15496626.03721
  21515567.932   -13645286.864 7 -10632678.34423
  24277279.322     -854039.774 5   -463503.57521
  22191788.400     6859193.243 6   5344822.10022
  24091032.1434   -1643541.39546  -1280649.93261
  22806779.799    -9889931.045 6  -7658738.42421
 91  5 14 20 15 30.0020000  0  6G18G 2G16G19G11G 6
  24591633.947    19946166.489 5  15542429.77621
  21513257.174   -13657437.851 7 -10642146.62023
  24282059.1504    -828924.04545   -443932.94861
  22196950.268     6886326.855 6   5365965.16322
  24096528.4244   -1614671.19946  -1258153.67261
  22802357.510    -9913164.826 6  -7676842.62621
 91  5 14 20 15 45.0020000  0  6G18G 2G16G19G11G 6
  24602824.6194   20004974.57045  15588254.07661
  21510959.158   -13669508.670 7 -10651552.43223
  24286854.869     -803708.954 5   -424284.90921
  22202124.518     6913514.861 6   5387150.59522
  24102048.2604   -1585667.28046  -1235553.20861
  22797939.4634   -9936381.53846  -7694933.53161
 91  5 14 20 16  0.0020000  0  6G18G 2G16G19G11G 6
  24614022.814    20063816.536 5  15634104.78921
  21508679.197   -13681491.811 7 -10660889.92023
  24291675.541     -778386.742 5   -404553.40921
  22207311.439     6940764.808 6   5408384.30922
  24107592.1434   -1556522.18846  -1212842.75761
  22793527.5964   -9959573.35846  -7713005.03861
 91  5 14 20 16 15.0020000  0  6G18G 2G16G19G11G 6
  24625223.697    20122684.411 5  15679975.69721
  21506413.814   -13693394.743 7 -10670164.90723
  24296514.611     -752965.202 5   -384744.49521
  22212509.182     6968069.347 6   5429660.55522
  24113162.8144   -1527243.63946  -1190028.29461
  22789116.416    -9982747.751 6  -7731062.96421
 91  5 14 20 16 30.0020000  0  6G18G 2G16G19G11G 6
  24636430.588    20181578.592 5  15725867.10421
  21504164.7364  -13705216.98447 -10679377.01363
  24301371.721     -727444.278 5   -364858.13421
  22217714.064     6995429.155 6   5450979.86422
  24118762.5414   -1497831.43146  -1167109.67561
  22784713.2604  -10005904.21246  -7749106.92561
 91  5 14 20 16 45.0020000  0  6G18G 2G16G19G11G 6
  24647643.002    20240496.274 5  15771776.81921
  21501929.705   -13716960.963 7 -10688528.14723
  24306242.119     -701826.525 5   -344896.32421
  22222929.314     7022841.741 6   5472340.31122
  24124384.0804   -1468288.18546  -1144088.96161
  22780305.8464  -10029045.04446  -7767138.69661
 91  5 14 20 17  0.0020000  0  6G18G 2G16G19G11G 6
  24658860.314    20299438.821 5  15817705.90921
  21499709.213   -13728624.978 7 -10697616.96723
  24311138.260     -676110.744 5   -324858.13221
  22228166.158     7050308.862 6   5493743.24722
  24130027.674    -1438612.410 6  -1120964.97221
  22775906.080   -10052168.623 6  -7785157.03121
 91  5 14 20 17 15.0020000  0  6G18G 2G16G19G11G 6
  24670081.2444   20358411.10045  15863658.18561
  21497505.939   -13740204.240 7 -10706639.74623
  24316050.775     -650292.377 5   -304740.01121
  22233394.2364    7077835.33646   5515192.43762
  24135704.752    -1408799.509 6  -1097734.11921
  22771510.604   -10075269.876 6  -7803157.96121
 91  5 14 20 17 30.0020000  0  6G18G 2G16G19G11G 6
  24681308.104    20417410.246 5  15909631.38121
  21495318.604   -13751701.167 7 -10715598.37223
  24320983.799     -624374.005 5   -284543.96121
  22238646.744     7105418.995 6   5536686.17422
  24141400.7134   -1378851.96446  -1074398.37261
  22767115.908   -10098351.139 6  -7821143.31721
 91  5 14 20 17 45.0020000  0  6G18G 2G16G19G11G 6
  24692539.2524   20476437.01045  15955626.09361
  21493146.268   -13763114.931 7 -10724492.19023
  24325935.4944    -598354.79245   -264269.31461
  22243900.994     7133060.871 6   5558225.28122
  24147126.807    -1348769.160 6  -1050957.20021
  22762727.4634  -10121411.47346  -7839112.36661
 91  5 14 20 18  0.0020000  0  6G18G 2G16G19G11G 6
  24703777.994    20535490.328 5  16001641.48321
  21490989.775   -13774446.373 7 -10733321.86023
  24330903.494     -572235.870 5   -243916.98521
  22249178.486     7160760.129 6   5579809.11422
  24152878.1194   -1318552.06846  -1027411.40661
  22758344.0024  -10144451.44146  -7857065.55061
 91  5 14 20 18 15.0020000  0  6G18G 2G16G19G11G 6
  24715019.979    20594567.802 5  16047675.77321
  21488849.369   -13785697.651 7 -10742089.06323
  24335891.8544    -546019.97245   -223489.10261
  22254457.986     7188514.433 6   5601435.82922
  24158648.2914   -1288203.21346  -1003762.94661
  22753960.791   -10167473.500 6  -7875004.77321
 91  5 14 20 18 30.0020000  0  6G18G 2G16G19G11G 6
  24726267.205    20653669.341 5  16093728.78221
  21486722.5494  -13796868.45847 -10750793.56363
  24340898.447     -519707.096 5   -202985.64021
  22259748.268     7216324.041 6   5623105.63322
  24164452.369    -1257722.535 6   -980011.74821
  22749586.3694  -10190477.14246  -7892929.65261
 91  5 14 20 18 45.0020000  0  6G18G 2G16G19G11G 6
  24737517.674    20712796.083 5  16139801.40021
  21484613.299   -13807957.302 7 -10759434.19323
  24345929.049     -493296.246 5   -182405.82021
  22265049.689     7244190.652 6   5644819.85322
  24170277.3304   -1227108.73146   -956156.83561
  22745215.330   -10213460.681 6  -7910838.85521
 91  5 14 20 19  0.0020000  0  6G18G 2G16G19G11G 6
  24748775.3544   20771949.21145  16185894.55761
  21482519.2604  -13818963.14847 -10768010.14763
  24350969.385     -466786.149 5   -161748.67521
  22270369.510     7272115.682 6   5666579.60122
  24176130.0724   -1196360.67546   -932197.30961
  22740843.4944  -10236422.93746  -7928731.48261
 91  5 14 20 19 15.0020000  0  6G18G 2G16G19G11G 6
  24760036.4324   20831127.79145  16232007.58861
  21480440.6044  -13829886.63347 -10776521.92763
  24356032.846     -440177.595 5   -141014.81121
  22275687.104     7300098.369 6   5688384.27722
  24182007.111    -1165479.345 6   -908133.91021
  22736480.291   -10259364.584 6  -7946608.05121
 91  5 14 20 19 30.0020000  0  6G18G 2G16G19G11G 6
  24771303.705    20890327.910 5  16278137.38521
  21478376.3694  -13840731.04547 -10784972.09063
  24361115.229     -413474.534 5   -120207.30821
  22281027.5644    7328135.36546   5710231.26162
  24187907.213    -1134468.267 6   -883969.42821
  22732116.354   -10282288.779 6  -7964471.02221
 91  5 14 20 19 45.0020000  0  6G18G 2G16G19G11G 6
  24782571.6664   20949552.17245  16324285.95361
  21476327.5494  -13851493.69447 -10793358.54263
  24366216.3854    -386674.16745    -99323.96161
  22286371.252     7356229.528 6   5732122.79522
  24193833.549    -1103324.964 6   -859701.91021
  22727758.6354  -10305192.77346  -7982318.25061
 91  5 14 20 20  0.0020000  0  6G18G 2G16G19G11G 6
  24793847.6434   21008797.47645  16370450.95861
  21474295.3694  -13862177.67747 -10801683.69663
  24371334.1114    -359779.77045    -78367.37861
  22291731.635     7384378.004 6   5754056.66022
  24199783.041    -1072052.600 6   -835333.80321
  22723402.791   -10328079.386 6  -8000151.92821
 91  5 14 20 20 15.0020000  0  6G18G 2G16G19G11G 6
  24805125.2134   21068063.83645  16416632.37161
  21472275.5574  -13872782.69547 -10809947.31963
  24376469.7294    -332791.44845    -57337.57861
  22297093.025     7412580.968 6   5776032.97922
  24205760.2754   -1040651.02346   -810865.03761
  22719048.447   -10350948.202 6  -8017971.74221
 91  5 14 20 20 30.0020000  0  6G18G 2G16G19G11G 6
  24816408.674    21127353.040 5  16462831.58421
  21470273.2994  -13883306.75948 -10818147.86263
  24381618.025     -305707.723 5    -36233.45721
  22302475.127     7440840.432 6   5798053.32222
  24211761.5414   -1009118.56946   -786294.28161
  22714702.729   -10373797.337 6  -8035776.22321
 91  5 14 20 20 45.0020000  0  6G18G 2G16G19G11G 6
  24827694.572    21186665.615 4  16509048.99921
  21468288.346   -13893749.062 8 -10826284.69823
  24386798.8224    -278528.02445    -15054.54861
  22307859.252     7469157.233 6   5820118.34822
  24217786.307     -977454.774 6   -761621.18721
  22710359.104   -10396625.788 6  -8053564.57921
 91  5 14 20 21  0.0020000  0  6G18G 2G16G19G11G 6
  24838985.244    21245997.074 4  16555281.12121
  21466314.8464  -13904113.98148 -10834361.22963
  24391988.2994    -251257.02545      6195.52661
  22313260.885     7497527.355 6   5842224.91722
  24223835.463     -945664.075 6   -736849.19721
  22706016.877   -10419437.803 6  -8071340.12821
 91  5 14 20 21 15.0020000  0  6G18G 2G16G19G11G 6
  24850278.8224   21305351.44845  16601531.08961
  21464358.557   -13914397.092 8 -10842374.02023
  24397189.2214    -223890.50745     27520.02361
  22318668.408     7525955.089 6   5864376.38022
  24229906.8544    -913742.16346   -711974.97861
  22701679.666   -10442228.918 6  -8089099.38921
 91  5 14 20 21 30.0020000  0  6G18G 2G16G19G11G 6
  24861578.1194   21364728.96945  16647799.10861
  21462416.8614  -13924597.75548 -10850322.56263
  24402416.2994    -196428.21745     48919.16061
  22324091.455     7554440.985 6   5886573.16522
  24236009.768     -881688.842 6   -686998.34321
  22697345.768   -10464998.378 6  -8106841.77521
 91  5 14 20 21 45.0020000  0  6G18G 2G16G19G11G 6
  24872883.057    21424126.809 5  16694082.98421
  21460490.549   -13934718.630 8 -10858208.93723
  24407663.8464    -168873.13145     70390.56861
  22329520.932     7582982.663 6   5908813.41522
  24242131.9554    -849506.88346   -661921.49461
  22693020.0884  -10487748.85846  -8124569.38261
 91  5 14 20 22  0.0020000  0  6G18G 2G16G19G11G 6
  24884188.4394   21483545.61445  16740383.18461
  21458579.189   -13944758.868 8 -10866032.47623
  24412922.5884    -141224.66145     91934.77161
  22334966.361     7611580.934 6   5931097.76522
  24248281.2834    -817195.53146   -636743.81361
  22688693.2604  -10510479.13246  -8142281.23861
 91  5 14 20 22 15.0020000  0  6G18G 2G16G19G11G 6
  24895499.9794   21542983.49045  16786698.24661
  21456685.705   -13954720.366 8 -10873794.65823
  24418199.9244    -113484.57745    113550.33861
  22340413.174     7640234.070 6   5953424.86122
  24254454.1274    -784756.83546   -611466.90461
  22684369.8074  -10533191.04346  -8159978.79861
 91  5 14 20 22 30.0020000  0  6G18G 2G16G19G11G 6
  24906815.5414   21602443.33045  16833030.40861
  21454804.643   -13964599.867 8 -10881492.95123
  24423497.479      -85649.745 5    135239.73521
  22345883.104     7668945.454 6   5975797.35022
  24260651.807     -752187.756 6   -586088.38721
  22680051.236   -10555881.161 6  -8177659.36521
 91  5 14 20 22 45.0020000  0  6G18G 2G16G19G11G 6
  24918133.1744   21661922.76745  16879377.84661
  21452940.502   -13974399.662 8 -10889129.13223
  24428815.854      -57723.061 5    157000.74121
  22351354.049     7697712.894 6   5998213.52522
  24266873.1974    -719490.91746   -560610.32061
  22675736.783   -10578551.822 6  -8195324.77221
 91  5 14 20 23  0.0020000  0  6G18G 2G16G19G11G 6
  24929456.6664   21721422.20945  16925740.86561
  21451091.627   -13984118.975 8 -10896702.60523
  24434147.5494     -29703.95345    178833.74661
  22356839.799     7726537.290 6   6020674.06922
  24273121.369     -686665.729 6   -535032.24421
  22671428.330   -10601202.076 6  -8212974.26921
 91  5 14 20 23 15.0020000  0  6G18G 2G16G19G11G 6
  24940783.4004   21780942.76445  16972120.32761
  21449257.330   -13993756.328 8 -10904212.21023
  24439496.8774      -1591.51745    200739.47361
  22362334.814     7755419.957 6   6043180.02122
  24279389.9864    -653710.97246   -509353.21261
  22667122.3854  -10623830.35346  -8230606.65761
 91  5 14 20 23 30.0020000  0  6G18G 2G16G19G11G 6
  24952113.0964   21840482.42545  17018514.68461
  21447438.346   -14003313.604 8 -10911659.41923
  24444861.5494      26612.26545    222716.35261
  22367843.385     7784359.023 6   6065729.92422
  24285686.900     -620628.754 6   -483574.84521
  22662818.744   -10646438.529 6  -8248223.37521
 91  5 14 20 23 45.0020000  0  6G18G 2G16G19G11G 6
  24963448.5644   21900041.92545  17064924.47661
  21445634.002   -14012789.924 8 -10919043.54023
  24450248.3304      54907.91545    244764.83461
  22373358.322     7813355.598 6   6088324.64422
  24292007.1504    -587418.34446   -457696.60661
  22658521.2684  -10669025.50746  -8265823.57861
 91  5 14 20 24  0.0020000  0  5G 2G16G19G11G 6
  21443846.650   -14022184.208 8 -10926363.74523
  24455649.3614      83296.33245    266885.60961
  22378890.5334    7842410.84946   6110965.07162
  24298349.4474    -554079.01446   -431717.89561
  22654226.893   -10691590.195 6  -8283406.40921
 91  5 14 20 24 15.0020000  0  5G 2G16G19G11G 6
  21442074.119   -14031496.942 8 -10933620.40123
  24461071.877      111777.030 5    289078.30421
  22384427.1434    7871524.52946   6133651.02962
  24304719.7834    -520611.20646   -405639.07661
  22649937.7914  -10714132.73246  -8300971.98161
 91  5 14 20 24 30.0020000  0  5G 2G16G19G11G 6
  21440316.689   -14040727.341 7 -10940812.89723
  24466505.9554     140350.11245    311342.93161
  22389982.283     7900697.145 6   6156382.92322
  24311113.5644    -487014.57846   -379459.89261
  22645653.189   -10736652.449 6  -8318519.77121
 91  5 14 20 24 45.0020000  0  5G 2G16G19G11G 6
  21438576.783   -14049875.746 8 -10947941.50223
  24471964.8694     169015.30245    333679.37861
  22395542.174     7929928.727 6   6179160.76422
  24317530.2834    -453289.49246   -353180.59861
  22641373.619   -10759149.384 6  -8336049.81121
 91  5 14 20 25  0.0020000  0  5G 2G16G19G11G 6
  21436850.729   -14058946.312 8 -10955009.45723
  24477432.236      197768.078 5    356084.06521
  22401117.002     7959215.042 6   6201981.23922
  24323970.7684    -419440.40246   -326804.68361
  22637096.3144  -10781627.68146  -8353565.33261
 91  5 14 20 25 15.0020000  0  5G 2G16G19G11G 6
  21435140.666   -14067936.916 8 -10962015.10223
  24482920.2294     226610.05645    378558.28261
  22406702.635     7988558.502 6   6224846.25922
  24330438.0884    -385465.27346   -300330.55661
  22632823.6274  -10804084.98546  -8371064.49061
 91  5 14 20 25 30.0020000  0  5G 2G16G19G11G 6
  21433445.760   -14076845.808 8 -10968957.07723
  24488427.3144     255543.01545    401103.36961
  22412298.525     8017960.672 6   6247757.01322
  24336926.5104    -351362.62346   -273757.07261
  22628553.9164  -10826519.56346  -8388545.93861
 91  5 14 20 25 45.0020000  0  5G 2G16G19G11G 6
  21431765.471   -14085673.314 8 -10975835.63323
  24493951.861      284566.133 5    423718.71921
  22417899.025     8047421.488 6   6270713.47922
  24343440.2754    -317132.92746   -247084.57161
  22624287.1194  -10848931.45546  -8406009.71261
 91  5 14 20 26  0.0020000  0  5G 2G16G19G11G 6
  21430099.900   -14094421.223 8 -10982652.16723
  24499489.5574     313677.58845    446402.89861
  22423517.807     8076939.193 6   6293714.27022
  24349977.3144    -282778.22646   -220314.66861
  22620028.4864  -10871322.34646  -8423457.12361
 91  5 14 20 26 15.0020000  0  5G 2G16G19G11G 6
  21428451.721   -14103087.639 8 -10989405.19523
  24505047.510      342878.712 5    469156.95321
  22429146.7364    8106515.62946   6316760.81162
  24356539.564     -248296.900 6   -193446.10421
  22615770.4004  -10893690.27946  -8440886.64461
 91  5 14 20 26 30.0020000  0  5G 2G16G19G11G 6
  21426816.854   -14111673.752 8 -10996095.65023
  24510620.471      372168.139 5    491979.83521
  22434791.346     8136149.703 6   6339852.27922
  24363125.1354    -213690.44446   -166480.02561
  22611516.088   -10916036.391 6  -8458299.15321
 91  5 14 20 26 45.0020000  0  5G 2G16G19G11G 6
  21425198.861   -14120177.640 8 -11002722.03223
  24516208.955      401547.510 5    514872.76821
  22440432.283     8165843.523 6   6362990.30722
  24369734.1274    -178957.07046   -139415.05961
  22607271.1504  -10938358.46646  -8475692.94461
 91  5 14 20 27  0.0020000  0  5G 2G16G19G11G 6
  21423596.705   -14128598.844 8 -11009283.98723
  24521819.7294     431016.83145    537835.80461
  22446097.635     8195597.687 6   6386175.34822
  24376368.5494    -144096.48846   -112250.96261
  22603026.2994  -10960656.05746  -8493067.64261
 91  5 14 20 27 15.0020000  0  5G 2G16G19G11G 6
  21422009.143   -14136941.403 8 -11015784.66223
  24527441.2054     460571.96045    560865.73161
  22451770.330     8225408.185 6   6409404.28322
  24383025.6584    -109113.05346    -84991.14461
  22598789.3614  -10982932.95946  -8510426.23161
 91  5 14 20 27 30.0020000  0  5G 2G16G19G11G 6
  21420436.025   -14145207.239 8 -11022225.55323
  24533084.4084     490210.77345    583960.82361
  22457454.533     8255272.839 6   6432675.43222
  24389704.3614     -74009.01346    -57637.34261
  22594548.7754  -11005191.10246  -8527770.19861
 91  5 14 20 27 45.0020000  0  5G 2G16G19G11G 6
  21418878.635   -14153391.651 8 -11028602.99323
  24538742.260      519937.812 5    607124.67221
  22463145.369     8285196.788 6   6455992.76822
  24396408.1434     -38779.70846    -30185.93761
  22590322.3224  -11027425.58946  -8545095.73961
 91  5 14 20 28  0.0020000  0  5G 2G16G19G11G 6
  21417337.885   -14161494.930 8 -11034917.21223
  24544414.0184     549752.54945    630356.84961
  22468855.682     8315179.666 6   6479356.02621
  24403138.096       -3425.723 6     -2637.37721
  22586090.8074  -11049636.50046  -8562402.90561
 91  5 14 20 28 15.0020000  0  5G 2G16G19G11G 6
  21415810.049   -14169519.131 8 -11041169.81423
  24550106.2604     579652.45445    653655.38261
  22474568.494     8345219.540 6   6502763.70422
  24409888.2914      32050.70846     25006.59561
  22581872.1824  -11071825.95046  -8579693.35361
 91  5 14 20 28 30.0020000  0  5G 2G16G19G11G 6
  21414297.3614  -14177467.62548 -11047363.41863
  24555811.049      609633.889 5    677017.45821
  22480298.408     8375313.129 6   6526213.23322
  24416660.4474      67646.00046     52743.17461
  22577650.307   -11093996.988 6  -8596969.44321
 91  5 14 20 28 45.0020000  0  5G 2G16G19G11G 6
  21412799.338   -14185339.002 8 -11053496.93423
  24561532.9084     639697.95645
  22486035.291     8405461.999 6
  24423456.3224     103361.41846     80573.37761
  22573437.1584  -11116148.16847  -8614230.06961
 91  5 14 20 29  0.0020000  0  5G 2G16G19G11G 6
  21411317.752   -14193130.928 8 -11059568.54123
  24567268.963      669846.748 5
  22491781.838     8435668.721 6
  24430277.0254     139199.10646    108498.85261
  22569224.4244  -11138276.88746  -8631473.18361
 91  5 14 20 29 15.0020000  0  5G 2G16G19G11G 6
  21409848.260   -14200846.941 8 -11065580.99923
  24573021.3544     700076.56745
  22497539.533     8465929.641 6
  24437118.182      175155.242 6    136516.59621
  22565018.2054  -11160386.58046  -8648701.48161
 91  5 14 20 29 30.0020000  0  5G 2G16G19G11G 6
  21408394.221   -14208483.676 8 -11071531.67723
  24578788.7684     730390.61845
  22503316.096     8496248.083 6
  24443984.5184     211232.94146    164629.10561
  22560816.3934  -11182473.87847  -8665912.32761
 91  5 14 20 29 45.0020000  0  5G 2G16G19G11G 6
  21406957.6434  -14216040.18748 -11077419.84363
  24584573.604      760788.999 5
  22509086.807     8526625.125 6
  24450873.4474     247432.78146    192836.77461
  22556615.0184  -11204537.73246  -8683104.90461
 91  5 14 20 30  0.0020000  0  5G 2G16G19G11G 6
  21405534.1974  -14223519.59348 -11083247.92363
  24590374.3854     791268.67945
  22514886.369     8557057.734 6
  24457784.0254     283751.47846    221137.05961
  22552423.3934  -11226581.00747  -8700281.44761
 91  5 14 20 30 15.0020000  0  5G 2G16G19G11G 6
  21404125.682   -14230920.961 8 -11089015.20023
  24596189.564      821830.131 5
  22520682.908     8587546.897 6
  24464717.4474     320189.76646    249530.52861
  22548229.1664  -11248602.55046  -8717441.04861
 91  5 14 20 30 30.0020000  0  5G 2G16G19G11G 6
  21402731.385   -14238245.698 8 -11094722.75923
  24602019.541      852472.074 5    866241.38321
  22526495.5574    8618091.44846   6715390.95062
  24471675.1664     356746.18946    278016.06161
  22544045.4084  -11270603.57246  -8734584.67061
 91  5 14 20 30 45.0020000  0  5G 2G16G19G11G 6
  21401352.838   -14245491.312 8 -11100368.66923
  24607866.2914     883196.31245    890182.27761
  22532318.9474    8648694.05746   6739237.10962
  24478653.5184     393423.06546    306595.43861
  22539865.4944  -11292581.56847  -8751710.34861
 91  5 14 20 31  0.0020000  0  5G 2G16G19G11G 6
  21399987.5644  -14252662.27748 -11105956.40963
  24613729.1664     913998.29245    914183.74561
  22538154.479     8679350.036 6   6763124.86422
  24485655.0024     430215.47646    335264.83661
  22535682.6894  -11314540.88047  -8768821.46561
 91  5 14 20 31 15.0020000  0  5G 2G16G19G11G 6
  21398638.0184  -14259754.77348 -11111482.99663
  24619604.994      944881.544 5    938248.55321
  22543994.9944    8710063.16846   6787057.14762
  24492679.4084     467126.87546    364026.96361
  22531510.8224  -11336477.71547  -8785915.07261
 91  5 14 20 31 30.0020000  0  5G 2G16G19G11G 6
  21397303.518   -14266768.042 8 -11116947.85923
  24625499.361      975846.133 5    962376.70921
  22549858.3144    8740834.51246   6811034.78162
  24499724.5964     504157.88046    392882.30761
  22527334.3074  -11358391.01346  -8802990.33561
 91  5 14 20 31 45.0020000  0  5G 2G16G19G11G 6
  21395984.447   -14273700.970 8 -11122350.11523
  24631405.6974    1006893.25945    986569.15561
  22555718.5334    8771665.27746   6835058.73261
  24506795.854      541309.471 6    421831.55621
  22523173.2294  -11380279.44046  -8820046.21561
 91  5 14 20 32  0.0020000  0  5G 2G16G19G11G 6
  21394680.7294  -14280551.95648 -11127688.51863
  24637332.1584    1038024.32645   1010827.05661
  22561596.5184    8802557.06546   6859130.22462
  24513891.080      578582.867 6    450875.77521
  22519013.3304  -11402141.32546  -8837081.41761
 91  5 14 20 32 15.0020000  0  5G 2G16G19G11G 6
  21393393.682   -14287321.928 8 -11132963.79523
  24643269.932     1069238.218 5   1035149.49921
  22567488.314     8833509.216 6   6883248.75721
  24521005.486      615977.210 6    480014.21921
  22514858.7684  -11423977.34846  -8854096.46361
 91  5 14 20 32 30.0020000  0  5G 2G16G19G11G 6
  21392118.932   -14294015.458 8 -11138179.50623
  24649224.3774    1100529.77745   1059532.41561
  22573392.307     8864517.080 6   6907410.71322
  24528143.0574     653487.43246    509242.95961
  22510708.2834  -11445792.10447  -8871094.93861
 91  5 14 20 32 45.0020000  0  5G 2G16G19G11G 6
  21390860.1044  -14300628.96148 -11143332.86063
  24655191.799     1131902.342 5   1083978.47921
  22579303.5884    8895584.32846   6931618.92962
  24535304.7524     691116.85146    538564.58461
  22506559.6434  -11467581.77047  -8888073.86561
 91  5 14 20 33  0.0020000  0  5G 2G16G19G11G 6
  21389616.9004  -14307164.91048 -11148425.78163
  24661182.2364    1163353.23145   1108485.60161
  22585223.2134    8926708.50446   6955871.49762
  24542490.057      728862.900 6    567977.06621
  22502420.877   -11489348.659 7  -8905035.05221
 91  5 14 20 33 15.0020000  0  5G 2G16G19G11G 6
  21388386.510   -14313620.588 8 -11153456.15223
  24667183.064     1194885.019 5   1133055.73821
  22591155.9164    8957892.56446   6980170.73462
  24549693.5254     766728.13246    597482.44861
  22498278.5494  -11511089.78147  -8921976.15061
 91  5 14 20 33 30.0020000  0  5G 2G16G19G11G 6
  21387175.1584  -14319996.52348 -11158424.38763
  24673195.650     1226496.731 5   1157688.17121
  22597105.3074    8989136.03746   7004516.25961
  24556919.7214     804711.77046    627080.08361
  22494148.1044  -11532805.56447  -8938897.50361
 91  5 14 20 33 45.0020000  0  5G 2G16G19G11G 6
  21385976.8544  -14326293.70248 -11163331.25163
  24679225.5104    1258187.15145   1182381.91161
  22603059.502     9020437.842 6   7028907.25621
  24564169.174      842812.379 6    656768.84521
  22490021.3934  -11554496.97447  -8955799.87562
 91  5 14 20 34  0.0020000  0  5G 2G16G19G11G 6
  21384793.330   -14332511.332 8 -11168176.12623
  24685272.9164    1289956.65345   1207137.25261
  22609036.213     9051798.888 6   7053344.42322
  24571443.0334     881030.42946    686549.14461
  22485899.3614  -11576163.14747  -8972682.57062
 91  5 14 20 34 15.0020000  0  5G 2G16G19G11G 6
  21383625.6584  -14338650.72448 -11172960.04563
  24691333.604     1321803.845 5   1231953.18021
  22615006.861     9083218.070 6   7077826.85521
  24578737.2134     919364.52946    716419.84961
  22481779.4554  -11597805.10647  -8989546.40261
 91  5 14 20 34 30.0020000  0  5G 2G16G19G11G 6
  21382471.721   -14344709.672 8 -11177681.27423
  24697405.838     1353730.943 5   1256831.31821
  22620997.6194    9114697.93446   7102356.57861
  24586055.3304     957817.03446    746382.82861
  22477663.8224  -11619420.15247  -9006389.26462
 91  5 14 20 34 45.0020000  0  5G 2G16G19G11G 6
  21381333.244   -14350689.403 8 -11182340.78323
  24703499.2444    1385736.04745   1281770.26161
  22627001.041     9146236.970 6   7126932.42921
  24593396.2134     996386.32046    776436.81861
  22473560.1664  -11641009.64447  -9023212.21362
 91  5 14 20 35  0.0020000  0  5G 2G16G19G11G 6
  21380209.791   -14356586.588 8 -11186935.97023
  24709606.268     1417822.170 5   1306772.32321
  22633014.3074    9177838.54946   7151557.00761
  24600757.2364    1035075.29546    806584.02661
  22469458.0254  -11662570.25547  -9040012.65662
 91  5 14 20 35 15.0020000  0  5G 2G16G19G11G 6
  21379103.439   -14362407.111 8 -11191471.42423
  24715726.408     1449983.319 5   1331832.85021
  22639037.1434    9209496.95146   7176225.85962
  24608141.455     1073877.755 6    836819.70721
  22465356.205   -11684107.614 7  -9056794.98821
 91  5 14 20 35 30.0020000  0  5G 2G16G19G11G 6
  21378011.627   -14368147.669 8 -11195944.56923
  24721861.2754    1482222.38045   1356954.12161
  22645077.760     9241215.672 6   7200941.71321
  24615547.572     1112796.909 6    867146.32021
  22461260.9554  -11705618.12347  -9073556.38362
 91  5 14 20 35 45.0020000  0  5G 2G16G19G11G 6
  21376935.377   -14373809.081 8 -11200356.03823
  24728008.4084    1514538.12845   1382135.11461
  22651122.1274    9272993.87346   7225703.91461
  24622972.8304    1151831.62246    897562.97161
  22457174.6744  -11727102.60547  -9090297.50262
 91  5 14 20 36  0.0020000  0  5G 2G16G19G11G 6
  21375871.807   -14379389.997 8 -11204704.77923
  24734173.166     1546931.443 5   1407376.54121
  22657179.8694    9304832.96146   7250513.56161
  24630427.205     1190983.023 6    928070.53621
  22453091.8934  -11748559.50847  -9107017.13962
 91  5 14 20 36 15.0020000  0  5G 2G16G19G11G 6
  21374825.299   -14384891.072 8 -11208991.31023
  24740352.8694    1579401.62745   1432677.88561
  22663246.689     9336732.300 6   7275370.15021
  24637898.5334    1230250.21546    958668.34161
  22449013.3384  -11769989.39047  -9123715.71862
 91  5 14 20 36 30.0020000  0  5G 2G16G19G11G 6
  21373795.2604  -14390312.31448 -11213215.62763
  24746547.6274    1611948.32645   1458038.85061
  22669330.1974    9368691.95446   7300273.73161
  24645390.111     1269632.899 6    989356.12321
  22444940.3544  -11791392.11247  -9140393.13561
 91  5 14 20 36 45.0020000  0  5G 2G16G19G11G 6
  21372775.408   -14395654.479 8 -11217378.32823
  24752754.033     1644570.932 5   1483458.95121
  22675425.393     9400711.380 6   7325223.91021
  24652905.229     1309130.188 5   1020133.21521
  22440872.5184  -11812768.13047  -9157049.73862
 91  5 14 20 37  0.0020000  0  5G 2G16G19G11G 6
  21371774.799   -14400917.420 8 -11221479.29623
  24758975.7444    1677268.99945   1508937.87561
  22681529.8464    9432790.86946   7350220.88361
  24660444.7994    1348742.13446   1050999.63661
  22436809.8464  -11834117.09147  -9173685.25562
 91  5 14 20 37 15.0020000  0  5G 2G16G19G11G 6
  21370786.869   -14406100.458 8 -11225518.00723
  24765212.572     1710043.043 5   1534476.00821
  22687643.7914    9464931.17546   7375265.24661
  24668005.9944    1388469.06446   1081955.67461
  22432755.9554  -11855438.12547  -9190299.01362
 91  5 14 20 37 30.0020000  0  5G 2G16G19G11G 6
  21369818.1584  -14411205.26648 -11229495.74863
  24771462.385     1742890.994 5   1560071.72921
  22693775.572     9497130.662 6   7400355.70521
  24675587.135     1428309.000 6   1112999.74921
  22428699.4634  -11876732.78547  -9206892.21962
 91  5 14 20 37 45.0020000  0  5G 2G16G19G11G 6
  21368861.736   -14416229.559 8 -11233410.75623
  24777731.0964    1775815.13145   1585726.81061
  22699912.4324    9529391.66846   7425494.12261
  24683187.846     1468263.932 6   1144133.48521
  22424656.6744  -11897998.74147  -9223463.06562
 91  5 14 20 38  0.0020000  0  5G 2G16G19G11G 6
  21367920.564   -14421176.283 8 -11237265.32323
  24784007.7684    1808812.02845   1611438.56661
  22706065.307     9561711.225 6   7450678.18121
  24690813.627     1508330.684 6   1175354.30821
  22420613.6434  -11919238.67947  -9240013.62762
 91  5 14 20 38 15.0020000  0  5G 2G16G19G11G 6
  21366993.900   -14426045.801 8 -11241059.72623
  24790299.7524    1841880.79045   1637206.36861
  22712224.174     9594089.287 6   7475907.79622
  24698458.314     1548508.712 6   1206661.83621
  22416576.2294  -11940452.82947  -9256544.09662
 91  5 14 20 38 30.0020000  0  5G 2G16G19G11G 6
  21366082.885   -14430837.265 8 -11244793.31123
  24796607.213     1875022.060 5   1663030.61621
  22718395.057     9626526.779 6   7501183.72222
  24706126.4554    1588798.73746   1238056.65161
  22412543.7914  -11961639.97047  -9273053.52062
 91  5 14 20 38 45.0020000  0  5G 2G16G19G11G 6
  21365187.096   -14435551.497 8 -11248466.71723
  24802930.143     1908234.717 5   1688910.50621
  22724579.1354    9659022.60646   7526505.11561
  24713815.994     1629199.507 6   1269537.74821
  22408515.9244  -11982800.94747  -9289542.55962
 91  5 14 20 39  0.0020000  0  5G 2G16G19G11G 6
  21364301.955   -14440189.961 8 -11252081.08123
  24809262.2134    1941516.93345   1714844.61761
  22730777.8304    9691575.53046   7551870.99861
  24721523.346     1669709.284 6   1301103.77121
  22404497.5494  -12003937.17547  -9306012.30862
 91  5 14 20 39 15.0020000  0  5G 2G16G19G11G 6
  21363433.877   -14444749.002 8 -11255633.56023
  24815610.158     1974872.365 5   1740835.76321
  22736980.0574    9724189.42546   7577284.38861
  24729254.377     1710331.419 6   1332757.38921
  22400480.6114  -12025044.74347  -9322459.72662
 91  5 14 20 39 30.0020000  0  5G 2G16G19G11G 6
  21362582.799   -14449227.614 8 -11259123.36423
  24821971.5724    2008301.62745   1766884.45361
  22743203.1824    9756865.12746   7602745.94061
  24737007.3934    1751066.68946   1364499.15861
  22396466.1894  -12046122.55847  -9338883.96062
 91  5 14 20 39 45.0020000  0  5G 2G16G19G11G 6
  21361744.244   -14453626.302 8 -11262550.88923
  24828347.3464    2041803.81645   1792989.97261
  22749427.518     9789602.328 6   7628255.41122
  24744778.7134    1791914.38546   1396328.48661
  22392461.9474  -12067170.85047  -9355285.19162
 91  5 14 20 40  0.0020000  0  4G 2G19G11G 6
  21360923.455   -14457946.816 8 -11265917.49923
  22755669.025     9822399.832 6   7653811.85821
  24752573.1434    1832872.75146   1428244.07961
  22388458.4394  -12088191.06547  -9371664.53562
 91  5 14 20 40 15.0020000  0  4G 2G19G11G 6
  21360114.557   -14462190.361 8 -11269224.13723
  22761922.4634    9855256.14146   7679414.13961
  24760390.1354    1873940.29146   1460244.73261
  22384464.8934  -12109184.14447  -9388022.74762
 91  5 14 20 40 30.0020000  0  4G 2G19G11G 6
  21359322.533   -14466358.643 8 -11272472.12723
  22768186.0414    9888169.52746   7705060.90061
  24768223.0574    1915114.91046   1492328.82661
  22380475.6824  -12130151.88147  -9404361.21162
 91  5 14 20 40 45.0020000  0  4G 2G19G11G 6
  21358542.908   -14470449.064 8 -11275659.44323
  22774462.0334    9921142.79446   7730754.33161
  24776080.205     1956398.996 6   1524498.22421
  22376492.1044  -12151091.40247  -9420677.68462
 91  5 14 20 41  0.0020000  0  4G 2G19G11G 6
  21357778.955   -14474463.556 8 -11278787.59323
  22780746.3144    9954174.10146   7756492.97261
  24783955.9394    1997790.33246   1556751.18361
  22372514.1584  -12172004.53147  -9436973.59062
 91  5 14 20 41 15.0020000  0  4G 2G19G11G 6
  21357029.182   -14478400.182 8 -11281855.06823
  22787039.393     9987265.243 6   7782278.22221
  24791853.439     2039290.632 6   1589089.04021
  22368539.5884  -12192889.02547  -9453247.18962
 91  5 14 20 41 30.0020000  0  4G 2G19G11G 6
  21356296.0104  -14482258.09848 -11284861.21063
  22793352.1354   10020417.32946   7808110.97361
  24799769.6114    2080900.42346   1621512.25861
  22364569.7994  -12213743.98847  -9469497.77361
 91  5 14 20 41 45.0020000  0  4G 2G19G11G 6
  21355575.6354  -14486042.95648 -11287810.42263
  22799668.5104   10053624.82246   7833986.90761
  24807710.7524    2122613.88646   1654016.24361
  22360604.6744  -12234574.76347  -9485729.51062
 91  5 14 20 42  0.0020000  0  4G 2G19G11G 6
  21354870.6664  -14489750.04748 -11290699.04663
  22806006.5104   10086892.34246   7859909.61161
  24815665.830     2164435.526 6   1686604.46721
  22356647.9944  -12255376.43247  -9501938.56661
 91  5 14 20 42 15.0020000  0  4G 2G19G11G 6
  21354180.361   -14493378.675 8 -11293526.51523
  22812339.354    10120220.697 6   7885879.72021
  24823647.0184    2206365.70746   1719277.35061
  22352693.1504  -12276148.26547  -9518124.37461
 91  5 14 20 42 30.0020000  0  4G 2G19G11G 6
  21353503.9244  -14496931.37748 -11296294.83063
  22818698.322    10153607.210 6   7911895.13521
  24831645.7214    2248401.51246   1752032.50761
  22348748.8464  -12296892.68047  -9534288.81362
 91  5 14 20 42 45.0020000  0  4G 2G19G11G 6
  21352842.229   -14500407.302 8 -11299003.31723
  22825062.799    10187053.085 6   7937956.81421
  24839667.080     2290543.549 6   1784870.39221
  22344804.6194  -12317608.60847  -9550431.06262
 91  5 14 20 43  0.0020000  0  4G 2G19G11G 6
  21352195.744   -14503806.719 8 -11301652.18923
  22831437.143    10220558.110 6   7964064.58721
  24847706.869     2332791.446 6   1817790.85321
  22340866.7684  -12338295.94147  -9566551.02762
 91  5 14 20 43 15.0020000  0  4G 2G19G11G 6
  21351562.916   -14507127.231 8 -11304239.57323
  22837823.197    10254125.050 6   7990220.59421
  24855764.0644    2375147.38946   1850795.46861
  22336934.3544  -12358952.14947  -9582646.73562
 91  5 14 20 43 30.0020000  0  4G 2G19G11G 6
  21350946.564   -14510369.743 8 -11306766.18523
  22844226.2754   10287752.86146   8016424.03961
  24863843.7994    2417610.12346   1883883.26361
  22333010.0804  -12379577.90247  -9598718.72062
 91  5 14 20 43 45.0020000  0  4G 2G19G11G 6
  21350344.846   -14513534.887 8 -11309232.50923
  22850631.541    10321441.031 6   8042674.50521
  24871946.1974    2460178.88845   1917053.76461
  22329091.3774  -12400173.70547  -9614767.36462
 91  5 14 20 44  0.0020000  0  4G 2G19G11G 6
  21349757.471   -14516621.852 8 -11311637.91323
  22857061.330    10355190.376 6   8068972.64721
  24880064.7054    2502854.02346   1950307.08861
  22325176.7364  -12420738.59947  -9630791.93162
 91  5 14 20 44 15.0020000  0  4G 2G19G11G 6
  21349184.893   -14519633.220 8 -11313984.41023
  22863490.5414   10388998.35146   8095316.48961
  24888206.338     2545632.831 5   1983641.19421
  22321270.9944  -12441274.88247  -9646794.19361
 91  5 14 20 44 30.0020000  0  4G 2G19G11G 6
  21348625.057   -14522567.061 8 -11316270.50323
  22869936.385    10422867.072 6   8121707.65521
  24896367.072     2588516.981 6   2017057.40621
  22317369.6894  -12461780.55147  -9662772.59862
 91  5 14 20 44 45.0020000  0  4G 2G19G11G 6
  21348082.455   -14525423.628 8 -11318496.37723
  22876392.799    10456796.289 6   8148145.94621
  24904548.2444    2631505.92946   2050555.27561
  22313474.1584  -12482255.57647  -9678727.13862
 91  5 14 20 45  0.0020000  0  4G 2G19G11G 6
  21347551.994   -14528205.852 8 -11320664.31623
  22882861.4394   10490783.20846   8174629.21161
  24912746.260     2674596.546 5   2084132.37121
  22309585.2214  -12502702.69947  -9694659.93162
 91  5 14 20 45 15.0020000  0  4G 2G19G11G 6
  21347038.885   -14530906.613 8 -11322768.78623
  22889338.354    10524834.871 6   8201162.92321
  24920969.5644    2717795.50345   2117793.86361
  22305699.955   -12523114.733 7  -9710565.38722
 91  5 14 20 45 30.0020000  0  4G 2G19G11G 6
  21346539.643   -14533533.210 8 -11324815.46223
  22895832.018    10558944.083 6   8227741.48821
  24929206.018     2761095.213 5   2151533.91421
  22301817.291   -12543498.781 7  -9726449.03222
 91  5 14 20 45 45.0020000  0  4G 2G19G11G 6
  21346053.971   -14536082.014 8 -11326801.52523
  22902335.002    10593114.733 6   8254367.92021
  24937467.3384    2804499.23345   2185355.18961
  22297950.0254  -12563850.90847  -9742307.81262
 91  5 14 20 46  0.0020000  0  4G 2G19G11G 6
  21345583.854   -14538554.406 8 -11328728.04123
  22908845.939    10627345.480 6   8281041.17121
  24945747.0574    2848005.97545   2219256.53661
  22294078.104   -12584172.350 7  -9758142.66922
 91  5 14 20 46 15.0020000  0  4G 2G19G11G 6
  21345127.869   -14540950.761 8 -11330595.30423
  22915370.674    10661636.228 6   8307761.17921
  24954045.377     2891615.026 5   2253237.58621
  22290218.3774  -12604463.07447  -9773953.59762
 91  5 14 20 46 30.0020000  0  4G 2G19G11G 6
  21344685.447   -14543270.228 8 -11332402.66123
  22921910.4324   10695987.80946   8334528.58461
  24962362.2134    2935326.83945   2287298.74061
  22286361.1114  -12624722.15247  -9789739.86362
 91  5 14 20 46 45.0020000  0  4G 2G19G11G 6
  21344259.869   -14545507.527 8 -11334145.98923
  22928457.189    10730405.415 6   8361347.44221
  24970703.838     2979146.124 6   2321443.59721
  22282512.5574  -12644944.41947  -9805497.44462
 91  5 14 20 47  0.0020000  0  4G 2G19G11G 6
  21343846.854   -14547673.458 8 -11335833.70523
  22935016.979    10764878.380 6   8388209.44421
  24979057.596     3023062.155 5   2355663.86321
  22278669.8854  -12665140.12647  -9821234.32662
 91  5 14 20 47 15.0020000  0  4G 2G19G11G 6
  21343452.541   -14549758.034 8 -11337458.02423
  22941590.5724   10799416.77646   8415122.42161
  24987436.0414    3067084.49945   2389966.96161
  22274834.5964  -12685299.28547  -9836942.73862
 91  5 14 20 47 30.0020000  0  4G 2G19G11G 6
  21343068.830   -14551764.963 8 -11339021.84223
  22948177.549    10834016.980 6   8442083.56621
  24995833.6664    3111209.29246   2424349.91561
  22271000.8544  -12705425.17647  -9852625.21562
 91  5 14 20 47 45.0020000  0  4G 2G19G11G 6
  21342701.666   -14553692.094 8 -11340523.48223
  22954768.0024   10868681.05546   8469094.47661
  25004248.900     3155438.230 5   2458813.98521
  22267181.064   -12725515.671 7  -9868280.12122
 91  5 14 20 48  0.0020000  0  4G 2G19G11G 6
  21342349.111   -14555544.751 8 -11341967.08323
  22961380.854    10903403.859 6   8496151.15621
  25012682.354     3199765.785 5   2493354.91621
  22263365.0024  -12745575.79847  -9883911.36062
 91  5 14 20 48 15.0020000  0  4G 2G19G11G 6
  21342013.244   -14557312.542 8 -11343344.55923
  22967999.658    10938195.844 6   8523261.74421
  25021140.760     3244202.013 5   2527980.55821
  22259554.5334  -12765595.11047  -9899510.78962
 91  5 14 20 48 30.0020000  0  4G 2G19G11G 6
  21341693.025   -14559003.543 8 -11344662.20123
  22974632.8774   10973049.05046   8550420.02161
  25029616.682     3288738.725 5   2562684.46721
  22255750.213   -12785581.463 7  -9915084.54922
 91  5 14 20 48 45.0020000  0  4G 2G19G11G 6
  21341385.979   -14560617.119 8
  22981277.947    11007964.205 6   8577626.59221
  25038110.666     3333376.214 5   2597466.89921
  22251954.455   -12805533.933 7  -9930631.90222
 91  5 14 20 49  0.0020000  0  3G19G11G 6
  22987933.471    11042944.356 6   8604883.79721
  25046625.2524    3378117.28046   2632330.05361
  22248162.6664  -12825449.17147  -9946150.23662
 91  5 14 20 49 15.0020000  0  4G 2G19G11G 6
  21340816.4474      -1454.39448
  22994602.6114   11077988.09446   8632190.56161
  25055157.924     3422960.384 6   2667272.70821
  22244381.0184  -12845328.41947  -9961640.52962
 91  5 14 20 49 30.0020000  0  4G 2G19G11G 6
  21340554.338       -2830.822 8
  23001281.416    11113094.339 6   8659546.02921
  25063711.6114    3467903.86145   2702293.59461
  22240603.189   -12865172.813 7  -9977103.66622
 91  5 14 20 49 45.0020000  0  4G 2G19G11G 6
  21340306.736       -4128.264 8        -0.23033
  23007972.0334   11148264.49846   8686951.28861
  25072280.8074    3512948.60746   2737393.37261
  22236836.0804  -12884980.91147  -9992538.51762
 91  5 14 20 50  0.0020000  0  4G 2G19G11G 6
  21340075.557       -5344.437 8      -947.87523
  23014679.8224   11183501.04046   8714408.27561
  25080874.6744    3558096.82746   2772573.78261
  22233073.0804  -12904750.13847 -10007943.08262
 91  5 14 20 50 15.0020000  0  4G 2G19G11G 6
  21339859.658       -6480.103 8     -1832.79323
  23021396.877    11218802.989 6   8741916.23821
  25089485.0024    3603347.49145   2807834.03461
  22229318.5804  -12924481.11247 -10023317.83862
 91  5 14 20 50 30.0020000  0  4G 2G19G11G 6
  21339661.877       -7533.682 8     -2653.74523
  23028135.432    11254171.984 6   8769476.44921
  25098112.7214    3648701.75646   2843174.99561
  22225572.2754  -12944172.14447 -10038661.46962
 91  5 14 20 50 45.0020000  0  4G 2G19G11G 6
  21339475.619       -8503.419 8     -3409.36723
  23034870.5104   11289609.87946   8797090.34261
  25106764.3774    3694161.17946   2878597.93761
  22221838.7914  -12963821.18447 -10053972.38262
 91  5 14 20 51  0.0020000  0  4G 2G19G11G 6
  21339304.643       -9392.966 8     -4102.50223
  23041626.049    11325113.069 6   8824755.11421
  25115434.3384    3739721.88045   2914099.75461
  22218103.057   -12983431.652 7 -10069253.23922
 91  5 14 20 51 15.0020000  0  4G 2G19G11G 6
  21339153.213      -10204.124 8     -4734.55323
  23048396.432    11360679.908 6   8852469.48921
  25124124.557     3785381.767 5   2949678.82021
  22214377.3464  -13003005.17947 -10084505.30862
 91  5 14 20 51 30.0020000  0  4G 2G19G11G 6
  21339012.963      -10934.746 8     -5303.85323
  23055181.2684   11396312.66746   8880235.23361
  25132831.908     3831142.558 6   2985336.58621
  22210658.7994  -13022539.48147 -10099726.81162
 91  5 14 20 51 45.0020000  0  3G19G11G 6
  23061967.611    11432015.069 6   8908055.24221
  25141561.400     3877007.672 6   3021075.66221
  22206949.549   -13042030.624 7 -10114914.68722
 91  5 14 20 52  0.0020000  0  4G 2G19G11G 6
  21338783.1504         -0.18258
  23068782.260    11467783.778 6   8935926.91021
  25150307.596     3922973.680 5   3056893.29321
  22203249.1664  -13061481.73047 -10130071.36862
 91  5 14 20 52 15.0020000  0  4G 2G19G11G 6
  21338687.432        -484.005 8
  23075596.236    11503619.925 6   8963851.13821
  25159073.830     3969041.468 5   3092790.20821
  22199558.5964  -13080891.42747 -10145195.77762
 91  5 14 20 52 30.0020000  0  4G 2G19G11G 6
  21338611.682        -882.552 8        -0.09833
  23082429.2524   11539527.14546   8991830.75661
  25167858.299     4015214.094 5   3128768.86321
  22195869.596   -13100256.049 7 -10160285.06722
 91  5 14 20 52 45.0020000  0  4G 2G19G11G 6
  21338552.900       -1199.713 8      -247.21923
  23089274.3694   11575501.55846   9019862.70661
  25176665.2994    4061487.28745   3164825.89661
  22192194.0644  -13119579.43047 -10175342.21662
 91  5 14 20 53  0.0020000  0  4G 2G19G11G 6
  21338506.252       -1435.087 8      -430.60923
  23096133.736    11611543.712 6   9047947.44821
  25185489.354     4107861.404 5   3200961.55821
  22188524.854   -13138860.774 7 -10190366.61222
 91  5 14 20 53 15.0020000  0  4G 2G19G11G 6
  21338477.135       -1584.052 8
  23103002.0104   11647658.22146   9076088.59561
  25194333.3934    4154340.60845   3237179.12261
  22184863.7754  -13158095.42147 -10205354.62062
 91  5 14 20 53 30.0020000  0  3G 2G19G 6
  21338466.229       -1647.727 8
  23109890.6044   11683843.93246   9104285.20661
  22181211.0334  -13177284.27147 -10220306.94762
 91  5 14 20 53 45.0020000  0  3G 2G19G 6
  21338473.510       -1623.033 8
  23116791.783    11720104.028 6   9132539.76821
  22177572.0724  -13196424.06947 -10235221.04362
 91  5 14 20 54  0.0020000  0  3G 2G19G 6
  21338494.010       -1515.252 8
  23123706.713    11756433.334 6   9160848.27121
  22173935.1194  -13215519.92447 -10250100.90362
 91  5 14 20 54 15.0020000  0  3G 2G19G 6
  21338531.346       -1322.936 8
  23130631.5024   11792833.33046   9189211.86161
  22170307.658   -13234569.975 7 -10264945.07422
 91  5 14 20 54 30.0020000  0  3G 2G19G 6
  21338581.502       -1045.698 8
  23137580.2994   11829304.48946   9217630.91361
  22166697.291   -13253573.790 7 -10279753.21722
 91  5 14 20 54 45.0020000  0  3G 2G19G 6
  21338650.674        -679.048 8       158.64323
  23144526.6434   11865851.41646   9246109.00661
  22163087.2214  -13272526.67047 -10294521.66362
 91  5 14 20 55  0.0020000  0  3G 2G19G 6
  21338739.213        -225.557 8       512.02923
  23151497.635    11902471.578 6   9274644.15421
  22159493.861   -13291430.847 7 -10309252.16522
 91  5 14 20 55 15.0020000  0  3G 2G19G 6
  21338839.760         311.423 8       930.47623
  23158474.854    11939161.728 6   9303233.82721
  22155905.752   -13310289.467 7 -10323947.16822
 91  5 14 20 55 30.0020000  0  3G 2G19G 6
  21338961.002         937.057 8      1418.00423
  23165476.963    11975927.174 6   9331882.17821
  22152321.955   -13329097.047 7 -10338602.39322
 91  5 14 20 55 45.0020000  0  3G 2G19G 6
  21339093.299        1649.524 8      1973.19123
  23172486.4714   12012766.19246   9360587.87161
  22148758.4004  -13347855.21147 -10353219.11962
 91  5 14 20 56  0.0020000  0  3G 2G19G 6
  21339245.393        2447.874 8      2595.30323
  23179507.908    12049677.881 6   9389350.18521
  22145192.1434  -13366564.56247 -10367797.80562
 91  5 14 20 56 15.0020000  0  3G 2G19G 6
  21339415.635        3332.034 8      3284.28023
  23186547.0254   12086662.03346   9418168.96661
  22141642.252   -13385225.070 7 -10382338.43422
 91  5 14 20 56 30.0020000  0  3G 2G19G 6
  21339599.244        4305.458 8      4042.81223
  23193605.1194   12123722.42946   9447047.15561
  22138100.8224  -13403833.19047 -10396838.23862
 91  5 14 20 56 45.0020000  0  3G 2G19G 6
  21339802.900        5365.783 8      4869.05523
  23200665.807    12160856.469 6   9475982.72721
  22134569.9084  -13422391.06247 -10411298.89062
 91  5 14 20 57  0.0020000  0  3G 2G19G 6
  21340021.314        6514.862 8      5764.46023
  23207750.2684   12198066.12246   9504977.19561
  22131045.8384  -13440896.50947 -10425718.68762
 91  5 14 20 57 15.0020000  0  3G 2G19G 6
  21340254.900        7747.752 8      6725.17223
  23214840.1504   12235346.55946   9534026.84561
  22127534.6044  -13459354.40747 -10440101.43362
 91  5 14 20 57 30.0020000  0  3G 2G19G 6
  21340507.307        9067.496 8      7753.56023
  23221954.0724   12272701.07246   9563134.23761
  22124035.7444  -13477761.27747 -10454444.42262
 91  5 14 20 57 45.0020000  0  3G 2G19G 6
  21340773.580       10472.632 8      8848.48523
  23229069.588    12310128.214 6   9592298.19121
  22120543.5024  -13496118.30947 -10468748.57162
 91  5 14 20 58  0.0020000  0  3G 2G19G 6
  21341057.268       11959.201 8     10006.86823
  23236209.447    12347624.102 6   9621515.71321
  22117056.5574  -13514429.30647 -10483016.84862
 91  5 14 20 58 15.0020000  0  3G 2G19G 6
  21341355.861       13528.534 8     11229.73423
  23243355.1824   12385190.14346   9650787.90261
  22113579.7444  -13532692.73047 -10497248.05962
 91  5 14 20 58 30.0020000  0  3G 2G19G 6
  21341671.3774      15183.03348     12518.96563
  23250518.604    12422828.826 6   9680116.68821
  22110114.713   -13550905.806 7 -10511440.03422
 91  5 14 20 58 45.0020000  0  3G 2G19G 6
  21342001.1824      16917.39248     13870.42563
  23257692.236    12460534.944 6   9709498.03821
  22106655.1894  -13569073.69647 -10525596.80462
 91  5 14 20 59  0.0020000  0  3G 2G19G 6
  21342347.564       18735.820 8     15287.39423
  23264886.744    12498312.704 6   9738935.20021
  22103210.5724  -13587192.05747 -10539714.97262
 91  5 14 20 59 15.0020000  0  3G 2G19G 6
  21342707.588       20633.594 8     16766.19323
  23272082.7134   12536157.39346   9768424.50761
  22099770.7214  -13605265.37847 -10553798.04862
 91  5 14 20 59 30.0020000  0  3G 2G19G 6
  21343084.1504      22610.03648     18306.28263
  23279299.6114   12574068.29446   9797965.42161
  22096335.6744  -13623294.23947 -10567846.47362
 91  5 14 20 59 45.0020000  0  3G 2G19G 6
  21343475.322       24664.881 8     19907.47423
  23286524.596    12612045.250 6   9827557.80921
  22092917.1044  -13641278.36947 -10581860.05962
 91  5 14 21  0  0.0020000  0  3G 2G19G 6
  21343880.7134      26796.87548     21568.77663
  23293764.9084   12650087.39446   9857200.96861
  22089502.9714  -13659218.76947 -10595839.55662
 91  5 14 21  0 15.0020000  0  3G 2G19G 6
  21344300.885       29004.920 8     23289.34223
  23301015.2754   12688193.46446   9886893.94061
  22086094.0804  -13677116.49047 -10609785.80462
 91  5 14 21  0 30.0020000  0  3G 2G19G 6
  21344735.8464      31289.48348     25069.52963
  23308280.314    12726363.969 6   9916637.15121
  22082700.7684  -13694970.81247 -10623698.23462
 91  5 14 21  0 45.0020000  0  3G 2G19G 6
  21345184.666       33650.514 8     26909.31023
  23315554.135    12764599.193 6   9946430.78721
  22079309.9554  -13712781.41147 -10637576.59562
 91  5 14 21  1  0.0020000  0  3G 2G19G 6
  21345648.0644      36087.73148     28808.44963
  23322843.6194   12802898.78246   9976274.56561
  22075932.5724  -13730548.39947 -10651420.96762
 91  5 14 21  1 15.0020000  0  3G 2G19G 6
  21346126.6194      38593.68148     30761.14663
  23330139.119    12841255.237 6  10006162.62721
  22072556.6114  -13748279.10747 -10665237.07662
 91  5 14 21  1 30.0020000  0  3G 2G19G 6
  21346615.619       41173.572 8     32771.46423
  23337455.908    12879673.681 6  10036099.00621
  22069191.4944  -13765967.97447 -10679020.58062
 91  5 14 21  1 45.0020000  0  3G 2G19G 6
  21347121.002       43822.882 8     34835.87423
  23344774.6354   12918149.82246  10066080.35861
  22065827.346   -13783619.434 7 -10692774.94022
 91  5 14 21  2  0.0020000  0  3G 2G19G 6
  21347637.432       46541.473 8     36954.27223
  23352110.1434   12956683.59946  10096106.62461
  22062476.674   -13801233.353 7 -10706500.04722
 91  5 14 21  2 15.0020000  0  3G 2G19G 6
  21348169.314       49326.609 8     39124.51723
  23359450.2054   12995272.32346  10126175.69361
  22059134.080   -13818812.145 7 -10720197.78122
 91  5 14 21  2 30.0020000  0  3G 2G19G 6
  21348711.518       52182.795 8     41350.13023
  23366805.1504   13033920.73746  10156291.28561
  22055799.541   -13836350.947 7 -10733864.35722
 91  5 14 21  2 45.0020000  0  3G 2G19G 6
  21349267.127       55104.790 8     43627.02123
  23374167.697    13072623.475 6  10186449.19121
  22052468.072   -13853854.774 7 -10747503.67822
 91  5 14 21  3  0.0020000  0  3G 2G19G 6
  21349836.260       58092.193 8     45954.87823
  23381547.0254   13111380.05246  10216649.04361
  22049140.275   -13871323.952 7 -10761116.00122
 91  5 14 21  3 15.0020000  0  3G 2G19G 6
  21350416.822       61141.200 8     48330.74323
  23388931.900    13150186.810 6  10246888.02121
  22045821.158   -13888761.980 7 -10774704.05722
 91  5 14 21  3 30.0020000  0  3G 2G19G 6
  21351006.861       64253.981 8     50756.29823
  23396323.111    13189046.319 6  10277168.11421
  22042511.572   -13906166.322 7 -10788265.86122
 91  5 14 21  3 45.0020000  0  3G 2G19G 6
  21351613.2364      67434.04748     53234.28263
  23403729.9084   13227961.75246  10307491.76161
  22039205.447   -13923533.372 7 -10801798.60122
 91  5 14 21  4  0.0020000  0  3G 2G19G 6
  21352230.604       70677.686 8     55761.80323
  23411148.432    13266929.566 6  10337856.22421
  22035907.111   -13940866.554 7 -10815304.95422
 91  5 14 21  4 15.0020000  0  3G 2G19G 6
  21352860.7604      73990.80648     58343.46663
  23418570.2994   13305955.91046  10368266.29761
  22032618.4864  -13958159.54747 -10828779.99162
 91  5 14 21  4 30.0020000  0  3G 2G19G 6
  21353504.416       77370.910 8     60977.33323
  23426013.3304   13345038.35746  10398720.07761
  22029330.7994  -13975414.66547 -10842225.52662
 91  5 14 21  4 45.0020000  0  3G 2G19G 6
  21354159.8464      80818.02748     63663.40163
  23433455.0574   13384176.96746  10429217.62961
  22026053.6274  -13992631.59747 -10855641.29462
 91  5 14 21  5  0.0020000  0  3G 2G19G 6
  21354831.275       84337.080 8     66405.54023
  23440917.2294   13423376.49046  10459762.63861
  22022790.713   -14009805.480 6 -10869023.51622
 91  5 14 21  5 15.0020000  0  3G 2G19G 6
  21355512.947       87926.798 8     69202.72723
  23448384.939    13462635.835 6  10490354.27321
  22019530.057   -14026937.146 7 -10882372.83922
 91  5 14 21  5 30.0020000  0  3G 2G19G 6
  21356210.791       91590.805 8     72057.82523
  23455871.314    13501958.656 6  10520995.41521
  22016277.768   -14044022.817 7 -10895686.34323
 91  5 14 21  5 45.0020000  0  3G 2G19G 6
  21356922.049       95329.168 8     74970.83823
  23463363.9864   13541344.92746  10551685.91261
  22013034.0184  -14061062.06147 -10908963.65462
 91  5 14 21  6  0.0020000  0  3G 2G19G 6
  21357646.900       99139.615 8     77940.02523
  23470870.869    13580792.765 6  10582424.43021
  22009800.432   -14078057.010 7 -10922206.44722
 91  5 14 21  6 15.0020000  0  3G 2G19G 6
  21358386.5884     103020.77448     80964.31763
  23478389.885    13620300.900 6  10613209.92421
  22006575.8144  -14095008.60247 -10935415.46162
 91  5 14 21  6 30.0020000  0  3G 2G19G 6
  21359138.533      106979.140 8     84048.76823
  23485921.3464   13659875.79446  10644047.43561
  22003358.721   -14111910.037 7 -10948585.37622
 91  5 14 21  6 45.0020000  0  3G 2G19G 6
  21359905.096      111008.049 8     87188.18923
  23493462.8614   13699510.91046  10674931.87561
  22000149.502   -14128767.653 7 -10961721.16622
 91  5 14 21  7  0.0020000  0  3G 2G19G 6
  21360689.3774     115117.15048     90390.09563
  23501024.088    13739215.564 6  10705870.49021
  21996951.643   -14145571.908 7 -10974815.36622
 91  5 14 21  7 15.0020000  0  3G 2G19G 6
  21361483.955      119304.226 8     93652.76423
  23508588.150    13778987.623 6  10736861.63021
  21993768.002   -14162324.869 7 -10987869.60023
 91  5 14 21  7 30.0020000  0  3G 2G19G 6
  21362295.0804     123568.71448     96975.74763
  23516172.6044   13818826.73646  10767905.02661
  21990588.377   -14179026.602 7 -11000883.91823
 91  5 14 21  7 45.0020000  0  3G 2G19G 6
  21363122.9474     127912.67448    100360.66163
  23523759.9864   13858735.15546  10799002.43361
  21987420.768   -14195674.764 7 -11013856.49023
 91  5 14 21  8  0.0020000  0  3G 2G19G 6
  21363962.2214     132330.41048    103803.06563
  23531371.9084   13898707.26146  10830149.47661
  21984257.049   -14212274.760 7 -11026791.53423
 91  5 14 21  8 15.0020000  0  3G 2G19G 6
  21364818.986      136826.099 8    107306.21023
  23538990.775    13938747.162 6  10861349.32821
  21981107.189   -14228822.280 7 -11039685.68822
 91  5 14 21  8 30.0020000  0  3G 2G19G 6
  21365687.8854     141395.54648    110866.82863
  23546619.494    13978850.719 6  10892598.78121
  21977969.518   -14245321.281 7 -11052542.03323
 91  5 14 21  8 45.0020000  0  3G 2G19G 6
  21366571.3614     146041.27248    114486.88263
  23554265.346    14019020.688 6  10923899.97021
  21974843.643   -14261768.708 7 -11065358.18622
 91  5 14 21  9  0.0020000  0  3G 2G19G 6
  21367470.377      150759.770 8    118163.64323
  23561925.0574   14059253.50146  10955250.14461
  21971722.049   -14278167.961 7 -11078136.80422
 91  5 14 21  9 15.0020000  0  3G 2G19G 6
  21368383.174      155553.590 8    121899.10623
  23569591.057    14099551.785 6  10986651.33721
  21968609.736   -14294516.264 7 -11090875.72023
 91  5 14 21  9 30.0020000  0  3G 2G19G 6
  21369307.666      160417.941 8    125689.51723
  23577270.7684   14139910.61046  11018099.70661
  21965505.643   -14310818.222 7 -11103578.52523
 91  5 14 21  9 45.0020000  0  3G 2G19G 6
  21370246.3934     165355.98248    129537.34963
  23584961.4864   14180333.41646  11049597.93061
  21962416.799   -14327070.337 7 -11116242.48823
 91  5 14 21 10  0.0020000  0  3G 2G19G 6
  21371200.986      170364.165 8    133439.84323
  23592667.1744   14220816.61546  11081143.21061
  21959331.088   -14343275.976 7 -11128870.23522
 91  5 14 21 10 15.0020000  0  3G 2G19G 6
  21372167.369      175448.134 8    137401.39223
  23600381.3304   14261366.01246  11112740.07661
  21956257.104   -14359429.163 7 -11141457.11222
 91  5 14 21 10 30.0020000  0  3G 2G19G 6
  21373149.369      180600.743 8    141416.42823
  23608110.947    14301974.474 5  11144382.94821
  21953191.666   -14375536.804 7 -11154008.50422
 91  5 14 21 10 45.0020000  0  3G 2G19G 6
  21374142.135      185822.843 8    145485.61223
  23615848.7364   14342642.76746  11176072.43761
  21950135.439   -14391597.844 7 -11166523.57623
 91  5 14 21 11  0.0020000  0  4G13G 2G19G 6
  24754781.9944         -0.39354
  21375149.143      191114.159 8    149608.72723
  23623600.6434   14383370.91446  11207808.59461
  21947091.400   -14407612.085 7 -11179002.18323
 91  5 14 21 11 15.0020000  0  4G13G 2G19G 6
  24744161.8544     -55796.20043
  21376168.361      196475.442 8    153786.36623
  23631362.6504   14424159.56646  11239591.89761
  21944050.338   -14423578.624 7 -11191443.62723
 91  5 14 21 11 30.0020000  0  4G13G 2G19G 6
  24733551.346     -111567.620 5
  21377201.846      201903.748 8    158016.22323
  23639138.5804   14465005.74446  11271420.01761
  21941018.8304  -14439500.40947 -11203850.18862
 91  5 14 21 11 45.0020000  0  4G13G 2G19G 6
  24722942.4554    -167313.52844        -0.18971
  21378248.283      207399.723 8    162298.81423
  23646918.885    14505910.244 6  11303293.57721
  21937999.971   -14455376.283 7 -11216220.97922
 91  5 14 21 12  0.0020000  0  4G13G 2G19G 6
  24712339.197     -223028.367 4    -43414.09721
  21379307.5104     212968.36648    166638.02563
  23654714.869    14546878.051 6  11335216.46521
  21934987.018   -14471201.008 7 -11228551.91623
 91  5 14 21 12 15.0020000  0  4G13G 2G19G 6
  24701741.986     -278716.135 4    -86806.94221
  21380381.033      218605.050 8    171030.26223
  23662519.822    14587904.800 6  11367185.28621
  21931981.291   -14486978.851 7 -11240846.31922
 91  5 14 21 12 30.0020000  0  4G13G 2G19G 6
  24691150.1114    -334377.39944   -130179.10261
  21381466.369      224308.710 8    175474.68223
  23670339.283    14628989.234 6  11399199.04321
  21928989.510   -14502710.683 7 -11253104.87222
 91  5 14 21 12 45.0020000  0  4G13G 2G19G 6
  24680564.057     -390007.571 4   -173527.05821
  21382563.822      230083.698 8    179974.68423
  23678169.244    14670135.907 6  11431261.30221
  21926007.135   -14518391.967 7 -11265324.03323
 91  5 14 21 13  0.0020000  0  4G13G 2G19G 6
  24669984.760     -445604.953 4   -216849.47921
  21383676.189      235931.106 8    184531.12123
  23686015.369    14711345.962 6  11463372.96421
  21923033.189   -14534021.155 7 -11277502.60322
 91  5 14 21 13 15.0020000  0  4G13G 2G19G 6
  24659411.8544    -501169.05144   -260145.90461
  21384801.822      241851.070 8    189144.09623
  23693863.525    14752619.448 6  11495534.05721
  21920066.455   -14549598.022 7 -11289640.40122
 91  5 14 21 13 30.0020000  0  4G13G 2G19G 6
  24648842.010     -556702.331 5   -303418.36621
  21385942.580      247840.629 8    193811.29423
  23701733.307    14793953.448 6  11527742.28221
  21917116.127   -14565125.298 7 -11301739.55522
 91  5 14 21 13 45.0020000  0  4G13G 2G19G 6
  24638280.510     -612200.911 4   -346663.82021
  21387097.760      253903.015 8    198535.24523
  23709607.729    14835351.369 6  11560000.31221
  21914168.096   -14580599.322 7 -11313797.21122
 91  5 14 21 14  0.0020000  0  4G13G 2G19G 6
  24627725.6664    -667669.82845   -389886.04061
  21388261.416      260032.699 8    203311.63623
  23717497.064    14876807.805 6  11592303.94721
  21911236.127   -14596025.368 7 -11325817.48523
 91  5 14 21 14 15.0020000  0  4G13G 2G19G 6
  24617176.033     -723105.859 4   -433082.76821
  21389444.213      266232.522 8    208142.67823
  23725396.783    14918325.517 6  11624655.33421
  21908308.744   -14611400.556 7 -11337798.12923
 91  5 14 21 14 30.0020000  0  4G13G 2G19G 6
  24606632.0964    -778505.41044   -476251.02561
  21390636.299      272505.613 8    213030.81423
  23733312.947    14959907.512 6  11657056.81621
  21905392.119   -14626721.419 7 -11349736.44322
 91  5 14 21 14 45.0020000  0  4G13G 2G19G 6
  24596097.7604    -833867.55644   -519390.11161
  21391844.729      278852.333 8    217976.32223
  23741236.338    15001554.211 6  11689508.71121
  21902486.713   -14641987.230 7 -11361631.86222
 91  5 14 21 15  0.0020000  0  4G13G 2G19G 6
  24585572.049     -889192.420 5   -562500.18921
  21393066.8074     285272.19048    222978.81263
  23749173.283    15043265.208 6  11722010.70821
  21899592.049   -14657198.339 7 -11373484.64723
 91  5 14 21 15 15.0020000  0  4G13G 2G19G 6
  24575046.7214    -944484.91444   -605585.02161
  21394301.557      291759.720 8    228034.04323
  23757119.338    15085035.241 6  11754558.71021
  21896704.885   -14672359.794 7 -11385298.75223
 91  5 14 21 15 30.0020000  0  4G13G 2G19G 6
  24564533.885     -999739.928 5   -648640.64621
  21395548.8224     298319.53848    233145.59863
  23765083.6894   15126868.83945  11787156.22061
  21893832.689   -14687466.786 7 -11397070.41623
 91  5 14 21 15 45.0020000  0  4G13G 2G19G 6
  24554025.0414   -1054963.27145   -691671.58861
  21396811.2834     304945.51848    238308.70863
  23773053.9324   15168760.05346  11819798.63361
  21890964.557   -14702525.163 7 -11408804.20223
 91  5 14 21 16  0.0020000  0  4G13G 2G19G 6
  24543523.4244   -1110147.53645   -734672.11561
  21398085.322      311644.438 8    243528.65523
  23781036.9394   15210715.68845  11852491.24261
  21888113.736   -14717527.744 7 -11420494.50723
 91  5 14 21 16 15.0020000  0  4G13G 2G19G 6
  24533029.2754   -1165292.91945   -777642.31761
  21399373.3224     318415.63948    248804.92363
  23789034.5184   15252735.14546  11885233.58561
  21885269.869   -14732474.898 7 -11432141.61823
 91  5 14 21 16 30.0020000  0  4G13G 2G19G 6
  24522541.9394   -1220399.39445   -820582.21761
  21400674.8224     325258.52348    254137.04863
  23797046.9634   15294817.78246  11918025.19061
  21882432.807   -14747367.137 7 -11443745.94623
 91  5 14 21 16 45.0020000  0  4G13G 2G19G 6
  24512062.2834   -1275467.16545   -863491.94161
  21401991.6354     332172.49048    259524.56363
  23805060.361    15336963.031 6  11950865.57321
  21879613.955   -14762204.645 7 -11455307.62023
 91  5 14 21 17  0.0020000  0  4G13G 2G19G 6
  24501592.994    -1330492.803 5   -906368.81221
  21403320.8934     339160.33648    264969.64663
  23813099.0724   15379173.77045  11983756.96261
  21876796.994   -14776984.314 7 -11466824.22923
 91  5 14 21 17 15.0020000  0  4G13G 2G19G 6
  24491130.510    -1385474.282 4   -949211.34921
  21404663.9634     346223.97548    270473.79063
  23821138.494    15421451.996 6  12016700.93921
  21873996.033   -14791704.051 7 -11478294.14223
 91  5 14 21 17 30.0020000  0  4G13G 2G19G 6
  24480673.4084   -1440416.19445   -992023.01361
  21406023.9554     353358.07248    276032.83363
  23829196.041    15463792.462 5  12049693.41021
  21871206.697   -14806368.961 7 -11489721.32123
 91  5 14 21 17 45.0020000  0  4G13G 2G19G 6
  24470224.900    -1495320.939 5  -1034805.73121
  21407393.4394     360560.01248    281644.73963
  23837264.697    15506192.505 6  12082732.32521
  21868427.041   -14820981.477 7 -11501107.67423
 91  5 14 21 18  0.0020000  0  4G13G 2G19G 6
  24459785.0804   -1550194.37145  -1077564.03361
  21408774.7524     367823.36848    287304.50563
  23845345.6274   15548645.54445  12115812.54161
  21865652.729   -14835547.600 7 -11512457.89023
 91  5 14 21 18 15.0020000  0  4G13G 2G19G 6
  24449347.1044   -1605030.75545  -1120293.52861
  21410170.9794     375153.45448    293016.26763
  23853434.3074   15591157.09745  12148938.34661
  21862893.955   -14850061.815 7 -11523767.65123
 91  5 14 21 18 30.0020000  0  4G13G 2G19G 6
  24438921.5254   -1659829.88545  -1162993.89861
  21411577.9714     382549.92648    298779.75863
  23861538.0574   15633726.88045  12182109.50861
  21860139.494   -14864524.220 7 -11535037.04223
 91  5 14 21 18 45.0020000  0  4G13G 2G19G 6
  24428499.713    -1714595.532 4  -1205668.26221
  21412996.9244     390008.46048    304591.60963
  23869643.9634   15676350.61645  12215322.70761
  21857396.611   -14878938.693 7 -11546269.08423
 91  5 14 21 19  0.0020000  0  4G13G 2G19G 6
  24418082.7994   -1769331.28245  -1248319.27761
  21414426.2134     397524.82848    310448.52763
  23877766.9474   15719024.12545  12248574.70561
  21854662.939   -14893309.343 7 -11557466.97923
 91  5 14 21 19 15.0020000  0  4G13G 2G19G 6
  24407672.1584   -1824039.96044  -1290949.26161
  21415869.3144     405095.94348    316348.10563
  23885897.541    15761744.414 5  12281863.16221
  21851934.393   -14907638.976 7 -11568632.90223
 91  5 14 21 19 30.0020000  0  4G13G 2G19G 6
  24397267.674    -1878717.581 5  -1333555.00821
  21417320.9164     412725.57448    322293.27863
  23894042.4554   15804514.97545  12315190.78761
  21849216.627   -14921923.589 7 -11579763.75123
 91  5 14 21 19 45.0020000  0  4G13G 2G19G 6
  24386866.9244   -1933365.68345
  21418782.8304     420411.56548    328282.36663
  23902181.1974   15847333.86145  12348556.05561
  21846509.580   -14936164.980 7 -11590860.92923
 91  5 14 21 20  0.0020000  0  4G13G 2G19G 6
  24376473.5884   -1987979.42345
  21420256.2444     428158.25548    334318.75463
  23910345.3854   15890205.42445  12381962.36861
  21843805.525   -14950358.601 7 -11601920.87723
 91  5 14 21 20 15.0020000  0  4G13G 2G19G 6
  24366087.6434   -2042562.60145
  21421742.3544     435961.14848    340398.94263
  23918510.5804   15933125.29745  12415406.33761
  21841111.783   -14964508.678 7 -11612946.89023
 91  5 14 21 20 30.0020000  0  4G13G 2G19G 6
  24355705.7054   -2097118.19245
  21423235.7994     443816.84248    346520.26863
  23926684.768    15976090.141 5  12448885.35921
  21838431.096   -14978618.229 7 -11623941.33223
 91  5 14 21 20 45.0020000  0  4G13G 2G19G 6
  24345329.0414   -2151643.92145
  21424742.611      451726.793 8    352683.87623
  23934869.846    16019101.568 5  12482400.68021
  21835750.182   -14992685.584 7 -11634902.88623
 91  5 14 21 21  0.0020000  0  4G13G 2G19G 6
  24334959.5724   -2206137.70245
  21426258.041      459693.170 8    358891.45623
  23943064.330    16062161.536 5  12515953.80721
  21833081.752   -15006708.265 7 -11645829.62823
 91  5 14 21 21 15.0020000  0  4G13G 2G19G 6
  24324596.658    -2260603.510 5
  21427783.088      467711.202 8    365139.28423
  23951268.4944   16105265.29645  12549541.05561
  21830421.713   -15020690.748 7 -11656725.04923
 91  5 14 21 21 30.0020000  0  4G13G 2G19G 6
  24314236.080    -2315037.447 5        -0.05231
  21429318.369      475784.749 8    371430.37023
  23959478.6744   16148416.78145  12583165.49361
  21827769.588   -15034628.974 7 -11667585.98922
 91  5 14 21 21 45.0020000  0  4G13G 2G19G 6
  24303881.979    -2369441.685 5    -42392.78221
  21430865.729      483910.728 8    377762.31423
  23967698.236    16191612.954 5  12616824.76721
  21825123.455   -15048525.707 7 -11678414.59923
 91  5 14 21 22  0.0020000  0  4G13G 2G19G 6
  24293537.2994   -2423817.23645    -84763.14561
  21432422.463      492087.940 8    384134.17723
  23975929.533    16234852.675 5  12650517.98521
  21822488.830   -15062381.730 7 -11689211.48123
 91  5 14 21 22 15.0020000  0  4G13G 2G19G 6
  24283195.330    -2478159.501 5   -127107.59421
  21433989.385      500320.473 8    390549.15323
  23984164.2444   16278140.10345  12684248.37861
  21819861.5884  -15076192.86647 -11699973.39263
 91  5 14 21 22 30.0020000  0  4G13G 2G19G 6
  24272860.736    -2532467.618 5   -169425.42421
  21435566.7914     508608.48348    397007.35063
  23992415.830    16321475.195 5  12718015.89721
  21817242.9244  -15089958.67447 -11710699.98763
 91  5 14 21 22 45.0020000  0  4G13G 2G19G 6
  24262533.705    -2586740.337 5
  21437153.658      516952.763 8    403509.39623
  24000667.3384   16364858.97145  12751821.33561
  21814629.291   -15103678.141 7 -11721390.46523
 91  5 14 21 23  0.0020000  0  4G13G 2G19G 6
  24252211.3774   -2640976.57045
  21438751.7294     525354.13448    410055.93063
  24008933.2754   16408292.16945  12785665.29261
  21812028.283   -15117350.174 7 -11732043.98323
 91  5 14 21 23 15.0020000  0  4G13G 2G19G 6
  24241895.643    -2695181.993 5        -0.35631
  21440361.627      533806.341 8    416642.07923
  24017203.541    16451768.791 5  12819543.09721
  21809432.838   -15130980.526 7 -11742665.01923
 91  5 14 21 23 30.0020000  0  4G13G 2G19G 6
  24231589.025    -2749355.524 5    -42213.22221
  21441978.916      542309.814 8    423268.17323
  24025486.752    16495289.165 5  12853454.98121
  21806850.135   -15144568.547 7 -11753253.07223
 91  5 14 21 23 45.0020000  0  4G13G 2G19G 6
  24221285.1894   -2803495.88045    -84400.30361
  21443607.6114     550865.66148    429935.07863
  24033776.6664   16538854.42045  12887401.83761
  21804272.861   -15158112.949 7 -11763807.13123
 91  5 14 21 24  0.0020000  0  4G13G 2G19G 6
  24210989.0024   -2857602.28845   -126560.95561
  21445246.3224     559474.04148    436642.91463
  24042078.689    16582464.786 5  12921383.85921
  21801702.486   -15171613.212 7 -11774326.80323
 91  5 14 21 24 15.0020000  0  4G13G 2G19G 6
  24200700.6824   -2911674.38645   -168694.85861
  21446893.221      568134.710 8    443391.50123
  24050381.6824   16626120.06045  12955400.86961
  21799142.080   -15185069.304 7 -11784812.05123
 91  5 14 21 24 30.0020000  0  4G13G 2G19G 6
  24190416.322    -2965711.715 5   -210801.67821
  21448551.2834     576847.82348    450180.94663
  24058699.314    16669820.272 5  12989452.90421
  21796588.596   -15198480.712 7 -11795262.48123
 91  5 14 21 24 45.0020000  0  4G13G 2G19G 6
  24180140.291    -3019712.173 5   -252879.69521
  21450218.6974     585614.98548    457012.50863
  24067023.5024   16713567.13845  13023541.27361
  21794047.479   -15211845.641 7 -11805676.69123
 91  5 14 21 25  0.0020000  0  4G13G 2G19G 6
  24169870.4084   -3073676.33045   -294929.50661
  21451898.283      594435.137 8    463885.36523
  24075358.2604   16757359.67245  13057665.23161
  21791516.338   -15225164.907 7 -11816055.31823
 91  5 14 21 25 15.0020000  0  4G13G 2G19G 6
  24159608.275    -3127601.507 5   -336948.90421
  21453585.307      603310.407 8    470801.17523
  24083697.604    16801199.999 5  13091826.41621
  21788985.908   -15238435.947 7 -11826396.36223
 91  5 14 21 25 30.0020000  0  4G13G 2G19G 6
  24149356.533    -3181489.150 5   -378939.07321
  21455287.033      612239.293 8    477758.75923
  24092054.502    16845086.498 5  13126023.58921
  21786470.604   -15251660.308 7 -11836701.03923
 91  5 14 21 25 45.0020000  0  4G13G 2G19G 6
  24139107.268    -3235337.709 5   -420898.80121
  21456995.018      621222.697 8    484758.83123
  24100411.5574   16889020.18545  13160257.54061
  21783961.861   -15264836.600 7 -11846968.26023
 91  5 14 21 26  0.0020000  0  4G13G 2G19G 6
  24128867.0574   -3289149.41845   -462829.76561
  21458714.8144     630257.68248    491799.08363
  24108781.6504   16932998.34945  13194526.15161
  21781462.5334  -15277967.38247 -11857200.02763
 91  5 14 21 26 15.0020000  0  4G13G 2G19G 6
  24118633.9554   -3342921.62045   -504729.99061
  21460443.924      639346.503 8    498881.29223
  24117157.721    16977023.055 5  13228831.03721
  21778974.080   -15291050.142 7 -11867394.36923
 91  5 14 21 26 30.0020000  0  4G13G 2G19G 6
  24108408.557    -3396655.881 5   -546600.62321
  21462183.830      648486.773 8    506003.59323
  24125547.1894   17021091.84945  13263170.26261
  21776494.291   -15304087.031 7 -11877552.96723
 91  5 14 21 26 45.0020000  0  4G13G 2G19G 6
  24098193.783    -3450347.549 5   -588438.05521
  21463933.6274     657682.92848    513169.43563
  24133940.268    17065209.441 5  13297547.51421
  21774021.166   -15317073.288 7 -11887672.10823
 91  5 14 21 27  0.0020000  0  4G13G 2G19G 6
  24087982.564    -3503999.694 5   -630244.72921
  21465694.1664     666931.36648    520376.01663
  24142345.643    17109372.153 5  13331959.90721
  21771559.752   -15330012.237 7 -11897754.38723
 91  5 14 21 27 15.0020000  0  4G13G 2G19G 6
  24077780.9244   -3557607.92545   -672017.17361
  21467463.7294     676236.04248    527626.42263
  24150756.2134   17153583.81045  13366410.46461
  21769105.549   -15342899.799 7 -11907796.62923
 91  5 14 21 27 30.0020000  0  4G13G 2G19G 6
  24067586.525    -3611174.019 5   -713756.82121
  21469246.0494     685594.82248    534918.98663
  24159180.4944   17197842.40345  13400897.59261
  21766667.314   -15355737.689 7 -11917800.16323
 91  5 14 21 27 45.0020000  0  4G13G 2G19G 6
  24057399.8774   -3664701.74445   -755466.51761
  21471033.9944     695003.72948    542250.61363
  24167608.0184   17242144.00145  13435418.22761
  21764231.354   -15368529.683 7 -11927767.92523
 91  5 14 21 28  0.0020000  0  4G13G 2G19G 6
  24047224.369    -3718187.914 5   -797143.82421
  21472835.6274     704465.21648    549623.20963
  24176051.643    17286491.094 5  13469974.30221
  21761805.768   -15381272.964 7 -11937697.74123
 91  5 14 21 28 15.0020000  0  4G13G 2G19G 6
  24037051.174    -3771635.283 5   -838790.94621
  21474646.3384     713975.99148    557034.21063
  24184495.4004   17330880.32345  13504563.21861
  21759390.197   -15393970.504 7 -11947591.90723
 91  5 14 21 28 30.0020000  0  4G13G 2G19G 6
  24026889.135    -3825038.184 5   -880403.38921
  21476465.7294     723541.19548    564487.62163
  24192951.705    17375316.743 5  13539188.89521
  21756981.541   -15406617.077 7 -11957446.36123
 91  5 14 21 28 45.0020000  0  4G13G 2G19G 6
  24016734.3384   -3878397.30145   -921981.75561
  21478295.393      733159.768 8    571982.62723
  24201416.6504   17419799.42545  13573850.63061
  21754586.166   -15419213.243 7 -11967261.53823
 91  5 14 21 29  0.0020000  0  4G13G 2G19G 6
  24006590.4084   -3931710.30345   -963524.16361
  21480138.760      742833.503 8    579520.61023
  24209895.846    17464330.346 5  13608549.93321
  21752197.885   -15431757.033 7 -11977035.90023
 91  5 14 21 29 15.0020000  0  4G13G 2G19G 6
  23996452.385    -3984978.532 5  -1005031.67421
  21481988.252      752560.660 8    587100.22623
  24218375.072    17508907.737 5  13643285.45421
  21749823.377   -15444249.859 7 -11986770.54823
 91  5 14 21 29 30.0020000  0  4G13G 2G19G 6
  23986326.611    -4038204.253 6  -1046506.06121
  21483849.6434     762338.54948    594719.36663
  24226869.2834   17553528.86845  13678055.06361
  21747451.7524  -15456693.99447 -11996467.27263
 91  5 14 21 29 45.0020000  0  4G13G 2G19G 6
  23976205.4634   -4091383.12245  -1087943.99561
  21485720.525      772170.931 8    602380.97223
  24235363.6354   17598197.40445  13712861.64461
  21745096.416   -15469085.661 7 -12006123.09123
 91  5 14 21 30  0.0020000  0  4G13G 2G19G 6
  23966095.2754   -4144516.14645  -1129346.17961
  21487599.1824     782056.48448    610084.01163
  24243872.8544   17642912.14345  13747704.19961
  21742748.205   -15481425.567 7 -12015738.58823
 91  5 14 21 30 15.0020000  0  5G13G 2G15G19G 6
  23955992.166    -4197606.222 5  -1170714.87221
  21489492.2294     791991.68848    617825.73363
  24976532.0334         -0.87155
  24252391.635    17687669.454 5  13782579.92021
  21740410.049   -15493717.325 7 -12025316.56523
 91  5 14 21 30 30.0020000  0  5G13G 2G15G19G 6
  23945896.260    -4250649.078 5  -1212046.84821
  21491391.4474     801980.40948    625609.16163
  24973997.4944     -13341.43445
  24260916.2214   17732473.36145  13817491.93761
  21738078.799   -15505956.547 7 -12034853.59823
 91  5 14 21 30 45.0020000  0  5G13G 2G15G19G 6
  23935811.8144   -4303645.53345  -1253342.59661
  21493303.963      812021.534 8    633433.42423
  24971476.3614     -26579.29245
  24269450.135    17777322.670 5  13852439.34621
  21735759.275   -15518144.192 7 -12044350.45023
 91  5 14 21 31  0.0020000  0  5G13G 2G15G19G 6
  23925735.143    -4356593.056 5  -1294600.25721
  21495224.5494     822116.89948    641299.95363
  24968973.6824     -39712.04945
  24277997.4244   17822219.28245  13887423.62861
  21733449.252   -15530278.095 7 -12053805.42423
 91  5 14 21 31 15.0020000  0  5G13G 2G15G19G 6
  23915668.2604   -4409490.12745  -1335818.59161
  21497155.0884     832267.68448    649209.65963
  24966500.635      -52738.060 5
  24286547.564    17867164.327 5  13922445.64121
  21731150.650   -15542356.802 7 -12063217.38823
 91  5 14 21 31 30.0020000  0  5G13G 2G15G19G 6
  23905613.854    -4462339.201 5  -1376999.55521
  21499098.1894     842470.87048    657160.19963
  24964040.1664     -65660.06345        -0.18671
  24295109.689    17912154.805 5  13957503.05621
  21728861.463   -15554382.980 7 -12072588.41223
 91  5 14 21 31 45.0020000  0  5G13G 2G15G19G 6
  23895567.150    -4515138.377 6  -1418141.58821
  21501049.7994     852727.74448    665152.57163
  24961600.6044     -78476.36845     -9986.85361
  24303680.5334   17957192.04445  13992596.90061
  21726587.588   -15566355.074 7 -12081917.30623
 91  5 14 21 32  0.0020000  0  5G13G 2G15G19G 6
  23885528.9794   -4567887.88846  -1459244.95661
  21503011.2524     863037.83748    673186.41363
  24959180.877      -91187.275 5    -19891.37221
  24312266.6274   18002275.58845  14027726.83561
  21724317.400   -15578273.230 7 -12091204.17023
 91  5 14 21 32 15.0020000  0  5G13G 2G15G19G 6
  23875500.861    -4620588.248 6  -1500310.00121
  21504982.8544     873399.91248    681260.76463
  24956783.6504    -103793.22945    -29714.09861
  24320845.2444   18047404.40845  14062892.05161
  21722056.932   -15590138.237 7 -12100449.61823
 91  5 14 21 32 30.0020000  0  5G13G 2G15G19G 6
  23865481.846    -4673236.413 6  -1541334.39821
  21506965.3464     883816.62648    689377.68963
  24954402.5574    -116291.43245    -39452.88561
  24329447.3224   18092580.89345  14098094.39161
  21719811.479   -15601947.315 7 -12109651.48423
 91  5 14 21 32 45.0020000  0  5G13G 2G15G19G 6
  23855470.8074   -4725835.24345  -1582320.34461
  21508955.3464     894284.55748    697534.52063
  24952046.158     -128685.040 5    -49110.16121
  24338048.119    18137801.735 5  14133331.31421
  21717573.182   -15613703.484 7 -12118812.12123
 91  5 14 21 33  0.0020000  0  5G13G 2G15G19G 6
  23845470.854    -4778379.324 5  -1623263.64821
  21510957.4164     904808.81348    705735.23963
  24949705.572     -140968.657 5    -58681.73921
  24346663.0884   18183071.91145  14168606.67661
  21715348.541   -15625401.556 7 -12127927.48323
 91  5 14 21 33 15.0020000  0  5G13G 2G15G19G 6
  23835481.4164   -4830872.87345  -1664167.57361
  21512973.4394     915384.66948    713976.16963
  24947388.627     -153146.986 6    -68171.25721
  24355283.0574   18228386.73245  14203916.82161
  21713133.729   -15637045.966 7 -12137001.03023
 91  5 14 21 33 30.0020000  0  5G13G 2G15G19G 6
  23825502.8304   -4883313.88945  -1705030.53161
  21514993.2834     926013.72648    722258.55263
  24945095.260     -165217.799 5    -77577.00321
  24363918.525    18273747.835 5  14239263.02821
  21710929.4004  -15648634.68447 -12146031.19063
 91  5 14 21 33 45.0020000  0  5G13G 2G15G19G 6
  23815534.572    -4935700.381 5  -1745851.05821
  21517027.2684     936697.70248    730583.73663
  24942815.2524    -177178.95045    -86897.29861
  24372559.346    18319156.937 5  14274646.62221
  21708734.127   -15660165.804 7 -12155016.46023
 91  5 14 21 34  0.0020000  0  5G13G 2G15G19G 6
  23805574.158    -4988033.677 5  -1786630.08421
  21519070.6274     947434.52148    738950.08963
  24940562.447     -189032.201 5    -96133.55821
  24381213.4714   18364611.88945  14310065.97161
  21706553.0254  -15671641.18247 -12163958.30463
 91  5 14 21 34 15.0020000  0  5G13G 2G15G19G 6
  23795626.807    -5040318.160 5  -1827371.09121
  21521122.2834     958219.28248    747353.80263
  24938327.174     -200782.158 5   -105289.28321
  24389867.5024   18410107.92445  14345517.33561
  21704375.088   -15683065.349 7 -12172860.23323
 91  5 14 21 34 30.0020000  0  5G13G 2G15G19G 6
  23785685.5574   -5092546.20045  -1868068.11361
  21523187.2684     969059.45348    755800.69463
  24936114.729     -212420.907 5   -114358.35121
  24398535.143    18455652.599 5  14381006.57621
  21702213.049   -15694430.487 7 -12181716.17123
 91  5 14 21 34 45.0020000  0  5G13G 2G15G19G 6
  23775759.213    -5144720.016 5  -1908722.89921
  21525259.5884     979952.28748    764288.62363
  24933917.7294    -223950.99045   -123342.76761
  24407213.807    18501243.013 5  14416531.45721
  21700061.127   -15705739.113 7 -12190528.08023
 91  5 14 21 35  0.0020000  0  5G13G 2G15G19G 6
  23765842.0644   -5196837.19945  -1949333.56861
  21527342.7834     990899.52848    772818.94363
  24931743.549     -235370.412 6   -132240.96521
  24415897.041    18546880.841 5  14452093.27821
  21697920.4474  -15716989.25847 -12199294.41563
 91  5 14 21 35 15.0020000  0  5G13G 2G15G19G 6
  23755934.088    -5248899.139 5  -1989901.15721
  21529435.0724    1001899.46448    781390.32663
  24929591.5644    -246680.55846
  24424587.7444   18592564.38245  14487690.72761
  21695791.127   -15728182.308 7
 91  5 14 21 35 30.0020000  0  5G13G 2G15G19G 6
  23746037.6974   -5300903.47945  -2030423.89261
  21531539.9244    1012953.95748    790004.22363
  24927459.9394    -257878.88045
  24433292.2444   18638295.77145  14523325.45761
  21693669.721   -15739315.973 7
 91  5 14 21 35 45.0020000  0  5G13G 2G15G19G 6
  23736153.627    -5352849.519 5  -2070901.17221
  21533651.5644    1024063.17948    798660.76463
  24925350.736     -268964.950 6
  24442003.1504   18684075.01745  14558997.48361
  21691567.494   -15750389.920 7
 91  5 14 21 36  0.0020000  0  5G13G 2G15G19G 6
  23726277.5254   -5404739.33245  -2111334.63461
  21535776.9324    1035224.78948    807358.12863
  24923260.1824    -279940.88845
  24450723.8694   18729899.75845  14594704.98061
  21689469.127   -15761406.186 7
 91  5 14 21 36 15.0020000  0  5G13G 2G15G19G 6
  23716413.0494   -5456574.43945  -2151725.50361
  21537909.8304    1046436.59248    816094.59863
  24921191.3144    -290808.43545   -175439.10961
  24459450.729    18775767.860 5  14630446.26821
  21687385.275   -15772366.538 7 -12242445.47423
 91  5 14 21 36 30.0020000  0  5G13G 2G15G19G 6
  23706561.861    -5508349.346 5  -2192069.44821
  21540055.3304    1057703.66348    824874.13663
  24919148.5184    -301562.43546   -183818.80661
  24468194.986    18821684.348 5  14666225.24321
  21685309.7134  -15783265.72247 -12250938.33563
 91  5 14 21 36 45.0020000  0  5G13G 2G15G19G 6
  23696721.0644   -5560065.35346  -2232367.51061
  21542210.0804    1069024.44448    833695.52963
  24917124.4084    -312204.35046   -192111.13061
  24476934.580    18867647.489 5  14702040.57221
  21683244.416   -15794105.154 7 -12259384.62923
 91  5 14 21 37  0.0020000  0  5G13G 2G15G19G 6
  23686889.2214   -5611723.27546  -2272620.29261
  21544372.3694    1080397.26948    842557.47463
  24915120.3224    -322735.09646   -200316.85461
  24485689.6434   18913655.88045  14737891.14961
  21681194.8074  -15804886.04747 -12267785.31663
 91  5 14 21 37 15.0020000  0  5G13G 2G15G19G 6
  23677071.5334   -5663320.20446  -2312825.55761
  21546549.1274    1091824.84648    851462.08363
  24913137.783     -333151.638 6   -208433.60321
  24494454.322    18959712.090 5  14773778.97521
  21679152.6044  -15815605.28347 -12276137.95563
 91  5 14 21 37 30.0020000  0  5G13G 2G15G19G 6
  23667266.1974   -5714856.12646  -2352983.28361
  21548732.9714    1103306.74148    860409.01963
  24911175.697     -343454.328 6   -216461.61121
  24503229.1744   19005815.67845  14809703.76161
  21677124.9794  -15826263.19547 -12284442.81463
 91  5 14 21 37 45.0020000  0  5G13G 2G15G19G 6
  23657468.5644   -5766331.50546  -2393093.83361
  21550927.4554    1114841.85548    869397.42363
  24909238.8694    -353643.93145   -224401.50561
  24512012.0804   19051965.50445  14845664.53861
  21675110.0884  -15836860.61847 -12292700.53763
 91  5 14 21 38  0.0020000  0  5G13G 2G15G19G 6
  23647686.971    -5817745.270 6  -2433156.38121
  21553132.1194    1126430.70648    878427.70563
  24907320.3224    -363719.32545   -232252.40261
  24520806.322    19098162.225 5  14881661.87121
  21673103.799   -15847396.547 7 -12300910.33623
 91  5 14 21 38 15.0020000  0  5G13G 2G15G19G 6
  23637913.588    -5869096.758 5  -2473170.37221
  21555348.1114    1138073.66648    887500.14263
  24905422.9394    -373680.14945   -240014.01361
  24529601.377    19144406.141 5  14917695.96221
  21671113.6044  -15857870.42147 -12309071.78263
 91  5 14 21 38 30.0020000  0  5G13G 2G15G19G 6
  23628155.6044   -5920385.36546  -2513135.39961
  21557574.6894    1149770.93248    896614.90063
  24903550.2754    -383525.76545   -247685.86361
  24538409.1974   19190697.49045  14953767.02461
  21669131.4004  -15868281.86047 -12317184.58163
 91  5 14 21 38 45.0020000  0  5G13G 2G15G19G 6
  23618402.5644   -5971612.68745  -2553052.69961
  21559810.7994    1161520.35048    905770.29563
  24901701.447     -393258.142 6   -255269.46021
  24547225.018    19237033.965 5  14989873.25021
  21667160.885   -15878632.699 7 -12325250.16023
 91  5 14 21 39  0.0020000  0  5G13G 2G15G19G 6
  23608670.4084   -6022779.13346  -2592922.51561
  21562055.2294    1173321.40448    914965.92563
  24899866.908     -402877.052 6   -262764.67221
  24556054.5334   19283415.09545  15026014.27761
  21665202.8224  -15888922.98147 -12333268.55063
 91  5 14 21 39 15.0020000  0  5G13G 2G15G19G 6
  23598943.799    -6073880.967 6  -2632742.01221
  21564311.7364    1185177.18748    924204.20463
  24898059.2604    -412379.22645   -270168.93361
  24564890.533    19329844.160 5  15062192.68521
  21663256.2754  -15899149.44947 -12341237.21963
 91  5 14 21 39 30.0020000  0  5G13G 2G15G19G 6
  23589232.6194   -6124920.56446  -2672512.97761
  21566578.5024    1197084.78748    933482.86263
  24896270.713     -421767.424 5   -277484.32921
  24573730.666    19376318.127 5  15098406.03921
  21661321.0414  -15909314.79647 -12349158.25963
 91  5 14 21 39 45.0020000  0  5G13G 2G15G19G 6
  23579530.9164   -6175895.80246  -2712233.79861
  21568853.6354    1209045.87248    942803.19163
  24894509.283     -431039.816 5   -284709.49121
  24582584.8614   19422838.57245  15134655.61561
  21659400.2914  -15919417.00047 -12357030.10063
 91  5 14 21 40  0.0020000  0  5G13G 2G15G19G 6
  23569843.9244   -6226806.04946  -2751904.00561
  21571139.7444    1221060.37748    952165.14964
  24892765.455     -440196.023 5   -291844.16321
  24591448.244    19469405.497 5  15170941.40721
  21657489.4714  -15929455.75947 -12364852.49763
 91  5 14 21 40 15.0020000  0  5G13G 2G15G19G 6
  23560167.7054   -6277654.66146  -2791526.16461
  21573436.2604    1233124.76148    961565.97263
  24891045.158     -449239.289 6   -298890.80521
  24600316.252    19516015.313 5  15207260.63521
  21655591.4394  -15939434.36647 -12372628.02363
 91  5 14 21 40 30.0020000  0  5G13G 2G15G19G 6
  23550503.963    -6328437.575 6  -2831097.14521
  21575740.2834    1245242.55248    971008.41063
  24889347.900     -458165.715 6   -305846.41221
  24609199.6044   19562671.53745  15243615.99661
  21653703.7524  -15949349.07147 -12380353.75863
 91  5 14 21 40 45.0020000  0  5G13G 2G15G19G 6
  23540852.814    -6379152.377 6  -2870615.05721
  21578058.0964    1257416.08048    980494.28863
  24887670.7914    -466972.82446   -312709.02961
  24618083.5334   19609376.22445  15280009.15061
  21651830.5184  -15959197.37347 -12388027.75363
 91  5 14 21 41  0.0020000  0  5G13G 2G15G19G 6
  23531214.3144   -6429798.96445  -2910079.82461
  21580385.3304    1269644.82848    990023.18364
  24886016.455     -475660.827 6   -319478.82921
  24626980.252    19656129.094 5  15316439.82221
  21649967.0254  -15968979.33847 -12395650.05563
 91  5 14 21 41 15.0020000  0  5G13G 2G15G19G 6
  23521588.3464   -6480380.94745  -2949494.22561
  21582722.4554    1281924.42948    999591.71064
  24884386.572     -484233.737 5   -326158.94521
  24635886.596    19702925.842 5  15352904.70121
  21648117.908   -15978698.976 7 -12403223.78423
 91  5 14 21 41 30.0020000  0  5G13G 2G15G19G 6
  23511974.502    -6530896.218 5  -2988856.64821
  21585070.3854    1294256.57548   1009201.17763
  24882777.846     -492689.345 6   -332747.69421
  24644804.721    19749768.072 5  15389405.01521
  21646282.6974  -15988354.30647 -12410747.41463
 91  5 14 21 41 45.0020000  0  5G13G 2G15G19G 6
  23502376.182    -6581347.569 6  -3028169.25121
  21587426.3224    1306638.07148   1018849.10163
  24881186.135     -501030.660 5   -339247.37521
  24653721.5414   19796652.46145  15425938.17461
  21644456.643   -15997948.365 7 -12418223.28823
 91  5 14 21 42  0.0020000  0  5G13G 2G15G19G 6
  23492786.322    -6631729.647 6  -3067427.88721
  21589791.0184    1319073.98748   1028539.42863
  24879621.3144    -509252.42345   -345653.87561
  24662654.5104   19843584.03845  15462508.12061
  21642642.557   -16007475.842 7 -12425647.28223
 91  5 14 21 42 15.0020000  0  5G13G 2G15G19G 6
  23483213.736    -6682039.789 6  -3106630.47921
  21592171.1894    1331566.28748   1038273.69463
  24878081.979     -517352.421 5   -351965.51921
  24671589.799    19890564.889 5  15499116.43521
  21640842.705   -16016934.464 7 -12433017.62423
 91  5 14 21 42 30.0020000  0  5G13G 2G15G19G 6
  23473651.2524   -6732282.16145  -3145780.26461
  21594555.5184    1344110.44348   1048048.36464
  24876563.869     -525334.645 6   -358185.38621
  24680543.3544   19937590.50045  15535759.64561
  21639053.814   -16026328.252 7 -12440337.44423
 91  5 14 21 42 45.0020000  0  5G13G 2G15G19G 6
  23464107.2834   -6782450.68446  -3184872.46661
  21596953.5574    1356712.16648   1057867.89263
  24875068.182     -533193.368 5   -364309.01121
  24689498.6194   19984666.41645  15572442.05061
  21637280.697   -16035651.477 7 -12447602.28423
 91  5 14 21 43  0.0020000  0  5G13G 2G15G19G 6
  23454571.6274   -6832554.26746  -3223914.09761
  21599360.8694    1369362.02248   1067724.93163
  24873595.236     -540937.618 5   -370343.44221
  24698467.127    20031783.372 5  15609156.45921
  21635517.885   -16044913.040 7 -12454819.06423
 91  5 14 21 43 15.0020000  0  5G13G 2G15G19G 6
  23445049.518    -6882586.776 6  -3262900.34721
  21601779.4324    1382065.73248   1077623.93363
  24872144.9324    -548561.22645   -376283.87561
  24707437.6584   20078946.95245  15645907.18461
  21633769.2754  -16054106.91547 -12461983.11663
 91  5 14 21 43 30.0030000  0  5G13G 2G15G19G 6
  23435539.530    -6932553.025 5  -3301834.96021
  21604205.9994    1394822.36148   1087564.16864
  24870715.069     -556066.243 5   -382131.87721
  24716424.2334   20126158.56645  15682695.31361
  21632031.163   -16063235.389 7 -12469096.19823
 91  5 14 21 43 45.0030000  0  5G13G 2G15G19G 6
  23426048.335    -6982442.013 5  -3340709.36921
  21606643.9134    1407633.78748   1097547.10363
  24869309.937     -563447.718 5   -387883.63321
  24725415.8044   20173415.50645  15719518.76461
  21630307.937   -16072293.327 7 -12476154.31923
 91  5 14 21 44  0.0030000  0  5G13G 2G15G19G 6
  23416566.8514   -7032259.97246  -3379528.43161
  21609092.8354    1420497.78448   1107571.00163
  24867928.0384    -570709.35545   -393542.01861
  24734419.655    20220717.734 5  15756377.52821
  21628598.991   -16081284.219 7 -12483160.19323
 91  5 14 21 44 15.0030000  0  5G13G 2G15G19G 6
  23407103.9834   -7082003.34446  -3418289.37761
  21611551.0464    1433417.35148   1117638.19864
  24866569.4524    -577847.58245   -399104.23961
  24743426.726    20268068.120 5  15793273.79321
  21626897.7264  -16090204.69847 -12490111.20763
 91  5 14 21 44 30.0030000  0  5G13G 2G15G19G 6
  23397651.733    -7131672.547 6  -3456992.51821
  21614017.8514    1446391.78148   1127748.14763
  24865236.0544    -584863.19645   -404570.93661
  24752454.491    20315465.881 4  15830206.98021
  21625214.5384  -16099055.25647 -12497007.73263
 91  5 14 21 44 45.0030000  0  5G13G 2G15G19G 6
  23388211.4834   -7181270.02346  -3495639.77961
  21616498.9374    1459418.16848   1137898.57663
  24863926.171     -591758.441 5   -409943.79721
  24761476.8044   20362908.11745  15867174.85661
  21623544.272   -16107838.422 7 -12503851.74423
 91  5 14 21 45  0.0030000  0  5G13G 2G15G19G 6
  23378787.2654   -7230798.40046  -3534233.18661
  21618985.4444    1472493.15948   1148086.89263
  24862633.4294    -598536.38545   -415225.27361
  24770516.6404   20410391.83544  15904175.00061
  21621887.022   -16116557.122 7 -12510645.52423
 91  5 14 21 45 15.0030000  0  5G13G 2G15G19G 6
  23369378.8354   -7280255.38646  -3572770.96061
  21621482.4914    1485618.71948   1158314.60264
  24861363.9444    -605194.89145   -420413.67561
  24779556.288    20457918.853 5  15941208.92221
  21620238.726   -16125209.131 7 -12517387.33023
 91  5 14 21 45 30.0030000  0  5G13G 2G15G19G 6
  23359976.890    -7329637.421 6  -3611250.34721
  21623994.1084    1498797.99748   1168584.17363
  24860127.522     -611730.523 5   -425506.32921
  24788612.624    20505491.965 5  15978278.76721
  21618604.437   -16133791.231 7 -12524074.66523
 91  5 14 21 45 45.0030000  0  5G13G 2G15G19G 6
  23350594.538    -7378944.036 6  -3649670.96621
  21626511.3904    1512031.17048   1178895.74263
  24858901.3434    -618142.77345   -430502.84461
  24797668.718    20553111.467 5  16015384.73421
  21616985.108   -16142302.897 7 -12530707.11323
 91  5 14 21 46  0.0030000  0  5G13G 2G15G19G 6
  23341228.0304   -7428176.66646  -3688033.92461
  21629038.2724    1525316.25648   1189247.75863
  24857706.1794    -624433.25645   -435404.53461
  24806745.101    20600775.426 4  16052525.37721
  21615379.382   -16150745.682 7 -12537285.89423
 91  5 14 21 46 15.0030000  0  5G13G 2G15G19G 6
  23331874.765    -7477332.759 6  -3726337.23521
  21631576.8974    1538655.38548   1199641.89163
  24856533.562     -630599.702 5   -440209.52821
  24815821.608    20648485.963 5  16089702.26821
  21613787.093   -16159117.268 7 -12543809.19123
 91  5 14 21 46 30.0030000  0  5G13G 2G15G19G 6
  23322531.991    -7526414.190 6  -3764582.35821
  21634126.3194    1552046.14448   1210076.25164
  24855379.6944    -636644.45845   -444919.69661
  24824912.2964   20696240.55744  16126913.54061
  21612204.397   -16167419.805 7 -12550278.68923
 91  5 14 21 46 45.0030000  0  5G13G 2G15G19G 6
  23313207.0774   -7575417.82046  -3802766.85161
  21636683.6794    1565491.07648   1220552.82563
  24854255.3974    -642564.54945   -449532.71761
  24834004.4604   20744041.74945  16164161.10861
  21610640.812   -16175650.452 7 -12556692.16723
 91  5 14 21 47  0.0030000  0  5G13G 2G15G19G 6
  23303899.335    -7624347.651 6  -3840893.86121
  21639252.5464    1578985.86348   1231068.24964
  24853151.9134    -648364.05346   -454051.76961
  24843111.382    20791885.258 4  16201441.61521
  21609086.702   -16183813.087 7 -12563052.64523
 91  5 14 21 47 15.0030000  0  5G13G 2G15G19G 6
  23294601.1874   -7673202.81546  -3878962.70161
  21641828.2184    1592531.19848   1241623.05763
  24852074.5464    -654041.95846   -458476.07461
  24852220.8664   20839771.57644  16238755.50361
  21607547.257   -16191906.998 7 -12569359.57623
 91  5 14 21 47 30.0030000  0  5G13G 2G15G19G 6
  23285315.5154   -7721982.86346  -3916972.98761
  21644416.3434    1606126.88048   1252217.09663
  24851014.8514    -659598.30945   -462805.65961
  24861345.038    20887700.623 4  16276102.69121
  21606019.8434  -16199931.85747 -12575612.70463
 91  5 14 21 47 45.0030000  0  5G13G 2G15G19G 6
  23276049.655    -7770684.815 6  -3954922.42721
  21647014.1324    1619775.64448   1262852.49663
  24849980.5854    -665030.05445   -467038.15161
  24870473.3354   20935675.10144  16313485.26761
  21604508.546   -16207884.758 7 -12581809.75723
 91  5 14 21 48  0.0030000  0  5G13G 2G15G19G 6
  23266795.835    -7819308.694 6  -3992811.01321
  21649618.9444    1633476.84848   1273528.76763
  24848970.3354    -670337.25746   -471173.60361
  24879611.1874   20983694.16744  16350902.58861
  21603005.7104  -16215766.03247 -12587951.00263
 91  5 14 21 48 15.0030000  0  5G13G 2G15G19G 6
  23257557.4134   -7867853.10946  -4030637.71161
  21652237.8434    1647231.81448   1284246.92363
  24847985.944     -675518.718 6   -475211.05521
  24888756.9374   21031759.09945  16388355.63061
  21601520.108   -16223574.236 7 -12594035.30123
 91  5 14 21 48 30.0030000  0  5G13G 2G15G19G 6
  23248335.8514   -7916318.42646  -4068402.77961
  21654867.0854    1661039.32748   1295006.03263
  24847022.554     -680575.217 6   -479151.11921
  24897913.796    21079868.954 5  16425843.74821
  21600047.976   -16231310.129 7 -12600063.25423
 91  5 14 21 48 45.0030000  0  5G13G 2G15G19G 6
  23239130.077    -7964700.613 6  -4106103.04921
  21657503.5694    1674902.80548   1305808.74963
  24846083.5224    -685502.86546   -482990.82061
  24907074.429    21128027.160 5  16463369.50121
  21598590.9994  -16238969.75947 -12606031.78963
 91  5 14 21 49  0.0030000  0  5G13G 2G15G19G 6
  23229937.3974   -8013000.16946  -4143738.94961
  21660153.9054    1688821.50748   1316654.49263
  24845172.968     -690302.542 6   -486730.79321
  24916254.288    21176232.648 4  16500932.08821
  21597149.7104  -16246553.99347 -12611941.57163
 91  5 14 21 49 15.0030000  0  5G13G 2G15G19G 6
  23220763.140    -8061217.519 6  -4181310.77021
  21662811.7494    1702794.81948   1327542.79164
  24844282.351     -694974.799 5   -490371.46121
  24925431.6794   21224484.78045  16538531.01961
  21595718.9444  -16254063.00447 -12617792.73863
 91  5 14 21 49 30.0030000  0  5G13G 2G15G19G 6
  23211602.140    -8109356.019 6  -4218821.16421
  21665481.8974    1716818.88148   1338470.63663
  24843416.7724    -699522.58245   -493915.13061
  24934622.4444   21272779.69945  16576163.27061
  21594302.1404  -16261500.37247 -12623588.07763
 91  5 14 21 49 45.0030000  0  5G13G 2G15G19G 6
  23202455.4834   -8157414.12346  -4256268.91361
  21668161.0774    1730894.70448   1349438.81163
  24842573.2724    -703945.21945   -497361.31161
  24943818.515    21321118.305 5  16613829.58521
  21592901.335   -16268864.773 7 -12629326.56023
 91  5 14 21 50  0.0030000  0  5G13G 2G15G19G 6
  23193326.9764   -8205386.20246  -4293649.65861
  21670848.7494    1745027.49948   1360451.38164
  24841758.390     -708237.046 6   -500705.53821
  24953029.280    21369505.841 5  16651534.02621
  21591515.4134  -16276150.71747 -12635003.91263
 91  5 14 21 50 15.0030000  0  5G13G 2G15G19G 6
  23184214.9604   -8253279.03846  -4330968.62861
  21673547.9684    1759210.01548   1371502.69263
  24840964.585     -712404.769 6   -503953.07921
  24962241.929    21417935.048 5  16689270.93821
  21590141.1014  -16283365.10347 -12640625.50363
 91  5 14 21 50 30.0030000  0  5G13G 2G15G19G 6
  23175116.632    -8301088.328 6  -4368222.49121
  21676256.1014    1773446.14148   1382595.77864
  24840195.405     -716444.665 5   -507101.00021
  24971470.4834   21466409.69445  16727043.25261
  21588785.4684  -16290503.89747 -12646188.18763
 91  5 14 21 50 45.0030000  0  5G13G 2G15G19G 6
  23166034.710    -8348819.976 6  -4405415.85721
  21678974.9914    1787729.70148   1393725.82564
  24839451.7334    -720362.70545   -510153.98361
  24980698.577    21514923.588 5  16764846.15521
  21587439.593   -16297573.026 7 -12651696.58923
 91  5 14 21 51  0.0030000  0  5G13G 2G15G19G 6
  23156965.265    -8396467.499 6  -4442543.68921
  21681703.4684    1802066.74248   1404897.54963
  24838731.163     -724152.548 5   -513107.05121
  24989942.1324   21563482.87844  16802684.40861
  21586109.9764  -16304566.10647 -12657145.73263
 91  5 14 21 51 15.0030000  0  5G13G 2G15G19G 6
  23147913.9684   -8444033.85546  -4479608.27061
  21684440.4764    1816453.66048   1416108.13764
  24838034.9214    -727817.23645   -515962.61561
  24999189.2574   21612083.91944  16840555.23161
  21584789.9444  -16311486.31547 -12662538.09463
 91  5 14 21 51 30.0030000  0  5G13G 2G15G19G 6
  23138876.6714   -8491520.40046  -4516610.66061
  21687186.6554    1830888.80248   1427356.30564
  24837360.132     -731358.222 5   -518721.77921
  25008447.624    21660724.809 4  16878457.09521
  21583486.733   -16318335.117 7 -12667874.81123
 91  5 14 21 51 45.0030000  0  5G13G 2G15G19G 6
  23129856.655    -8538922.134 6  -4553546.95821
  21689944.6714    1845376.77648   1438645.63963
  24836709.1554    -734770.92945   -521380.98561
  25017712.5154   21709410.10744  16916393.55961
  21582199.171   -16325107.659 7 -12673152.10523
 91  5 14 21 52  0.0030000  0  5G13G 2G15G19G 6
  23120855.476    -8586242.062 6  -4590419.52221
  21692710.0074    1859914.16148   1449973.47563
  24836081.780     -738058.699 5   -523942.83721
  25026983.999    21758136.321 4  16954361.90721
  21580925.085   -16331807.112 7 -12678372.44423
 91  5 14 21 52 15.0030000  0  5G13G 2G15G19G 6
  23111865.4604   -8633476.26046  -4627225.28261
  21695489.0774    1874504.26948   1461342.39063
  24835483.3274    -741217.72245   -526404.38761
  25036261.4524   21806906.88544  16992364.80661
  21579665.0934  -16338429.85447 -12683533.01563
 91  5 14 21 52 30.0030000  0  5G13G 2G15G19G 6
  23102895.147    -8680622.783 6  -4663962.74021
  21698271.4994    1889148.61748   1472753.57964
  24834906.280     -744246.079 5   -528764.08821
  25045551.3274   21855723.34944  17030403.46261
  21578420.437   -16344974.172 7 -12688632.46923
 91  5 14 21 52 45.0030000  0  5G13G 2G15G19G 6
  23093935.812    -8727686.093 6  -4700635.32921
  21701069.7884    1903842.54148   1484203.39664
  24834351.8434    -747148.52745   -531025.70461
  25054847.4294   21904580.89744  17068474.13861
  21577186.687   -16351444.221 7 -12693674.05423
 91  5 14 21 53  0.0030000  0  5G13G 2G15G19G 6
  23084997.866    -8774665.105 6  -4737242.24421
  21703874.5854    1918586.50548   1495692.20364
  24833823.6794    -749924.20545   -533188.53161
  25064160.944    21953480.034 3  17106577.22121
  21575971.640   -16357839.251 7 -12698657.17923
 91  5 14 21 53 15.0030000  0  5G13G 2G15G19G 6
  23076073.7184   -8821558.93846  -4773782.79861
  21706691.3664    1933381.10848   1507220.47064
  24833322.085     -752572.399 5   -535252.00521
  25073470.1714   22002421.06844  17144712.89361
  21574769.601   -16364158.450 7 -12703581.22023
 91  5 14 21 53 30.0030000  0  5G13G 2G15G19G 6
  23067164.530    -8868371.058 6  -4810259.67921
  21709515.7184    1948222.48848   1518785.18164
  24832838.921     -755096.717 5   -537218.98321
  25082790.937    22051400.367 4  17182878.44121
  21573582.093   -16370405.583 7 -12708449.10023
 91  5 14 21 53 45.0030000  0  5G13G 2G15G19G 6
  23058272.288    -8915096.125 6  -4846668.72621
  21712349.9374    1963115.40448   1530390.05563
  24832388.8124    -757492.11845   -539085.50161
  25092118.8744   22100422.52344  17221077.46061
  21572405.1944  -16376575.40647 -12713256.74663
 91  5 14 21 54  0.0030000  0  5G13G 2G15G19G 6
  23049399.069    -8961733.688 6  -4883009.58021
  21715192.8044    1978060.09048   1542035.26963
  24831952.343     -759758.173 5   -540851.20721
  25101460.202    22149487.596 3  17259309.89821
  21571245.687   -16382667.480 7 -12718003.80223
 91  5 14 21 54 15.0030000  0  5G13G 2G15G19G 6
  23040539.0304   -9008285.45246  -4919283.58861
  21718045.6164    1993054.48348   1553719.21563
  24831547.6014    -761896.79945   -542517.64261
  25110801.733    22198593.513 4  17297574.13621
  21570101.749   -16388683.596 7 -12722691.67123
 91  5 14 21 54 30.0030000  0  5G13G 2G15G19G 6
  23031697.999    -9054753.726 6  -4955492.53821
  21720908.9764    2008095.63748   1565439.59863
  24831162.6474    -763910.82345   -544086.98861
  25120158.0464   22247737.37143  17335867.94461
  21568971.343   -16394626.403 7 -12727322.41623
 91  5 14 21 54 45.0030000  0  5G13G 2G15G19G 6
  23022871.0694   -9101133.02246  -4991632.15461
  21723781.8824    2023188.79448   1577200.50463
  24830806.8274    -765794.76545   -545554.97061
  25129511.358    22296924.379 3  17374195.36021
  21567854.9994  -16400490.50047 -12731891.83363
 91  5 14 21 55  0.0030000  0  5G13G 2G15G19G 6
  23014063.4524   -9147422.30146  -5027701.62261
  21726661.9134    2038334.55248   1589002.39363
  24830470.3744    -767547.53745   -546920.72861
  25138883.077    22346155.050 3  17412556.79721
  21566752.687   -16406274.843 7 -12736399.10223
 91  5 14 21 55 15.0030000  0  5G13G 2G15G19G 6
  23005269.101    -9193623.664 6  -5063702.58821
  21729552.3044    2053530.35848   1600843.28164
  24830160.718     -769171.441 5   -548186.08721
  25148255.6554   22395426.89343  17450950.29661
  21565670.249   -16411981.630 7 -12740845.93623
 91  5 14 21 55 30.0030000  0  5G13G 2G15G19G 6
  22996495.968    -9239737.221 6  -5099635.12321
  21732457.0854    2068775.64948   1612722.73663
  24829878.757     -770667.141 5   -549351.54321
  25157643.1874   22444739.12643  17489375.29661
  21564595.405   -16417611.293 7 -12745232.66923
 91  5 14 21 55 45.0030000  0  5G13G 2G15G19G 6
  22987736.5154   -9285760.20646  -5135497.10661
  21735364.9444    2084072.55748   1624642.40763
  24829619.6164    -772032.07345   -550415.09461
  25167032.733    22494093.879 4  17527833.39921
  21563540.0854  -16423161.38647 -12749557.40863
 91  5 14 21 56  0.0030000  0  5G13G 2G15G19G 6
  22978996.3584   -9331695.11946  -5171290.44561
  21738285.2574    2099418.32248   1636600.15063
  24829380.788     -773268.710 5   -551378.67121
  25176432.272    22543488.480 3  17566322.57021
  21562498.2574  -16428634.24647 -12753821.96763
 91  5 14 21 56 15.0030000  0  4G13G 2G15G 6
  22970273.8274   -9377538.19046  -5207012.21761
  21741215.6794    2114816.41648   1648598.66663
  24829169.765     -774373.593 5   -552239.59021
  21561473.726   -16434026.314 7 -12758023.56423
 91  5 14 21 56 30.0030000  0  4G13G 2G15G 6
  22961565.6164   -9423289.95846  -5242662.84561
  21744158.0544    2130266.05048   1660637.34963
  24828988.312     -775347.398 5   -552998.38521
  21560461.0304  -16439338.17847 -12762162.66963
 91  5 14 21 56 45.0030000  0  4G13G 2G15G 6
  22952876.6634   -9468954.00646  -5278245.13161
  21747103.6014    2145763.11448   1672712.98363
  24828828.9134    -776193.68645   -553657.79361
  21559464.6014  -16444573.65947 -12766242.25463
 91  5 14 21 57  0.0030000  0  4G13G 2G15G 6
  22944202.5464   -9514527.35046  -5313756.74061
  21750064.6474    2161310.03648   1684827.47463
  24828688.3974    -776910.14645   -554216.03161
  21558485.2494  -16449729.86047 -12770260.06563
 91  5 14 21 57 15.0030000  0  4G13G 2G15G 6
  22935551.7574   -9560009.52546  -5349197.29761
  21753030.4684    2176906.73748   1696980.74764
  24828576.8514    -777496.57945   -554672.97461
  21557517.6794  -16454806.43647 -12774215.82663
 91  5 14 21 57 30.0030000  0  4G13G 2G15G 6
  22926911.8124   -9605401.35446  -5384567.47161
  21756010.5384    2192552.27148   1709172.07364
  24828492.6474    -777953.56645   -555029.03561
  21556567.9214  -16459804.26747 -12778110.23663
 91  5 14 21 57 45.0030000  0  4G13G 2G15G 6
  22918292.2884   -9650696.67646  -5419862.44161
  21758997.4054    2208252.21248   1721405.79464
  24828429.897     -778275.419 5   -555279.81421
  21555633.8974  -16464717.47247 -12781938.69663
 91  5 14 21 58  0.0030000  0  4G13G 2G15G 6
  22909690.312    -9695901.923 6  -5455087.22921
  21761992.0384    2223999.83448   1733676.67064
  24828391.616     -778468.745 5
  21554712.5624  -16469552.64647 -12785706.36063
 91  5 14 21 58 15.0030000  0  4G13G 2G15G 6
  22901103.8194   -9741014.22546  -5490239.58261
  21765000.4134    2239797.85448   1745986.81764
  24828380.4914    -778530.66245
  21553805.1084  -16474306.63447 -12789410.76163
 91  5 14 21 58 30.0030000  0  4G13G 2G15G 6
  22892540.171    -9786032.477 6  -5525318.65721
  21768016.2884    2255646.88348   1758336.70864
  24828396.1084    -778460.43645
  21552919.3974  -16478978.73947 -12793051.35563
 91  5 14 21 58 45.0030000  0  4G13G 2G15G 6
  22883989.5854   -9830957.32446  -5560324.95361
  21771040.2334    2271545.68448   1770725.38264
  24828436.1944    -778259.03745
  21552047.421   -16483569.823 7 -12796628.81323
 91  5 14 21 59  0.0030000  0  4G13G 2G15G 6
  22875460.6554   -9875786.70546  -5595256.87461
  21774077.0934    2287496.07848   1783154.26163
  24828498.030     -777924.451 5
  21551186.5154  -16488077.65047 -12800141.40163
 91  5 14 21 59 15.0030000  0  4G13G 2G15G 6
  22866946.4444   -9920517.83746  -5630112.21761
  21777121.7884    2303500.14348   1795624.96163
  24828585.2494    -777454.45045   -554639.93761
  21550344.5224  -16492500.14147 -12803587.49463
 91  5 14 21 59 30.0030000  0  4G13G 2G15G 6
  22858450.601    -9965155.967 6  -5664895.09021
  21780174.5694    2319552.51548   1808133.30363
  24828699.4994    -776854.15145   -554172.14361
  21549520.0304  -16496842.23247 -12806970.93463
 91  5 14 21 59 45.0030000  0  4G13G 2G15G 6
  22849972.054   -10009719.888 6  -5699620.12821
  21783236.8974    2335633.86448   1820664.22864
  24828835.179     -776142.705 5   -553617.75321
  21548704.2104  -16501122.85647 -12810306.47863
 91  5 14 22  0  0.0030000  0  4G13G 2G15G 6
  22841509.991   -10054185.755 6  -5734268.78521
  21786306.6714    2351767.97148   1833236.25963
  24828998.3354    -775296.21645   -552958.12161
  21547904.5544  -16505318.11147 -12813575.49663
 91  5 14 22  0 15.0030000  0  4G13G 2G15G 6
  22833066.4684  -10098554.64546  -5768841.88061
  21789386.3664    2367953.15048   1845848.09063
  24829181.819     -774316.053 5   -552194.32621
  21547122.8514  -16509429.56847 -12816779.22363
 91  5 14 22  0 30.0030000  0  4G13G 2G15G 6
  22824642.1554  -10142829.76346  -5803341.88861
  21792476.6634    2384185.57048   1858496.73164
  24829395.804     -773205.856 5   -551329.20321
  21546355.5544  -16513460.59447 -12819920.27263
 91  5 14 22  0 45.0030000  0  4G13G 2G15G 6
  22816234.2414  -10187003.92746  -5837763.23761
  21795574.5224    2400472.13848   1871187.56563
  24829633.241     -771958.534 5   -550357.23021
  21545607.022   -16517403.878 7 -12822992.94623
 91  5 14 22  1  0.0030000  0  4G13G 2G15G 6
  22807846.9834  -10231080.40446  -5872108.45761
  21798681.3194    2416809.08048   1883917.65364
  24829893.9134    -770577.69545   -549281.21961
  21544873.1554  -16521262.90147 -12825999.96863
 91  5 14 22  1 15.0030000  0  4G13G 2G15G 6
  22799478.9054  -10275058.66146  -5906377.14061
  21801803.2804    2433196.78048   1896687.29163
  24830182.9054    -769063.02645   -548100.92661
  21544152.6554  -16525037.24747 -12828941.00363
 91  5 14 22  1 30.0030000  0  4G13G 2G15G 6
  22791125.530   -10318942.333 6  -5940572.14321
  21804929.2414    2449631.13748   1909493.28364
  24830496.0624    -767418.46745   -546819.41961
  21543451.7724  -16528730.75047 -12831819.04763
 91  5 14 22  1 45.0030000  0  4G13G 2G15G 6
  22782795.952   -10362726.310 6  -5974689.44221
  21808066.1634    2466116.94348   1922339.36763
  24830836.187     -765638.930 5   -545432.74621
  21542764.0694  -16532338.33747 -12834630.14563
 91  5 14 22  2  0.0030000  0  4G13G 2G15G 6
  22774485.1794  -10406410.85046  -6008729.26061
  21811211.5774    2482653.41048   1935224.93164
  24831196.569     -763724.763 5   -543941.16321
  21542095.6014  -16535860.36847 -12837374.57663
 91  5 14 22  2 15.0030000  0  4G13G 2G15G 6
  22766189.8584  -10449993.48546  -6042689.67361
  21814370.3824    2499242.62548   1948151.59064
  24831590.882     -761674.031 5   -542343.14321
  21541438.5934  -16539294.34047 -12840050.38763
 91  5 14 22  2 30.0030000  0  4G13G 2G15G 6
  22757916.069   -10493473.755 6  -6076570.32321
  21817535.6794    2515884.65348   1961119.40864
  24832002.890     -759486.400 5   -540638.45921
  21540806.1404  -16542640.13947 -12842657.49163
 91  5 14 22  2 45.0030000  0  4G13G 2G15G 6
  22749661.460   -10536858.088 6  -6110376.21521
  21820711.7104    2532572.95748   1974123.28464
  24832445.3194    -757168.02645   -538831.90161
  21540185.296   -16545904.094 7 -12845200.82323
 91  5 14 22  3  0.0030000  0  4G13G 2G15G 6
  22741425.187   -10580139.042 6  -6144101.55421
  21823899.5854    2549314.43548   1987168.59263
  24832911.3434    -754712.23045   -536918.26761
  21539578.2494  -16549079.05747 -12847674.81463
 91  5 14 22  3 15.0030000  0  4G13G 2G15G 6
  22733204.999   -10623319.541 6  -6177748.61721
  21827091.6474    2566105.85548   2000252.82064
  24833403.6714    -752122.13345   -534899.98161
  21538992.976   -16552168.003 7 -12850081.77023
 91  5 14 22  3 30.0030000  0  4G13G 2G15G 6
  22725009.741   -10666400.558 6  -6211318.16021
  21830298.1164    2582945.70748   2013374.78264
  24833925.304     -749398.734 5   -532777.81021
  21538419.2574  -16555171.96447 -12852422.50863
 91  5 14 22  3 45.0030000  0  4G13G 2G15G 6
  22716831.9524  -10709382.90746  -6244810.81561
  21833514.2024    2599832.89648   2026533.63464
  24834470.1014    -746543.17145   -530552.66861
  21537863.4684  -16558091.82247 -12854697.71263
 91  5 14 22  4  0.0030000  0  4G13G 2G15G 6
  22708669.765   -10752265.299 6  -6278225.59521
  21836736.0154    2616768.20748   2039729.98264
  24835035.1634    -743554.58945   -528223.86761
  21537324.749   -16560926.641 7 -12856906.65223
 91  5 14 22  4 15.0030000  0  4G13G 2G15G 6
  22700524.8124  -10795047.42846  -6311562.25261
  21839966.9914    2633751.66148   2052963.84564
  24835626.210     -740432.741 5   -525791.22821
  21536799.9374  -16563676.21147 -12859049.16363
 91  5 14 22  4 30.0030000  0  4G13G 2G15G 6
  22692403.265   -10837730.187 6  -6344821.46121
  21843206.9134    2650782.24548   2066234.42864
  24836249.9604    -737178.45545   -523255.39861
  21536293.8434  -16566341.22047 -12861125.78263
 91  5 14 22  4 45.0030000  0  4G13G 2G15G 6
  22684304.3744  -10880310.63646  -6378000.93961
  21846456.4604    2667862.34348   2079543.59364
  24836895.608     -733789.293 5   -520614.48221
  21535805.202   -16568919.109 7 -12863134.51723
 91  5 14 22  5  0.0030000  0  4G13G 2G15G 6
  22676220.312   -10922788.613 6  -6411100.58621
  21849714.3124    2684991.49548   2092890.99164
  24837565.507     -730265.388 5   -517868.54321
  21535330.6014  -16571409.92547 -12865075.40863
 91  5 14 22  5 15.0030000  0  4G13G 2G15G 6
  22668153.4994  -10965166.37346  -6444122.14461
  21852985.0224    2702167.17548   2106274.63964
  24838261.351     -726609.279 5   -515019.59321
  21534872.780   -16573815.742 7 -12866950.05423
 91  5 14 22  5 30.0030000  0  4G13G 2G15G 6
  22660108.312   -11007444.544 6  -6477066.10121
  21856259.4054    2719388.37148   2119693.75363
  24838981.694     -722821.690 5   -512068.17721
  21534431.3974  -16576137.38747 -12868759.12263
 91  5 14 22  5 45.0030000  0  4G13G 2G15G 6
  22652086.765   -11049617.885 6  -6509928.35621
  21859548.6404    2736659.98548   2133152.15763
  24839728.632     -718897.676 5   -509010.46721
  21534006.1554  -16578369.82447 -12870498.67863
 91  5 14 22  6  0.0030000  0  4G13G 2G15G 6
  22644079.538   -11091689.020 6  -6542710.98021
  21862845.6794    2753979.00948   2146647.50563
  24840500.9994    -714840.16345   -505848.72861
  21533595.983   -16580515.886 7 -12872170.92123
 91  5 14 22  6 15.0030000  0  4G13G 2G15G 6
  22636092.327   -11133656.663 6  -6575412.97421
  21866152.5544    2771346.23848   2160180.41463
  24841298.437     -710648.176 5   -502582.23321
  21533206.3824  -16582574.49647 -12873775.02163
 91  5 14 22  6 30.0030000  0  4G13G 2G15G 6
  22628125.085   -11175522.091 6  -6608035.30321
  21869462.8434    2788760.36848   2173749.86763
  24842121.5854    -706323.05445   -499211.97261
  21532829.351   -16584546.579 7 -12875311.69823
 91  5 14 22  6 45.0030000  0  4G13G 2G15G 6
  22620178.679   -11217281.789 6  -6640575.25321
  21872785.2334    2806224.48448   2187358.27163
  24842970.3124    -701861.44345   -495735.35661
  21532472.5624  -16586428.74147 -12876778.30863
 91  5 14 22  7  0.0030000  0  4G13G 2G15G 6
  22612252.296   -11258936.736 6  -6673033.57521
  21876117.8434    2823736.80748   2201004.23763
  24843843.4834    -697264.92145   -492153.62461
  21532127.8584  -16588222.57847 -12878176.09363
 91  5 14 22  7 15.0030000  0  4G13G 2G15G 6
  22604346.312   -11300489.433 6  -6705412.22121
  21879460.1474    2841294.77748   2214685.77263
  24844743.663     -692535.867 5   -488468.61821
  21531805.1164  -16589930.36347 -12879506.82563
 91  5 14 22  7 30.0030000  0  4G13G 2G15G 6
  22596457.022   -11341939.251 6  -6737710.69821
  21882813.4444    2858898.60448   2228403.03863
  24845670.030     -687673.820 5   -484680.00021
  21531495.9294  -16591551.69947 -12880770.19963
 91  5 14 22  7 45.0030000  0  4G13G 2G15G 6
  22588587.6084  -11383284.80146  -6769927.93861
  21886166.7654    2876549.59248   2242157.05263
  24846622.265     -682677.654 5   -480786.87621
  21531205.4134  -16593084.86647 -12881964.86463
 91  5 14 22  8  0.0030000  0  4G13G 2G15G 6
  22580741.8974  -11424522.92946  -6802061.47461
  21889539.2654    2894250.21848   2255949.74463
  24847597.5224    -677544.80345   -476787.22661
  21530929.8124  -16594527.18447 -12883088.73663
 91  5 14 22  8 15.0030000  0  4G13G 2G15G 6
  22572914.288   -11465655.052 6  -6834112.39621
  21892916.7724    2911998.61748   2269779.66363
  24848600.343     -672276.742 5   -472682.23221
  21530673.4214  -16595880.40047 -12884143.18163
 91  5 14 22  8 30.0030000  0  4G13G 2G15G 6
  22565105.608   -11506682.840 6  -6866082.02421
  21896303.0464    2929792.95248   2283645.37663
  24849629.2964    -666875.30345   -468473.30061
  21530432.7414  -16597145.94447 -12885129.31463
 91  5 14 22  8 45.0030000  0  4G13G 2G15G 6
  22557322.1404  -11547602.56546  -6897967.43161
  21899697.1014    2947636.99948   2297549.82663
  24850679.194     -661336.942 5   -464157.68221
  21530208.874   -16598320.171 7 -12886044.28523
 91  5 14 22  9  0.0030000  0  4G13G 2G15G 6
  22549553.647   -11588414.194 6  -6929768.62221
  21903103.3274    2965530.13648   2311492.52763
  24851760.319     -655661.837 5   -459735.51121
  21530003.0464  -16599403.26347 -12886888.24563
 91  5 14 22  9 15.0030000  0  4G13G 2G15G 6
  22541809.312   -11629115.991 6  -6961484.23521
  21906516.3904    2983473.61748   2325474.45863
  24852867.3434    -649848.78045   -455205.86561
  21529814.8584  -16600393.57747 -12887659.91663
 91  5 14 22  9 30.0030000  0  4G13G 2G15G 6
  22534083.796   -11669710.173 6  -6993115.98821
  21909939.8124    3001464.97048   2339493.69463
  24853999.679     -643899.817 5   -450570.28621
  21529641.6874  -16601293.34947 -12888361.02963
 91  5 14 22  9 45.0030000  0  4G13G 2G15G 6
  22526377.640   -11710198.241 6  -7024665.04921
  21913371.7964    3019502.38148   2353548.81363
  24855157.5624    -637816.66945   -445830.17661
  21529490.3044  -16602104.06147 -12888992.74663
 91  5 14 22 10  0.0030000  0  4G13G 2G15G 6
  22518694.468   -11750576.249 6  -7056128.34921
  21916812.4834    3037589.16348   2367642.40963
  24856340.0154    -631596.04445   -440982.93361
  21529351.1244  -16602822.16547 -12889552.30063
 91  5 14 22 10 15.0030000  0  4G13G 2G15G 6
  22511031.015   -11790843.115 6  -7087505.04521
  21920267.1554    3055726.25048   2381775.20563
  24857551.9684    -625237.02345   -436027.84361
  21529234.7494  -16603446.47947 -12890038.77663
 91  5 14 22 10 30.0030000  0  4G13G 2G15G 6
  22503390.9684  -11831001.60446  -7118797.30361
  21923727.0854    3073910.42248   2395944.68463
  24858785.530     -618742.766 5   -430967.36821
  21529130.3354  -16603979.99147 -12890454.49063
 91  5 14 22 10 45.0030000  0  4G13G 2G15G 6
  22495769.265   -11871050.589 6  -7150004.23121
  21927192.6324    3092142.50848   2410151.50863
  24860048.9994    -612112.14145   -425800.63461
  21529047.7264  -16604421.64047 -12890798.62763
 91  5 14 22 11  0.0030000  0  4G13G 2G15G 6
  22488169.8044  -11910990.49846  -7181126.15061
  21930675.4834    3110421.95148   2424395.22763
  24861335.9054    -605345.48245   -420527.91561
  21528979.5624  -16604771.95047 -12891071.59063
 91  5 14 22 11 15.0030000  0  4G13G 2G15G 6
  22480590.710   -11950822.853 6  -7212164.27521
  21934162.7334    3128746.60548   2438674.18063
  24862647.5774    -598444.95445   -415150.87561
  21528932.4684  -16605032.61047 -12891274.69763
 91  5 14 22 11 30.0030000  0  4G13G 2G15G 6
  22473028.6164  -11990545.87346  -7243117.21061
  21937658.0934    3147117.88048   2452989.45763
  24863987.897     -591409.323 5   -409668.55421
  21528899.2724  -16605201.82447
 91  5 14 22 11 45.0030000  0  4G13G 2G15G 6
  22465494.499   -12030157.501 6  -7273983.33121
  21941163.0934    3165537.57448   2467342.46563
  24865354.9444    -584236.53745   -404079.37561
  21528883.1634  -16605277.70747
 91  5 14 22 12  0.0030000  0  4G13G 2G15G 6
  22457974.710   -12069658.085 6  -7304762.92921
  21944676.7104    3184005.12748   2481732.76563
  24866742.749     -576927.054 5   -398383.64821
  21528888.8584  -16605260.67147
 91  5 14 22 12 15.0030000  0  4G13G 2G15G 6
  22450481.163   -12109048.278 6  -7335456.51421
  21948199.4994    3202519.53148   2496159.57763
  24868157.9914    -569481.62145   -392582.00961
  21528907.3274  -16605151.33447
 91  5 14 22 12 30.0030000  0  4G13G 2G15G 6
  22443005.124   -12148330.008 6  -7366065.58121
  21951730.1474    3221078.55348   2510621.15363
  24869602.5544    -561902.48845   -386676.19861
  21528945.0934  -16604951.70147
 91  5 14 22 12 45.0030000  0  4G13G 2G15G 6
  22435549.3974  -12187500.21846  -7396587.74361
  21955272.9994    3239684.76048   2525119.49863
  24871071.6164    -554187.12345   -380664.24061
  21529001.5154  -16604659.17947
 91  5 14 22 13  0.0030000  0  4G13G 2G15G 6
  22428117.741   -12226560.743 6  -7427024.44021
  21958820.8194    3258335.90848   2539652.86264
  24872565.1874    -546337.59845   -374547.71661
  21529073.0464  -16604275.27247 -12890684.52463
 91  5 14 22 13 15.0030000  0  4G13G 2G15G 6
  22420707.608   -12265510.379 7  -7457374.72621
  21962377.4444    3277032.84448   2554221.90564
  24874083.4834    -538352.80145   -368325.80261
  21529165.2574  -16603799.00347 -12890313.40363
 91  5 14 22 13 30.0030000  0  4G13G 2G15G 6
  22413315.5154  -12304346.45747  -7487636.53761
  21965944.1874    3295777.84448   2568828.40163
  24875628.9914    -530230.34445   -361996.58761
  21529275.9294  -16603228.21747 -12889868.62563
 91  5 14 22 13 45.0030000  0  4G13G 2G15G 6
  22405946.9444  -12343070.22346  -7517810.83261
  21969522.2184    3314569.52148   2583471.26764
  24877198.140     -521971.781 5   -355561.32321
  21529400.9604  -16602563.63547 -12889350.76563
 91  5 14 22 14  0.0030000  0  4G13G 2G15G 6
  22398601.038   -12381678.506 6  -7547895.12521
  21973108.4444    3333410.83548   2598152.81664
  24878799.585     -513574.281 5   -349017.79321
  21529544.5384  -16601802.47247 -12888757.65063
 91  5 14 22 14 15.0030000  0  4G13G 2G15G 6
  22391274.351   -12420169.979 6  -7577888.41021
  21976703.2264    3352302.75848   2612873.79664
  24880423.296     -505036.556 5   -342365.00621
  21529709.569   -16600943.312 7 -12888088.16623
 91  5 14 22 14 30.0030000  0  4G13G 2G15G 6
  22383971.710   -12458547.891 7  -7607793.19521
  21980306.7264    3371241.83048   2627631.51664
  24882072.1404    -496361.86545   -335605.50061
  21529891.7104  -16599989.60047 -12887345.00463
 91  5 14 22 14 45.0030000  0  4G13G 2G15G 6
  22376693.640   -12496808.913 7  -7637606.90621
  21983918.0624    3390230.55448   2642427.92464
  24883752.671     -487547.546 5   -328737.21621
  21530089.3584  -16598938.12647 -12886525.66963
 91  5 14 22 15  0.0030000  0  4G13G 2G15G 6
  22369434.522   -12534952.419 7  -7667329.04521
  21987541.7334    3409269.66648   2657263.59464
  24885456.296     -478593.188 5   -321759.78821
  21530309.7964  -16597788.22047 -12885629.62763
 91  5 14 22 15 15.0030000  0  4G13G 2G15G 6
  22362196.5224  -12572979.00547  -7696960.08761
  21991175.4994    3428357.97748   2672137.60463
  24887188.7414    -469499.71645   -314673.95361
  21530546.3274  -16596540.87747 -12884657.66663
 91  5 14 22 15 30.0030000  0  4G13G 2G15G 6
  22354982.733   -12610894.017 7  -7726504.16621
  21994816.6634    3447489.88948   2687045.58664
  24888943.679     -460272.611 5   -307483.98321
  21530800.1794  -16595201.06447 -12883613.65363
 91  5 14 22 15 45.0030000  0  4G13G 2G15G 6
  22347789.835   -12648696.466 7  -7755960.54321
  21998464.5694    3466665.95548   2701987.96864
  24890725.8194    -450911.07945   -300189.27961
  21531071.796   -16593768.352 7 -12882497.24223
 91  5 14 22 16  0.0030000  0  4G13G 2G15G 6
  22340619.054   -12686383.941 7  -7785327.33621
  22002122.3274    3485888.52948   2716966.60263
  24892533.233     -441413.031 5   -292788.17621
  21531365.5074  -16592240.07247 -12881306.37263
 91  5 14 22 16 15.0030000  0  4G13G 2G15G 6
  22333466.1244  -12723959.57747  -7814606.98761
  22005790.5934    3505154.33748   2731978.91964
  24894364.4604    -431781.46745   -285283.05661
  21531675.4054  -16590619.41247 -12880043.51763
 91  5 14 22 16 30.0030000  0  4G13G 2G15G 6
  22326336.210   -12761423.650 6  -7843799.69221
  22009461.0384    3524462.37748   2747024.14564
  24896221.1324    -422017.37645   -277674.66961
  21532001.5934  -16588906.95247 -12878709.12463
 91  5 14 22 16 45.0030000  0  4G13G 2G15G 6
  22319230.2574  -12798768.74147  -7872899.67361
  22013146.4604    3543819.79048   2762107.84264
  24898109.640     -412113.455 5   -269957.31521
  21532342.8974  -16587095.19847 -12877297.36563
 91  5 14 22 17  0.0030000  0  4G13G 2G15G 6
  22312145.0624  -12836000.09847  -7901911.05561
  22016838.7804    3563220.88348   2777225.57564
  24900017.9374    -402075.57446   -262135.58561
  21532708.4444  -16585189.75347 -12875812.60263
 91  5 14 22 17 15.0030000  0  4G13G 2G15G 6
  22305080.6014  -12873116.08647  -7930832.53861
  22020540.3584    3582667.25848   2792378.59463
  24901953.116     -391902.193 6   -254208.26421
  21533089.1554  -16583189.06547 -12874253.61663
 91  5 14 22 17 30.0030000  0  4G13G 2G15G 6
  22298040.5224  -12910117.88147  -7959665.04161
  22024249.3514    3602157.34048   2807565.67164
  24903916.0854    -381594.74546   -246176.50161
  21533483.8354  -16581094.11847 -12872621.18463
 91  5 14 22 17 45.0030000  0  4G13G 2G15G 6
  22291021.749   -12947001.835 7  -7988405.70621
  22027967.3584    3621694.62348   2822789.52464
  24905903.2184    -371149.66545   -238037.47861
  21533904.1794  -16578901.41447 -12870912.57763
 91  5 14 22 18  0.0030000  0  4G13G 2G15G 6
  22284026.1324  -12983763.10847  -8017050.78761
  22031693.0464    3641283.50248   2838053.58163
  24907914.116     -360562.321 5   -229787.58521
  21534341.9134  -16576606.10347 -12869124.01763
 91  5 14 22 18 15.0030000  0  4G13G 2G15G 6
  22277054.312   -13020402.406 7  -8045600.82021
  22035431.6554    3660922.76748   2853356.89764
  24909960.1014    -349833.99945   -221427.85861
  21534798.6164  -16574209.22447 -12867256.31263
 91  5 14 22 18 30.0030000  0  4G13G 2G15G 6
  22270103.8124  -13056921.84447  -8074057.45761
  22039175.5224    3680610.31848   2868697.85063
  24912027.804     -338966.625 5   -212959.77021
  21535269.2654  -16571712.76047 -12865311.00863
 91  5 14 22 18 45.0030000  0  4G13G 2G15G 6
  22263179.272   -13093319.452 7  -8102419.15421
  22042933.7964    3700347.64248   2884077.57763
  24914122.124     -327958.806 5   -204382.24121
  21535764.3274  -16569114.85247 -12863286.66263
 91  5 14 22 19  0.0030000  0  4G13G 2G15G 6
  22256273.7804  -13129596.94747  -8130687.26561
  22046699.4294    3720132.59848   2899494.42463
  24916240.4524    -316812.29345   -195696.61861
  21536276.9834  -16566417.40247 -12861184.74563
 91  5 14 22 19 15.0030000  0  4G13G 2G15G 6
  22249396.2884  -13165752.11447  -8158860.05861
  22050472.8974    3739967.43348   2914950.13564
  24918390.5224    -305525.12845   -186901.43061
  21536809.7184  -16563617.96447 -12859003.36463
 91  5 14 22 19 30.0030000  0  4G13G 2G15G 6
  22242539.038   -13201787.001 7  -8186939.12021
  22054256.6244    3759849.60048   2930442.73564
  24920564.460     -294099.934 5   -177998.70221
  21537364.8744  -16560718.94847 -12856744.38263
 91  5 14 22 19 45.0030000  0  4G13G 2G15G 6
  22235703.9374  -13237700.34247  -8214923.47361
  22058048.8664    3779780.20648   2945973.07464
  24922765.9444    -282535.39545   -168987.36361
  21537935.6404  -16557718.98947 -12854406.74863
 91  5 14 22 20  0.0030000  0  4G13G 2G15G 6
  22228891.2104  -13273493.27047  -8242814.00061
  22061850.3664    3799757.51848   2961539.80563
  24924992.257     -270833.084 5   -159868.64921
  21538524.9054  -16554619.50547 -12851991.56263
 91  5 14 22 20 15.0030000  0  4G13G 2G15G 6
  22222103.2334  -13309164.14447  -8270609.42261
  22065661.3744    3819783.25848   2977144.27564
  24927243.3974    -258991.72245   -150641.58261
  21539132.6404  -16551418.80347 -12849497.50163
 91  5 14 22 20 30.0030000  0  4G13G 2G15G 6
  22215338.655   -13344710.029 7  -8298307.44221
  22069481.9994    3839859.85348   2992788.37063
  24929525.5854    -247008.53345   -141304.02261
  21539761.9294  -16548113.97447 -12846922.30963
 91  5 14 22 20 45.0030000  0  4G13G 2G15G 6
  22208600.538   -13380132.687 7  -8325909.44021
  22073310.9294    3859985.02448   3008470.31763
  24931833.6944    -234885.72945   -131857.70061
  21540411.0464  -16544707.25147 -12844267.71563
 91  5 14 22 21  0.0030000  0  4G13G 2G15G 6
  22201882.4764  -13415429.28147  -8353413.21561
  22077151.0154    3880161.55048   3024192.28063
  24934165.7884    -222620.67045   -122300.49761
  21541078.4054  -16541195.67947 -12841531.41963
 91  5 14 22 21 15.0030000  0  4G13G 2G15G 6
  22195187.5384  -13450604.71947  -8380822.58061
  22080997.3904    3900384.13948   3039950.14563
  24936525.6944    -210218.59645   -112636.55261
  21541764.3904  -16537584.14847 -12838717.23363
 91  5 14 22 21 30.0030000  0  4G13G 2G15G 6
  22188517.3584  -13485652.36947  -8408132.37761
  22084857.7414    3920659.03548   3055748.75864
  24938912.968     -197673.121 5   -102860.80921
  21542473.3194  -16533866.21947 -12835820.14463
 91  5 14 22 21 45.0030000  0  4G13G 2G15G 6
  22181871.585   -13520580.942 7  -8435349.37021
  22088722.0774    3940977.33948   3071581.19963
  24941326.1324    -184993.04145    -92980.20661
  21543199.3664  -16530050.57747 -12832846.91463
 91  5 14 22 22  0.0030000  0  4G13G 2G15G 6
  22175250.9764  -13555383.71947  -8462468.35661
  22092597.9834    3961345.82648   3087452.74163
  24943768.319     -172171.653 5    -82989.53521
  21543945.8194  -16526130.39247 -12829792.22063
 91  5 14 22 22 15.0030000  0  4G13G 2G15G 6
  22168649.2494  -13590064.01947  -8489491.90061
  22096483.9684    3981760.67448   3103360.40963
  24946234.905     -159212.784 5    -72891.73021
  21544709.4444  -16522108.97547 -12826658.64363
 91  5 14 22 22 30.0030000  0  4G13G 2G15G 6
  22162073.1014  -13624619.34347  -8516418.05861
  22100379.6244    4002224.09548   3119305.93163
  24948722.3194    -146114.39145    -62685.17661
  21545493.9684  -16517984.13747 -12823444.48863
 91  5 14 22 22 45.0030000  0  4G13G 2G15G 6
  22155522.4684  -13659051.11947  -8543247.94261
  22104282.5624    4022734.21148   3135287.83863
  24951242.0694    -132878.03945    -52371.11961
  21546298.8744  -16513757.37747 -12820150.90663
 91  5 14 22 23  0.0030000  0  4G13G 2G15G 6
  22148993.7574  -13693358.37247  -8569980.80861
  22108194.7414    4043291.70748   3151306.65963
  24953788.9604    -119502.89745    -41948.92161
  21547124.9524  -16509427.73747 -12816777.15863
 91  5 14 22 23 15.0030000  0  4G13G 2G15G 6
  22142487.8434  -13727538.18447  -8596614.36161
  22112114.8744    4063899.44148   3167364.62964
  24956361.2494    -105986.32245    -31416.53261
  21547969.6554  -16504992.25747 -12813320.93863
 91  5 14 22 23 30.0030000  0  4G13G 2G15G 6
  22136009.8274  -13761593.27347  -8623150.73061
  22116042.4834    4084554.45348   3183459.44663
  24958960.0694     -92331.18345    -20776.17061
  21548832.1324  -16500453.67747 -12809784.37863
 91  5 14 22 23 45.0030000  0  4G13G 2G15G 6
  22129552.9054  -13795526.04947  -8649591.79261
  22119986.8974    4105254.04748   3199588.98863
  24961582.3664     -78540.21845    -10029.96061
  21549713.5224  -16495814.62647 -12806169.53863
 91  5 14 22 24  0.0030000  0  4G13G 2G15G 6
  22123116.7884  -13829335.42447  -8675936.69461
  22123932.4834    4125998.82848   3215753.75463
  24964236.2654     -64612.95545       822.44661
  21550617.3124  -16491074.33447 -12802475.79463
 91  5 14 22 24 15.0030000  0  4G13G 2G15G 6
  22116706.4134  -13863025.37547  -8702188.53561
  22127888.8664    4146784.53548   3231950.40563
  24966908.6014     -50553.64445     11777.74261
  21551536.6794  -16486236.51447 -12798706.06563
 91  5 14 22 24 30.0030000  0  4G13G 2G15G 6
  22110317.5224  -13896604.01547  -8728353.64961
  22131851.2574    4167602.83648   3248172.44963
  24969608.163      -36370.485 5     22829.54121
  21552472.2724  -16481309.53847 -12794866.86063
 91  5 14 22 24 45.0030000  0  4G13G 2G15G 6
  22103952.0384  -13930057.63247  -8754421.34261
  22135818.2494    4188467.08748   3264430.30363
  24972333.905      -22050.176 5     33988.21621
  21553432.6474  -16476279.65847 -12790947.47063
 91  5 14 22 25  0.0030000  0  4G13G 2G15G 6
  22097609.1794  -13963384.22247  -8780390.04961
  22139799.0384    4209379.06648   3280725.34363
  24975086.7724      -7591.01346     45255.11461
  21554408.6164  -16471144.97447 -12786946.41663
 91  5 14 22 25 15.0030000  0  4G13G 2G15G 6
  22091291.6944  -13996585.72547  -8806261.28561
  22143788.0774    4230336.74048   3297056.00063
  24977861.6714       7005.08646     56628.68561
  21555406.8664  -16465907.28547 -12782865.09663
 91  5 14 22 25 30.0030000  0  4G13G 2G15G 6
  22084996.983   -14029659.368 7  -8832032.89821
  22147783.0074    4251342.43348   3313424.06563
  24980664.2024      21740.24145     68110.61061
  21556422.7184  -16460563.97547 -12778701.47463
 91  5 14 22 25 45.0030000  0  4G13G 2G15G 6
  22078726.4134  -14062610.04347  -8857708.69061
  22151790.8354    4272391.19348   3329825.69263
  24983493.804       36609.656 5     79697.15021
  21557459.4834  -16455120.08347 -12774459.48263
 91  5 14 22 26  0.0030000  0  4G13G 2G15G 6
  22072479.608   -14095433.074 7  -8883285.02621
  22155804.4214    4293487.32748   3346264.23063
  24986351.8274      51617.89445     91391.85961
  21558513.8904  -16449570.96947 -12770135.48763
 91  5 14 22 26 15.0030000  0  4G13G 2G15G 6
  22066260.6554  -14128129.42347  -8908762.63061
  22159828.0544    4314629.66948   3362738.77863
  24989234.647       66763.579 5    103193.66621
  21559590.9294  -16443917.65247 -12765730.30463
 91  5 14 22 26 30.0030000  0  4G13G 2G15G 6
  22060062.1404  -14160695.72647  -8934138.90761
  22163860.8274    4335821.30948   3379251.74063
  24992145.4834      82049.71145    115104.93461
  21560685.4684  -16438156.73147 -12761241.27063
 91  5 14 22 26 45.0030000  0  4G13G 2G15G 6
  22053889.0154  -14193130.87847  -8959412.99461
  22167904.4764    4357062.86048   3395803.59463
  24995080.163       97476.839 6    127126.10721
  21561804.3124  -16432287.32547 -12756667.70663
 91  5 14 22 27  0.0030000  0  4G13G 2G15G 6
  22047744.0624  -14225436.17947  -8984585.90161
  22171953.5154    4378352.78148   3412393.14163
  24998040.7024     113043.75046    139256.18361
  21562940.6404  -16426310.70747 -12752010.59763
 91  5 14 22 27 15.0030000  0  4G13G 2G15G 6
  22041619.8124  -14257608.67347  -9009655.31361
  22176015.7104    4399693.88548   3429022.57063
  25001028.9834     128752.79245    151497.00261
  21564098.1474  -16420224.15047 -12747267.82663
 91  5 14 22 27 30.0030000  0  4G13G 2G15G 6
  22035522.0774  -14289649.76047  -9034622.32661
  22180086.5854    4421084.54348   3445690.61063
  25004048.319      144602.388 5    163847.34121
  21565277.5224  -16414028.99147 -12742440.42363
 91  5 14 22 27 45.0030000  0  4G13G 2G15G 6
  22029450.9834  -14321558.33447  -9059486.09461
  22184166.6944    4442525.72648   3462398.01663
  25007090.601      160593.612 5    176308.01821
  21566476.7184  -16407724.07247 -12737527.49663
 91  5 14 22 28  0.0030000  0  4G13G 2G15G 6
  22023403.9294  -14353334.05147  -9084246.33261
  22188256.5154    4464017.46848   3479144.82563
  25010161.163      176726.272 5    188878.90021
  21567697.9764  -16401309.21647 -12732528.90663
 91  5 14 22 28 15.0030000  0  4G13G 2G15G 6
  22017382.663   -14384977.281 7  -9108903.34321
  22192353.9604    4485559.02248   3495930.44463
  25013255.4914     192999.71345    201559.49261
  21568939.4834  -16394784.79947 -12727444.94063
 91  5 14 22 28 30.0030000  0  4G13G 2G15G 6
  22011386.4764  -14416484.32947  -9133454.23061
  22196462.3514    4507153.95548   3512757.65663
  25016379.7334     209417.67845    214352.71361
  21570202.1404  -16388147.14047 -12722272.73363
 91  5 14 22 28 45.0030000  0  4G13G 2G15G 6
  22005417.6634  -14447859.65447  -9157902.47861
  22200585.827     4528797.549 8   3529622.78123
  25019532.6084     225975.42545    227254.84961
  21571486.1324  -16381400.72047 -12717015.78063
 91  5 14 22 29  0.0030000  0  4G13G 2G15G 6
  21999470.921   -14479102.012 7  -9182247.12421
  22204708.7414    4550490.80948   3546526.61663
  25022711.4524     242673.78045    240266.56461
  21572792.3744  -16374544.40447 -12711673.19763
 91  5 14 22 29 15.0030000  0  4G13G 2G15G 6
  21993550.8744  -14510216.13547  -9206491.83861
  22208848.2964    4572228.73048   3563465.25163
  25025910.4604     259507.75445    253383.95061
  21574114.5154  -16367582.87847 -12706248.62863
 91  5 14 22 29 30.0030000  0  4G13G 2G15G 6
  21987655.179   -14541197.107 7  -9230632.80021
  22212994.1944    4594015.98348   3580442.32963
  25029139.1084     276481.92745    266610.58461
  21575459.9374  -16360511.45447 -12700738.42663
 91  5 14 22 29 45.0030000  0  4G13G 2G15G 6
  21981783.897   -14572047.171 7  -9254671.76221
  22217146.7024    4615849.94948   3597455.80263
  25032395.3124     293593.70245    279944.43661
  21576828.1474  -16353332.50647 -12695144.43563
 91  5 14 22 30  0.0030000  0  4G13G 2G15G 6
  21975938.421   -14602766.076 7  -9278608.51421
  22221311.6714    4637730.80548   3614505.80863
  25035681.2574     310843.14945    293385.57561
  21578213.1474  -16346045.47047 -12689466.22963
 91  5 14 22 30 15.0030000  0  4G13G 2G15G 6
  21970119.444   -14633351.392 7  -9302441.17721
  22225485.4214    4659660.60348   3631593.96263
  25038987.2884     328232.25845    306935.51161
  21579623.1014  -16338648.39947 -12683702.28063
 91  5 14 22 30 30.0030000  0  4G13G 2G15G 6
  21964323.702   -14663801.184 7  -9326168.23121
  22229668.1164    4681641.10348   3648721.61363
  25042324.319      345762.775 5    320595.66021
  21581052.7574  -16331139.03347 -12677850.82563
 91  5 14 22 30 45.0030000  0  4G13G 2G15G 6
  21958554.976   -14694118.992 7  -9349792.44621
  22233861.3744    4703668.43648   3665885.76563
  25045687.1474     363430.82645    334362.96361
  21582500.6164  -16323521.26647 -12671914.90363
 91  5 14 22 31  0.0030000  0  4G13G 2G15G 6
  21952809.8824  -14724305.32847  -9373314.21061
  22238059.8744    4725741.94648   3683085.89463
  25049079.554      381235.560 5    348236.76221
  21583971.7654  -16315795.52747 -12665894.84863
 91  5 14 22 31 15.0030000  0  4G13G 2G15G 6
  21947090.319   -14754359.748 7  -9396733.18521
  22242265.3514    4747861.91748   3700322.23063
  25052489.4604     399177.44945    362217.44161
  21585462.4444  -16307961.39547 -12659790.33263
 91  5 14 22 31 30.0030000  0  4G13G 2G15G 6
  21941396.116   -14784281.412 7  -9420048.71721
  22246487.5934    4770029.03248   3717595.30163
  25055929.1164     417257.11745    376305.48861
  21586974.4834  -16300018.05347 -12653600.71563
 91  5 14 22 31 45.0030000  0  4G13G 2G15G 6
  21935728.194   -14814066.592 7  -9443257.89421
  22250716.4994    4792246.67948   3734907.74263
  25059401.7964     435477.79745    390503.41461
  21588505.8904  -16291961.81247 -12647323.12063
 91  5 14 22 32  0.0030000  0  4G13G 2G15G 6
  21930086.991   -14843713.287 7  -9466359.16621
  22254954.8044    4814516.75548   3752261.04763
  25062890.5694     453841.25945    404812.60561
  21590062.6794  -16283790.63747 -12640955.97763
 91  5 14 22 32 15.0030000  0  4G13G 2G15G 6
  21924471.897   -14873227.523 7  -9489357.21821
  22259202.1324    4836833.01748   3769650.33763
  25066416.6794     472341.36645    419228.27361
  21591638.8124  -16275510.73947 -12634504.10663
 91  5 14 22 32 30.0030000  0  3G13G 2G 6
  21918879.843   -14902610.148 7  -9512252.72021
  22263453.8354    4859194.15548   3787074.59563
  21593233.9684  -16267123.03347 -12627968.23263
 91  5 14 22 32 45.0030000  0  3G13G 2G 6
  21913314.6324  -14931854.44747  -9535040.43261
  22267721.0224    4881606.69648   3804538.90663
  21594851.7964  -16258620.99247 -12621343.26663
 91  5 14 22 33  0.0030000  0  3G13G 2G 6
  21907774.374   -14960966.775 7  -9557725.30822
  22271994.5934    4904064.16148   3822038.22063
  21596490.0464  -16250010.75547 -12614633.98963
 91  5 14 22 33 15.0030000  0  3G13G 2G 6
  21902260.390   -14989943.536 7  -9580304.55421
  22276276.1634    4926569.97148   3839575.21463
  21598148.8664  -16241288.75447 -12607837.63063
 91  5 14 22 33 30.0030000  0  3G13G 2G 6
  21896771.210   -15018786.688 7  -9602779.68621
  22280570.1634    4949121.87448   3857148.11763
  21599829.3514  -16232456.90847 -12600955.67163
 91  5 14 22 33 45.0030000  0  3G13G 2G 6
  21891308.2494  -15047493.82147  -9625148.82561
  22284867.4214    4971722.03548   3874758.62763
  21601532.1164  -16223513.14147 -12593986.50463
 91  5 14 22 34  0.0030000  0  3G13G 2G 6
  21885872.272   -15076062.799 7  -9647410.31421
  22289175.0854    4994372.36948   3892408.23263
  21603254.0624  -16214455.31647 -12586928.46063
 91  5 14 22 34 15.0030000  0  3G13G 2G 6
  21880461.507   -15104490.164 7  -9669561.46221
  22293501.2264    5017076.23648   3910099.55063
  21605001.2494  -16205279.88147 -12579778.76963
 91  5 14 22 34 30.0030000  0  3G13G 2G 6
  21875080.155   -15132781.140 7  -9691606.32322
  22297829.3904    5039828.23048   3927828.37663
  21606770.2884  -16195992.09847 -12572541.53763
 91  5 14 22 34 45.0030000  0  3G13G 2G 6
  21869721.671   -15160935.356 7  -9713544.62222
  22302167.9994    5062628.44148   3945594.77063
  21608556.1874  -16186591.64247 -12565216.50763
 91  5 14 22 35  0.0030000  0  3G13G 2G 6
  21864390.882   -15188951.902 7  -9735375.65122
  22306517.3194    5085477.58248   3963399.29463
  21610368.7334  -16177077.64147 -12557802.99963
 91  5 14 22 35 15.0030000  0  3G13G 2G 6
  21859084.812   -15216831.114 7  -9757099.66422
  22310871.5464    5108375.04948   3981241.46863
  21612199.3664  -16167450.53147 -12550301.35663
 91  5 14 22 35 30.0030000  0  3G13G 2G 6
  21853806.499   -15244576.626 7  -9778719.48822
  22315238.6554    5131316.86648   3999118.20863
  21614053.5154  -16157714.00047 -12542714.44863
 91  5 14 22 35 45.0030000  0  3G13G 2G 6
  21848552.046   -15272184.069 7  -9800231.73922
  22319612.5854    5154307.30048   4017032.82363
  21615927.3514  -16147863.84247 -12535038.99963
 91  5 14 22 36  0.0030000  0  3G13G 2G 6
  21843324.202   -15299652.750 7  -9821635.85821
  22323998.9764    5177346.85848   4034985.72263
  21617824.2964  -16137899.30647 -12527274.42863
 91  5 14 22 36 15.0030000  0  3G13G 2G 6
  21838122.749   -15326982.060 7  -9842931.37922
  22328390.8124    5200436.16548   4052977.39363
  21619740.5304  -16127819.71447 -12519420.20263
 91  5 14 22 36 30.0030000  0  3G13G 2G 6
  21832948.179   -15354176.457 7  -9864121.76722
  22332793.2884    5223570.33948   4071004.00863
  21621679.7184  -16117629.67547 -12511479.91763
 91  5 14 22 36 45.0030000  0  3G13G 2G 6
  21827798.944   -15381238.011 7  -9885208.65121
  22337205.4294    5246747.31148   4089063.98563
  21623640.0304  -16107331.21747 -12503455.14763
 91  5 14 22 37  0.0030000  0  3G13G 2G 6
  21822675.327   -15408161.505 7  -9906187.94921
  22341624.6244    5269971.95648   4107161.10163
  21625620.2654  -16096918.88447 -12495341.64363
 91  5 14 22 37 15.0030000  0  3G13G 2G 6
  21817577.437   -15434945.564 7  -9927058.59322
  22346050.1714    5293245.47548   4125296.30763
  21627626.0694  -16086391.69047 -12487138.63663
 91  5 14 22 37 30.0030000  0  3G13G 2G 6
  21812507.116   -15461593.277 7  -9947822.99721
  22350489.2804    5316564.53148   4143466.99463
  21629648.1164  -16075752.68647 -12478848.50863
 91  5 14 22 37 45.0030000  0  3G13G 2G 6
  21807462.233   -15488102.363 7  -9968479.38221
  22354935.7494    5339931.24248   4161674.81663
  21631696.3194  -16064999.42547 -12470469.34563
 91  5 14 22 38  0.0030000  0  3G13G 2G 6
  21802445.640   -15514472.418 7  -9989027.43122
  22359395.4834    5363345.79648   4179919.91863
  21633765.3194  -16054131.78647 -12462001.06163
 91  5 14 22 38 15.0030000  0  3G13G 2G 6
  21797453.405   -15540702.534 7 -10009466.43222
  22363854.9294    5386808.96448   4198202.89563
  21635853.8194  -16043148.93647 -12453442.99763
 91  5 14 22 38 30.0030000  0  3G13G 2G 6
  21792489.429   -15566792.531 7 -10029796.25321
  22368332.2024    5410320.84948   4216523.83763
  21637965.3194  -16032050.50847 -12444794.86963
 91  5 14 22 38 45.0030000  0  3G13G 2G 6
  21787549.304   -15592745.577 7 -10050019.36322
  22372812.8584    5433877.96848   4234880.03363
  21640098.4994  -16020839.75347 -12436059.22463
 91  5 14 22 39  0.0030000  0  3G13G 2G 6
  21782637.015   -15618560.997 7 -10070135.22422
  22377303.272     5457480.926 8   4253271.93023
  21642254.3124  -16009516.07947 -12427235.58763
 91  5 14 22 39 15.0030000  0  3G13G 2G 6
  21777752.226   -15644235.085 7 -10090140.96022
  22381804.7654    5481132.87348   4271702.01163
  21644431.1164  -15998076.01147 -12418321.25263
 91  5 14 22 39 30.0030000  0  3G13G 2G 6
  21772893.147   -15669767.260 7 -10110036.11622
  22386315.5304    5504834.34848   4290170.68463
  21646631.2184  -15986518.84647 -12409315.67763
 91  5 14 22 39 45.0030000  0  3G13G 2G 6
  21768061.452   -15695160.391 7 -10129822.92822
  22390836.265     5528582.518 8   4308675.74023
  21648852.1634  -15974847.28347 -12400220.95763
 91  5 14 22 40  0.0030000  0  3G13G 2G 6
  21763256.835   -15720411.154 7 -10149498.80022
  22395360.9054    5552380.57948   4327219.67563
  21651096.3974  -15963058.09947 -12391034.57863
 91  5 14 22 40 15.0030000  0  3G13G 2G 6
  21758477.741   -15745521.527 7 -10169065.27722
  22399904.0464    5576226.28548   4345800.73563
  21653360.7574  -15951153.39247 -12381758.19363
 91  5 14 22 40 30.0030000  0  3G13G 2G 6
  21753725.2414  -15770494.45447 -10188524.65862
  22404448.2334    5600116.43248   4364416.43063
  21655647.7654  -15939136.18147 -12372394.13663
 91  5 14 22 40 45.0030000  0  3G13G 2G 6
  21749000.179   -15795324.217 7 -10207872.47922
  22409006.4214    5624056.70948   4383071.17563
  21657956.8584  -15927000.72147 -12362937.94163
 91  5 14 22 41  0.0030000  0  3G13G 2G 6
  21744301.022   -15820014.689 7 -10227111.76222
  22413568.101     5648043.107 8   4401761.86823
  21660286.9684  -15914750.85947 -12353392.60363
 91  5 14 22 41 15.0030000  0  3G13G 2G 6
  21739630.468   -15844564.085 7 -10246241.12322
  22418139.8514    5672077.17948   4420489.71063
  21662641.1874  -15902384.82147 -12343756.73063
 91  5 14 22 41 30.0030000  0  3G13G 2G 6
  21734985.163   -15868974.039 7 -10265261.81922
  22422722.5384    5696157.10648   4439253.27863
  21665015.5934  -15889904.27347 -12334031.63263
 91  5 14 22 41 45.0030000  0  3G13G 2G 6
  21730367.046   -15893245.002 7 -10284174.21122
  22427312.4134    5720282.09048   4458051.96263
  21667412.6014  -15877309.74447 -12324217.72163
